<?xml version="1.0" encoding="UTF-8" standalone="no" ?>
<gpx xmlns="http://www.topografix.com/GPX/1/1" xmlns:xsi="http://www.w3.org/2001/XMLSchema-instance" xsi:schemaLocation="http://www.topografix.com/GPX/1/1 http://www.topografix.com/GPX/1/1/gpx.xsd" version="1.1" creator="VisuGPX - https://www.visugpx.com">
  <metadata>
    <name>ski rando Tour du Moretan,P de Comberousse</name>
    <desc><![CDATA[
]]></desc>
  </metadata>
  <trk>
    <name><![CDATA[ski rando Tour du Moretan,P de Comberousse]]></name>
    <trkseg>
      <trkpt lat="45.29093" lon="6.21697">
        <ele>1177</ele>
        <time>2013-04-07T06:42:04.000Z</time>
      </trkpt>
      <trkpt lat="45.29087" lon="6.21678">
        <ele>1177.4000244141</ele>
        <time>2013-04-07T06:42:52.000Z</time>
      </trkpt>
      <trkpt lat="45.29349" lon="6.20696">
        <ele>1377.5999755859</ele>
        <time>2013-04-07T07:05:21.000Z</time>
      </trkpt>
      <trkpt lat="45.29349" lon="6.20694">
        <ele>1377.5999755859</ele>
        <time>2013-04-07T07:05:22.000Z</time>
      </trkpt>
      <trkpt lat="45.29352" lon="6.20671">
        <ele>1378</ele>
        <time>2013-04-07T07:05:35.000Z</time>
      </trkpt>
      <trkpt lat="45.29354" lon="6.20658">
        <ele>1377.8000488281</ele>
        <time>2013-04-07T07:05:42.000Z</time>
      </trkpt>
      <trkpt lat="45.29362" lon="6.20645">
        <ele>1378.1999511719</ele>
        <time>2013-04-07T07:05:49.000Z</time>
      </trkpt>
      <trkpt lat="45.29367" lon="6.20633">
        <ele>1379.5999755859</ele>
        <time>2013-04-07T07:05:55.000Z</time>
      </trkpt>
      <trkpt lat="45.29367" lon="6.20632">
        <ele>1379.8000488281</ele>
        <time>2013-04-07T07:05:56.000Z</time>
      </trkpt>
      <trkpt lat="45.29394" lon="6.20472">
        <ele>1398.1999511719</ele>
        <time>2013-04-07T07:07:39.000Z</time>
      </trkpt>
      <trkpt lat="45.29395" lon="6.2046">
        <ele>1398.1999511719</ele>
        <time>2013-04-07T07:07:46.000Z</time>
      </trkpt>
      <trkpt lat="45.29397" lon="6.20443">
        <ele>1399.1999511719</ele>
        <time>2013-04-07T07:07:56.000Z</time>
      </trkpt>
      <trkpt lat="45.29398" lon="6.20368">
        <ele>1406.5999755859</ele>
        <time>2013-04-07T07:08:44.000Z</time>
      </trkpt>
      <trkpt lat="45.29399" lon="6.20366">
        <ele>1406.4000244141</ele>
        <time>2013-04-07T07:08:46.000Z</time>
      </trkpt>
      <trkpt lat="45.29399" lon="6.20358">
        <ele>1406</ele>
        <time>2013-04-07T07:08:50.000Z</time>
      </trkpt>
      <trkpt lat="45.2945" lon="6.20159">
        <ele>1432.8000488281</ele>
        <time>2013-04-07T07:13:11.000Z</time>
      </trkpt>
      <trkpt lat="45.29452" lon="6.20152">
        <ele>1432.5999755859</ele>
        <time>2013-04-07T07:13:14.000Z</time>
      </trkpt>
      <trkpt lat="45.2955" lon="6.19836">
        <ele>1476.4000244141</ele>
        <time>2013-04-07T07:18:09.000Z</time>
      </trkpt>
      <trkpt lat="45.29551" lon="6.19835">
        <ele>1476.1999511719</ele>
        <time>2013-04-07T07:18:10.000Z</time>
      </trkpt>
      <trkpt lat="45.29553" lon="6.19832">
        <ele>1476.1999511719</ele>
        <time>2013-04-07T07:18:12.000Z</time>
      </trkpt>
      <trkpt lat="45.29553" lon="6.19831">
        <ele>1476</ele>
        <time>2013-04-07T07:18:13.000Z</time>
      </trkpt>
      <trkpt lat="45.29658" lon="6.19583">
        <ele>1514.5999755859</ele>
        <time>2013-04-07T07:22:25.000Z</time>
      </trkpt>
      <trkpt lat="45.29658" lon="6.19582">
        <ele>1514.5999755859</ele>
        <time>2013-04-07T07:22:26.000Z</time>
      </trkpt>
      <trkpt lat="45.29666" lon="6.19567">
        <ele>1515.4000244141</ele>
        <time>2013-04-07T07:22:37.000Z</time>
      </trkpt>
      <trkpt lat="45.2971" lon="6.19514">
        <ele>1518.5999755859</ele>
        <time>2013-04-07T07:23:28.000Z</time>
      </trkpt>
      <trkpt lat="45.29771" lon="6.19448">
        <ele>1525.1999511719</ele>
        <time>2013-04-07T07:25:52.000Z</time>
      </trkpt>
      <trkpt lat="45.29783" lon="6.19432">
        <ele>1526.5999755859</ele>
        <time>2013-04-07T07:26:07.000Z</time>
      </trkpt>
      <trkpt lat="45.29822" lon="6.19333">
        <ele>1536.1999511719</ele>
        <time>2013-04-07T07:27:29.000Z</time>
      </trkpt>
      <trkpt lat="45.29824" lon="6.19331">
        <ele>1536.1999511719</ele>
        <time>2013-04-07T07:27:31.000Z</time>
      </trkpt>
      <trkpt lat="45.29831" lon="6.19317">
        <ele>1536.4000244141</ele>
        <time>2013-04-07T07:27:41.000Z</time>
      </trkpt>
      <trkpt lat="45.29832" lon="6.19315">
        <ele>1536.4000244141</ele>
        <time>2013-04-07T07:27:43.000Z</time>
      </trkpt>
      <trkpt lat="45.29839" lon="6.19289">
        <ele>1539.1999511719</ele>
        <time>2013-04-07T07:28:02.000Z</time>
      </trkpt>
      <trkpt lat="45.2984" lon="6.19284">
        <ele>1539.8000488281</ele>
        <time>2013-04-07T07:28:05.000Z</time>
      </trkpt>
      <trkpt lat="45.29849" lon="6.19256">
        <ele>1541.4000244141</ele>
        <time>2013-04-07T07:28:24.000Z</time>
      </trkpt>
      <trkpt lat="45.29917" lon="6.1904">
        <ele>1564.4000244141</ele>
        <time>2013-04-07T07:31:17.000Z</time>
      </trkpt>
      <trkpt lat="45.29917" lon="6.19038">
        <ele>1564.4000244141</ele>
        <time>2013-04-07T07:31:18.000Z</time>
      </trkpt>
      <trkpt lat="45.30161" lon="6.18424">
        <ele>1706</ele>
        <time>2013-04-07T07:47:14.000Z</time>
      </trkpt>
      <trkpt lat="45.30161" lon="6.18423">
        <ele>1706</ele>
        <time>2013-04-07T07:47:15.000Z</time>
      </trkpt>
      <trkpt lat="45.30174" lon="6.17987">
        <ele>1780.8000488281</ele>
        <time>2013-04-07T07:57:19.000Z</time>
      </trkpt>
      <trkpt lat="45.30191" lon="6.17941">
        <ele>1789.4000244141</ele>
        <time>2013-04-07T07:58:31.000Z</time>
      </trkpt>
      <trkpt lat="45.31109" lon="6.17933">
        <ele>2279.3999023438</ele>
        <time>2013-04-07T08:54:29.000Z</time>
      </trkpt>
      <trkpt lat="45.31109" lon="6.17934">
        <ele>2279.3999023438</ele>
        <time>2013-04-07T08:54:30.000Z</time>
      </trkpt>
      <trkpt lat="45.3116" lon="6.17879">
        <ele>2319.6000976562</ele>
        <time>2013-04-07T09:02:32.000Z</time>
      </trkpt>
      <trkpt lat="45.3116" lon="6.17879">
        <ele>2319.6000976562</ele>
        <time>2013-04-07T09:02:33.000Z</time>
      </trkpt>
      <trkpt lat="45.31165" lon="6.17882">
        <ele>2318.3999023438</ele>
        <time>2013-04-07T09:08:54.000Z</time>
      </trkpt>
      <trkpt lat="45.31166" lon="6.17881">
        <ele>2318.3999023438</ele>
        <time>2013-04-07T09:08:56.000Z</time>
      </trkpt>
      <trkpt lat="45.31169" lon="6.1788">
        <ele>2318.8000488281</ele>
        <time>2013-04-07T09:09:01.000Z</time>
      </trkpt>
      <trkpt lat="45.31175" lon="6.17877">
        <ele>2319.8000488281</ele>
        <time>2013-04-07T09:09:07.000Z</time>
      </trkpt>
      <trkpt lat="45.3118" lon="6.17873">
        <ele>2320.6000976562</ele>
        <time>2013-04-07T09:09:13.000Z</time>
      </trkpt>
      <trkpt lat="45.31184" lon="6.17868">
        <ele>2321.1999511719</ele>
        <time>2013-04-07T09:09:19.000Z</time>
      </trkpt>
      <trkpt lat="45.31187" lon="6.17864">
        <ele>2321.1999511719</ele>
        <time>2013-04-07T09:09:25.000Z</time>
      </trkpt>
      <trkpt lat="45.31189" lon="6.17859">
        <ele>2321.6000976562</ele>
        <time>2013-04-07T09:09:30.000Z</time>
      </trkpt>
      <trkpt lat="45.31191" lon="6.17854">
        <ele>2321.8000488281</ele>
        <time>2013-04-07T09:09:35.000Z</time>
      </trkpt>
      <trkpt lat="45.31192" lon="6.1785">
        <ele>2322</ele>
        <time>2013-04-07T09:09:39.000Z</time>
      </trkpt>
      <trkpt lat="45.31194" lon="6.17843">
        <ele>2322.3999023438</ele>
        <time>2013-04-07T09:09:45.000Z</time>
      </trkpt>
      <trkpt lat="45.31195" lon="6.17837">
        <ele>2322.6000976562</ele>
        <time>2013-04-07T09:09:50.000Z</time>
      </trkpt>
      <trkpt lat="45.31197" lon="6.17834">
        <ele>2323.1999511719</ele>
        <time>2013-04-07T09:09:54.000Z</time>
      </trkpt>
      <trkpt lat="45.31198" lon="6.17829">
        <ele>2324</ele>
        <time>2013-04-07T09:09:59.000Z</time>
      </trkpt>
      <trkpt lat="45.31201" lon="6.17824">
        <ele>2325</ele>
        <time>2013-04-07T09:10:05.000Z</time>
      </trkpt>
      <trkpt lat="45.31202" lon="6.1782">
        <ele>2325.8000488281</ele>
        <time>2013-04-07T09:10:09.000Z</time>
      </trkpt>
      <trkpt lat="45.31203" lon="6.17817">
        <ele>2326.3999023438</ele>
        <time>2013-04-07T09:10:12.000Z</time>
      </trkpt>
      <trkpt lat="45.31205" lon="6.17812">
        <ele>2327.3999023438</ele>
        <time>2013-04-07T09:10:18.000Z</time>
      </trkpt>
      <trkpt lat="45.31205" lon="6.17811">
        <ele>2327.3999023438</ele>
        <time>2013-04-07T09:10:19.000Z</time>
      </trkpt>
      <trkpt lat="45.31208" lon="6.17808">
        <ele>2328</ele>
        <time>2013-04-07T09:10:24.000Z</time>
      </trkpt>
      <trkpt lat="45.3121" lon="6.17805">
        <ele>2328.6000976562</ele>
        <time>2013-04-07T09:10:29.000Z</time>
      </trkpt>
      <trkpt lat="45.31213" lon="6.178">
        <ele>2329.6000976562</ele>
        <time>2013-04-07T09:10:35.000Z</time>
      </trkpt>
      <trkpt lat="45.31216" lon="6.17797">
        <ele>2330.3999023438</ele>
        <time>2013-04-07T09:10:41.000Z</time>
      </trkpt>
      <trkpt lat="45.31219" lon="6.17794">
        <ele>2331.1999511719</ele>
        <time>2013-04-07T09:10:47.000Z</time>
      </trkpt>
      <trkpt lat="45.31221" lon="6.1779">
        <ele>2332.1999511719</ele>
        <time>2013-04-07T09:10:52.000Z</time>
      </trkpt>
      <trkpt lat="45.31224" lon="6.17786">
        <ele>2333</ele>
        <time>2013-04-07T09:10:57.000Z</time>
      </trkpt>
      <trkpt lat="45.31227" lon="6.1778">
        <ele>2333.8000488281</ele>
        <time>2013-04-07T09:11:04.000Z</time>
      </trkpt>
      <trkpt lat="45.31228" lon="6.17775">
        <ele>2334.8000488281</ele>
        <time>2013-04-07T09:11:09.000Z</time>
      </trkpt>
      <trkpt lat="45.3123" lon="6.17768">
        <ele>2336.6000976562</ele>
        <time>2013-04-07T09:11:17.000Z</time>
      </trkpt>
      <trkpt lat="45.31232" lon="6.17763">
        <ele>2337.8000488281</ele>
        <time>2013-04-07T09:11:23.000Z</time>
      </trkpt>
      <trkpt lat="45.31233" lon="6.17758">
        <ele>2339</ele>
        <time>2013-04-07T09:11:29.000Z</time>
      </trkpt>
      <trkpt lat="45.31234" lon="6.17754">
        <ele>2339.6000976562</ele>
        <time>2013-04-07T09:11:33.000Z</time>
      </trkpt>
      <trkpt lat="45.31235" lon="6.1775">
        <ele>2340.3999023438</ele>
        <time>2013-04-07T09:11:37.000Z</time>
      </trkpt>
      <trkpt lat="45.31235" lon="6.17746">
        <ele>2341.1999511719</ele>
        <time>2013-04-07T09:11:41.000Z</time>
      </trkpt>
      <trkpt lat="45.31235" lon="6.17743">
        <ele>2341.3999023438</ele>
        <time>2013-04-07T09:11:43.000Z</time>
      </trkpt>
      <trkpt lat="45.31237" lon="6.17735">
        <ele>2342.3999023438</ele>
        <time>2013-04-07T09:11:50.000Z</time>
      </trkpt>
      <trkpt lat="45.31237" lon="6.1773">
        <ele>2343</ele>
        <time>2013-04-07T09:11:55.000Z</time>
      </trkpt>
      <trkpt lat="45.31237" lon="6.17728">
        <ele>2343.6000976562</ele>
        <time>2013-04-07T09:11:57.000Z</time>
      </trkpt>
      <trkpt lat="45.31238" lon="6.17724">
        <ele>2344.6000976562</ele>
        <time>2013-04-07T09:12:02.000Z</time>
      </trkpt>
      <trkpt lat="45.31239" lon="6.17719">
        <ele>2346</ele>
        <time>2013-04-07T09:12:08.000Z</time>
      </trkpt>
      <trkpt lat="45.31239" lon="6.17712">
        <ele>2347</ele>
        <time>2013-04-07T09:12:13.000Z</time>
      </trkpt>
      <trkpt lat="45.3124" lon="6.17706">
        <ele>2347.8000488281</ele>
        <time>2013-04-07T09:12:19.000Z</time>
      </trkpt>
      <trkpt lat="45.31241" lon="6.177">
        <ele>2348.1999511719</ele>
        <time>2013-04-07T09:12:24.000Z</time>
      </trkpt>
      <trkpt lat="45.31242" lon="6.17695">
        <ele>2349</ele>
        <time>2013-04-07T09:12:29.000Z</time>
      </trkpt>
      <trkpt lat="45.31243" lon="6.17689">
        <ele>2350</ele>
        <time>2013-04-07T09:12:35.000Z</time>
      </trkpt>
      <trkpt lat="45.31244" lon="6.17684">
        <ele>2351</ele>
        <time>2013-04-07T09:12:40.000Z</time>
      </trkpt>
      <trkpt lat="45.31246" lon="6.1768">
        <ele>2351.8000488281</ele>
        <time>2013-04-07T09:12:45.000Z</time>
      </trkpt>
      <trkpt lat="45.31247" lon="6.17675">
        <ele>2352.3999023438</ele>
        <time>2013-04-07T09:12:50.000Z</time>
      </trkpt>
      <trkpt lat="45.31248" lon="6.17669">
        <ele>2353.1999511719</ele>
        <time>2013-04-07T09:12:55.000Z</time>
      </trkpt>
      <trkpt lat="45.31249" lon="6.17664">
        <ele>2353.8000488281</ele>
        <time>2013-04-07T09:13:00.000Z</time>
      </trkpt>
      <trkpt lat="45.31251" lon="6.17657">
        <ele>2354.3999023438</ele>
        <time>2013-04-07T09:13:06.000Z</time>
      </trkpt>
      <trkpt lat="45.31252" lon="6.17651">
        <ele>2354.6000976562</ele>
        <time>2013-04-07T09:13:11.000Z</time>
      </trkpt>
      <trkpt lat="45.31254" lon="6.17646">
        <ele>2355</ele>
        <time>2013-04-07T09:13:16.000Z</time>
      </trkpt>
      <trkpt lat="45.31257" lon="6.17639">
        <ele>2355.8000488281</ele>
        <time>2013-04-07T09:13:22.000Z</time>
      </trkpt>
      <trkpt lat="45.31259" lon="6.17634">
        <ele>2356.6000976562</ele>
        <time>2013-04-07T09:13:28.000Z</time>
      </trkpt>
      <trkpt lat="45.3126" lon="6.17625">
        <ele>2358</ele>
        <time>2013-04-07T09:13:35.000Z</time>
      </trkpt>
      <trkpt lat="45.31261" lon="6.17621">
        <ele>2358.8000488281</ele>
        <time>2013-04-07T09:13:39.000Z</time>
      </trkpt>
      <trkpt lat="45.31264" lon="6.17615">
        <ele>2360</ele>
        <time>2013-04-07T09:13:45.000Z</time>
      </trkpt>
      <trkpt lat="45.31265" lon="6.17609">
        <ele>2361.1999511719</ele>
        <time>2013-04-07T09:13:51.000Z</time>
      </trkpt>
      <trkpt lat="45.31267" lon="6.17601">
        <ele>2362.3999023438</ele>
        <time>2013-04-07T09:13:58.000Z</time>
      </trkpt>
      <trkpt lat="45.31268" lon="6.17596">
        <ele>2363</ele>
        <time>2013-04-07T09:14:03.000Z</time>
      </trkpt>
      <trkpt lat="45.3127" lon="6.1759">
        <ele>2363.8000488281</ele>
        <time>2013-04-07T09:14:09.000Z</time>
      </trkpt>
      <trkpt lat="45.31271" lon="6.17582">
        <ele>2364.6000976562</ele>
        <time>2013-04-07T09:14:15.000Z</time>
      </trkpt>
      <trkpt lat="45.31271" lon="6.1758">
        <ele>2365</ele>
        <time>2013-04-07T09:14:17.000Z</time>
      </trkpt>
      <trkpt lat="45.3127" lon="6.1757">
        <ele>2366</ele>
        <time>2013-04-07T09:14:24.000Z</time>
      </trkpt>
      <trkpt lat="45.3127" lon="6.17567">
        <ele>2366.1999511719</ele>
        <time>2013-04-07T09:14:27.000Z</time>
      </trkpt>
      <trkpt lat="45.3127" lon="6.17563">
        <ele>2366.8000488281</ele>
        <time>2013-04-07T09:14:30.000Z</time>
      </trkpt>
      <trkpt lat="45.3127" lon="6.17554">
        <ele>2368.1999511719</ele>
        <time>2013-04-07T09:14:37.000Z</time>
      </trkpt>
      <trkpt lat="45.31271" lon="6.17547">
        <ele>2369.8000488281</ele>
        <time>2013-04-07T09:14:43.000Z</time>
      </trkpt>
      <trkpt lat="45.31271" lon="6.17543">
        <ele>2370.8000488281</ele>
        <time>2013-04-07T09:14:47.000Z</time>
      </trkpt>
      <trkpt lat="45.31271" lon="6.17542">
        <ele>2371</ele>
        <time>2013-04-07T09:14:48.000Z</time>
      </trkpt>
      <trkpt lat="45.31273" lon="6.17538">
        <ele>2372.1999511719</ele>
        <time>2013-04-07T09:14:53.000Z</time>
      </trkpt>
      <trkpt lat="45.31274" lon="6.17532">
        <ele>2373.6000976562</ele>
        <time>2013-04-07T09:14:59.000Z</time>
      </trkpt>
      <trkpt lat="45.31276" lon="6.17528">
        <ele>2374.8000488281</ele>
        <time>2013-04-07T09:15:05.000Z</time>
      </trkpt>
      <trkpt lat="45.31277" lon="6.17524">
        <ele>2375.3999023438</ele>
        <time>2013-04-07T09:15:09.000Z</time>
      </trkpt>
      <trkpt lat="45.31278" lon="6.17521">
        <ele>2376</ele>
        <time>2013-04-07T09:15:12.000Z</time>
      </trkpt>
      <trkpt lat="45.3128" lon="6.17515">
        <ele>2377.1999511719</ele>
        <time>2013-04-07T09:15:19.000Z</time>
      </trkpt>
      <trkpt lat="45.31281" lon="6.17511">
        <ele>2378</ele>
        <time>2013-04-07T09:15:22.000Z</time>
      </trkpt>
      <trkpt lat="45.31282" lon="6.17507">
        <ele>2378.3999023438</ele>
        <time>2013-04-07T09:15:25.000Z</time>
      </trkpt>
      <trkpt lat="45.31283" lon="6.17502">
        <ele>2379.1999511719</ele>
        <time>2013-04-07T09:15:30.000Z</time>
      </trkpt>
      <trkpt lat="45.31283" lon="6.17501">
        <ele>2379.3999023438</ele>
        <time>2013-04-07T09:15:31.000Z</time>
      </trkpt>
      <trkpt lat="45.31287" lon="6.17495">
        <ele>2380</ele>
        <time>2013-04-07T09:15:35.000Z</time>
      </trkpt>
      <trkpt lat="45.31287" lon="6.17493">
        <ele>2380.1999511719</ele>
        <time>2013-04-07T09:15:37.000Z</time>
      </trkpt>
      <trkpt lat="45.31288" lon="6.17489">
        <ele>2381</ele>
        <time>2013-04-07T09:15:42.000Z</time>
      </trkpt>
      <trkpt lat="45.3129" lon="6.17485">
        <ele>2382</ele>
        <time>2013-04-07T09:15:48.000Z</time>
      </trkpt>
      <trkpt lat="45.31292" lon="6.17481">
        <ele>2383</ele>
        <time>2013-04-07T09:15:53.000Z</time>
      </trkpt>
      <trkpt lat="45.31293" lon="6.17478">
        <ele>2384</ele>
        <time>2013-04-07T09:15:57.000Z</time>
      </trkpt>
      <trkpt lat="45.31294" lon="6.17475">
        <ele>2384.8000488281</ele>
        <time>2013-04-07T09:16:01.000Z</time>
      </trkpt>
      <trkpt lat="45.31295" lon="6.17472">
        <ele>2385.8000488281</ele>
        <time>2013-04-07T09:16:06.000Z</time>
      </trkpt>
      <trkpt lat="45.31297" lon="6.17469">
        <ele>2386.3999023438</ele>
        <time>2013-04-07T09:16:10.000Z</time>
      </trkpt>
      <trkpt lat="45.31298" lon="6.17466">
        <ele>2387.1999511719</ele>
        <time>2013-04-07T09:16:15.000Z</time>
      </trkpt>
      <trkpt lat="45.31299" lon="6.17463">
        <ele>2388</ele>
        <time>2013-04-07T09:16:19.000Z</time>
      </trkpt>
      <trkpt lat="45.31299" lon="6.1746">
        <ele>2389</ele>
        <time>2013-04-07T09:16:23.000Z</time>
      </trkpt>
      <trkpt lat="45.31299" lon="6.17456">
        <ele>2389.8000488281</ele>
        <time>2013-04-07T09:16:27.000Z</time>
      </trkpt>
      <trkpt lat="45.313" lon="6.17453">
        <ele>2390.6000976562</ele>
        <time>2013-04-07T09:16:31.000Z</time>
      </trkpt>
      <trkpt lat="45.31303" lon="6.17451">
        <ele>2391.3999023438</ele>
        <time>2013-04-07T09:16:36.000Z</time>
      </trkpt>
      <trkpt lat="45.31303" lon="6.17448">
        <ele>2392.3999023438</ele>
        <time>2013-04-07T09:16:41.000Z</time>
      </trkpt>
      <trkpt lat="45.31304" lon="6.17443">
        <ele>2393.3999023438</ele>
        <time>2013-04-07T09:16:46.000Z</time>
      </trkpt>
      <trkpt lat="45.31305" lon="6.17438">
        <ele>2394.6000976562</ele>
        <time>2013-04-07T09:16:53.000Z</time>
      </trkpt>
      <trkpt lat="45.31307" lon="6.17435">
        <ele>2395.8000488281</ele>
        <time>2013-04-07T09:16:58.000Z</time>
      </trkpt>
      <trkpt lat="45.31309" lon="6.17433">
        <ele>2396.1999511719</ele>
        <time>2013-04-07T09:17:02.000Z</time>
      </trkpt>
      <trkpt lat="45.31309" lon="6.1743">
        <ele>2397.1999511719</ele>
        <time>2013-04-07T09:17:06.000Z</time>
      </trkpt>
      <trkpt lat="45.3131" lon="6.17428">
        <ele>2397.8000488281</ele>
        <time>2013-04-07T09:17:08.000Z</time>
      </trkpt>
      <trkpt lat="45.31311" lon="6.17426">
        <ele>2398.6000976562</ele>
        <time>2013-04-07T09:17:12.000Z</time>
      </trkpt>
      <trkpt lat="45.31313" lon="6.17421">
        <ele>2399.8000488281</ele>
        <time>2013-04-07T09:17:17.000Z</time>
      </trkpt>
      <trkpt lat="45.31317" lon="6.17418">
        <ele>2401</ele>
        <time>2013-04-07T09:17:25.000Z</time>
      </trkpt>
      <trkpt lat="45.3132" lon="6.17417">
        <ele>2401.6000976562</ele>
        <time>2013-04-07T09:17:30.000Z</time>
      </trkpt>
      <trkpt lat="45.31322" lon="6.17417">
        <ele>2401.8000488281</ele>
        <time>2013-04-07T09:17:32.000Z</time>
      </trkpt>
      <trkpt lat="45.31324" lon="6.17418">
        <ele>2402.6000976562</ele>
        <time>2013-04-07T09:17:37.000Z</time>
      </trkpt>
      <trkpt lat="45.31328" lon="6.1742">
        <ele>2404</ele>
        <time>2013-04-07T09:17:44.000Z</time>
      </trkpt>
      <trkpt lat="45.31331" lon="6.17419">
        <ele>2405</ele>
        <time>2013-04-07T09:17:49.000Z</time>
      </trkpt>
      <trkpt lat="45.31333" lon="6.17418">
        <ele>2406</ele>
        <time>2013-04-07T09:17:53.000Z</time>
      </trkpt>
      <trkpt lat="45.31335" lon="6.17416">
        <ele>2407</ele>
        <time>2013-04-07T09:17:58.000Z</time>
      </trkpt>
      <trkpt lat="45.31337" lon="6.17413">
        <ele>2408.3999023438</ele>
        <time>2013-04-07T09:18:05.000Z</time>
      </trkpt>
      <trkpt lat="45.31338" lon="6.17412">
        <ele>2409</ele>
        <time>2013-04-07T09:18:08.000Z</time>
      </trkpt>
      <trkpt lat="45.3134" lon="6.1741">
        <ele>2410.1999511719</ele>
        <time>2013-04-07T09:18:13.000Z</time>
      </trkpt>
      <trkpt lat="45.31342" lon="6.17408">
        <ele>2410.8000488281</ele>
        <time>2013-04-07T09:18:17.000Z</time>
      </trkpt>
      <trkpt lat="45.31344" lon="6.17406">
        <ele>2411.8000488281</ele>
        <time>2013-04-07T09:18:22.000Z</time>
      </trkpt>
      <trkpt lat="45.31345" lon="6.17403">
        <ele>2412.6000976562</ele>
        <time>2013-04-07T09:18:26.000Z</time>
      </trkpt>
      <trkpt lat="45.31346" lon="6.17401">
        <ele>2413.1999511719</ele>
        <time>2013-04-07T09:18:30.000Z</time>
      </trkpt>
      <trkpt lat="45.31348" lon="6.174">
        <ele>2414</ele>
        <time>2013-04-07T09:18:34.000Z</time>
      </trkpt>
      <trkpt lat="45.31351" lon="6.17398">
        <ele>2414.6000976562</ele>
        <time>2013-04-07T09:18:39.000Z</time>
      </trkpt>
      <trkpt lat="45.31354" lon="6.17398">
        <ele>2415</ele>
        <time>2013-04-07T09:18:44.000Z</time>
      </trkpt>
      <trkpt lat="45.31356" lon="6.17397">
        <ele>2416</ele>
        <time>2013-04-07T09:18:49.000Z</time>
      </trkpt>
      <trkpt lat="45.31358" lon="6.17396">
        <ele>2417</ele>
        <time>2013-04-07T09:18:54.000Z</time>
      </trkpt>
      <trkpt lat="45.31359" lon="6.17396">
        <ele>2417.8000488281</ele>
        <time>2013-04-07T09:18:58.000Z</time>
      </trkpt>
      <trkpt lat="45.31362" lon="6.17396">
        <ele>2419</ele>
        <time>2013-04-07T09:19:03.000Z</time>
      </trkpt>
      <trkpt lat="45.31365" lon="6.17396">
        <ele>2419.6000976562</ele>
        <time>2013-04-07T09:19:08.000Z</time>
      </trkpt>
      <trkpt lat="45.31364" lon="6.17393">
        <ele>2420.6000976562</ele>
        <time>2013-04-07T09:19:14.000Z</time>
      </trkpt>
      <trkpt lat="45.31363" lon="6.17391">
        <ele>2420.8000488281</ele>
        <time>2013-04-07T09:19:16.000Z</time>
      </trkpt>
      <trkpt lat="45.31359" lon="6.17385">
        <ele>2421.8000488281</ele>
        <time>2013-04-07T09:19:22.000Z</time>
      </trkpt>
      <trkpt lat="45.31356" lon="6.17379">
        <ele>2423</ele>
        <time>2013-04-07T09:19:27.000Z</time>
      </trkpt>
      <trkpt lat="45.31354" lon="6.17375">
        <ele>2423.8000488281</ele>
        <time>2013-04-07T09:19:31.000Z</time>
      </trkpt>
      <trkpt lat="45.31351" lon="6.17369">
        <ele>2425</ele>
        <time>2013-04-07T09:19:37.000Z</time>
      </trkpt>
      <trkpt lat="45.31348" lon="6.17362">
        <ele>2426.3999023438</ele>
        <time>2013-04-07T09:19:43.000Z</time>
      </trkpt>
      <trkpt lat="45.31347" lon="6.17359">
        <ele>2427.1999511719</ele>
        <time>2013-04-07T09:19:47.000Z</time>
      </trkpt>
      <trkpt lat="45.31346" lon="6.17355">
        <ele>2428.6000976562</ele>
        <time>2013-04-07T09:19:53.000Z</time>
      </trkpt>
      <trkpt lat="45.31348" lon="6.17354">
        <ele>2429.3999023438</ele>
        <time>2013-04-07T09:19:57.000Z</time>
      </trkpt>
      <trkpt lat="45.31351" lon="6.17352">
        <ele>2431.6000976562</ele>
        <time>2013-04-07T09:20:04.000Z</time>
      </trkpt>
      <trkpt lat="45.31354" lon="6.17354">
        <ele>2432.3999023438</ele>
        <time>2013-04-07T09:20:14.000Z</time>
      </trkpt>
      <trkpt lat="45.31355" lon="6.1735">
        <ele>2432.8000488281</ele>
        <time>2013-04-07T09:20:23.000Z</time>
      </trkpt>
      <trkpt lat="45.31354" lon="6.17347">
        <ele>2433.6000976562</ele>
        <time>2013-04-07T09:20:27.000Z</time>
      </trkpt>
      <trkpt lat="45.31354" lon="6.17342">
        <ele>2434.3999023438</ele>
        <time>2013-04-07T09:20:31.000Z</time>
      </trkpt>
      <trkpt lat="45.31355" lon="6.17337">
        <ele>2434.8000488281</ele>
        <time>2013-04-07T09:20:35.000Z</time>
      </trkpt>
      <trkpt lat="45.31354" lon="6.1733">
        <ele>2436</ele>
        <time>2013-04-07T09:20:42.000Z</time>
      </trkpt>
      <trkpt lat="45.31354" lon="6.17324">
        <ele>2437</ele>
        <time>2013-04-07T09:20:48.000Z</time>
      </trkpt>
      <trkpt lat="45.31356" lon="6.17321">
        <ele>2438</ele>
        <time>2013-04-07T09:20:53.000Z</time>
      </trkpt>
      <trkpt lat="45.31361" lon="6.17316">
        <ele>2439.6000976562</ele>
        <time>2013-04-07T09:21:01.000Z</time>
      </trkpt>
      <trkpt lat="45.31365" lon="6.17311">
        <ele>2440.8000488281</ele>
        <time>2013-04-07T09:21:08.000Z</time>
      </trkpt>
      <trkpt lat="45.31368" lon="6.17305">
        <ele>2441.6000976562</ele>
        <time>2013-04-07T09:21:15.000Z</time>
      </trkpt>
      <trkpt lat="45.31372" lon="6.17299">
        <ele>2442.8000488281</ele>
        <time>2013-04-07T09:21:22.000Z</time>
      </trkpt>
      <trkpt lat="45.31375" lon="6.17294">
        <ele>2443.8000488281</ele>
        <time>2013-04-07T09:21:28.000Z</time>
      </trkpt>
      <trkpt lat="45.31378" lon="6.1729">
        <ele>2444.3999023438</ele>
        <time>2013-04-07T09:21:34.000Z</time>
      </trkpt>
      <trkpt lat="45.3138" lon="6.17285">
        <ele>2445.3999023438</ele>
        <time>2013-04-07T09:21:41.000Z</time>
      </trkpt>
      <trkpt lat="45.31382" lon="6.17284">
        <ele>2446.1999511719</ele>
        <time>2013-04-07T09:21:45.000Z</time>
      </trkpt>
      <trkpt lat="45.31384" lon="6.17281">
        <ele>2447.3999023438</ele>
        <time>2013-04-07T09:21:50.000Z</time>
      </trkpt>
      <trkpt lat="45.31385" lon="6.17279">
        <ele>2448.3999023438</ele>
        <time>2013-04-07T09:21:54.000Z</time>
      </trkpt>
      <trkpt lat="45.31388" lon="6.17276">
        <ele>2449.3999023438</ele>
        <time>2013-04-07T09:21:59.000Z</time>
      </trkpt>
      <trkpt lat="45.3139" lon="6.17274">
        <ele>2450.1999511719</ele>
        <time>2013-04-07T09:22:03.000Z</time>
      </trkpt>
      <trkpt lat="45.31392" lon="6.17272">
        <ele>2451</ele>
        <time>2013-04-07T09:22:07.000Z</time>
      </trkpt>
      <trkpt lat="45.31396" lon="6.1727">
        <ele>2452.1999511719</ele>
        <time>2013-04-07T09:22:13.000Z</time>
      </trkpt>
      <trkpt lat="45.31397" lon="6.17267">
        <ele>2453.1999511719</ele>
        <time>2013-04-07T09:22:17.000Z</time>
      </trkpt>
      <trkpt lat="45.314" lon="6.17264">
        <ele>2454.8000488281</ele>
        <time>2013-04-07T09:22:23.000Z</time>
      </trkpt>
      <trkpt lat="45.31401" lon="6.17262">
        <ele>2455.8000488281</ele>
        <time>2013-04-07T09:22:27.000Z</time>
      </trkpt>
      <trkpt lat="45.31403" lon="6.17259">
        <ele>2456.6000976562</ele>
        <time>2013-04-07T09:22:31.000Z</time>
      </trkpt>
      <trkpt lat="45.31402" lon="6.17257">
        <ele>2457.3999023438</ele>
        <time>2013-04-07T09:22:34.000Z</time>
      </trkpt>
      <trkpt lat="45.31399" lon="6.1725">
        <ele>2458.3999023438</ele>
        <time>2013-04-07T09:22:41.000Z</time>
      </trkpt>
      <trkpt lat="45.31394" lon="6.17244">
        <ele>2459.3999023438</ele>
        <time>2013-04-07T09:22:48.000Z</time>
      </trkpt>
      <trkpt lat="45.31391" lon="6.1724">
        <ele>2460.3999023438</ele>
        <time>2013-04-07T09:22:53.000Z</time>
      </trkpt>
      <trkpt lat="45.31386" lon="6.17234">
        <ele>2462.1999511719</ele>
        <time>2013-04-07T09:23:01.000Z</time>
      </trkpt>
      <trkpt lat="45.31384" lon="6.17231">
        <ele>2463.1999511719</ele>
        <time>2013-04-07T09:23:05.000Z</time>
      </trkpt>
      <trkpt lat="45.31382" lon="6.17225">
        <ele>2464.8000488281</ele>
        <time>2013-04-07T09:23:12.000Z</time>
      </trkpt>
      <trkpt lat="45.31379" lon="6.17222">
        <ele>2465.8000488281</ele>
        <time>2013-04-07T09:23:17.000Z</time>
      </trkpt>
      <trkpt lat="45.31377" lon="6.17217">
        <ele>2466.3999023438</ele>
        <time>2013-04-07T09:23:24.000Z</time>
      </trkpt>
      <trkpt lat="45.31374" lon="6.17214">
        <ele>2467</ele>
        <time>2013-04-07T09:23:28.000Z</time>
      </trkpt>
      <trkpt lat="45.31371" lon="6.17211">
        <ele>2468</ele>
        <time>2013-04-07T09:23:33.000Z</time>
      </trkpt>
      <trkpt lat="45.31369" lon="6.17207">
        <ele>2469</ele>
        <time>2013-04-07T09:23:39.000Z</time>
      </trkpt>
      <trkpt lat="45.31367" lon="6.17204">
        <ele>2470.1999511719</ele>
        <time>2013-04-07T09:23:45.000Z</time>
      </trkpt>
      <trkpt lat="45.31365" lon="6.17202">
        <ele>2471.1999511719</ele>
        <time>2013-04-07T09:23:49.000Z</time>
      </trkpt>
      <trkpt lat="45.31361" lon="6.172">
        <ele>2473</ele>
        <time>2013-04-07T09:23:56.000Z</time>
      </trkpt>
      <trkpt lat="45.31358" lon="6.17197">
        <ele>2474.8000488281</ele>
        <time>2013-04-07T09:24:04.000Z</time>
      </trkpt>
      <trkpt lat="45.31354" lon="6.17195">
        <ele>2476.6000976562</ele>
        <time>2013-04-07T09:24:11.000Z</time>
      </trkpt>
      <trkpt lat="45.31352" lon="6.17194">
        <ele>2477.3999023438</ele>
        <time>2013-04-07T09:24:15.000Z</time>
      </trkpt>
      <trkpt lat="45.31349" lon="6.17192">
        <ele>2478</ele>
        <time>2013-04-07T09:24:19.000Z</time>
      </trkpt>
      <trkpt lat="45.31347" lon="6.17191">
        <ele>2478.8000488281</ele>
        <time>2013-04-07T09:24:24.000Z</time>
      </trkpt>
      <trkpt lat="45.31345" lon="6.1719">
        <ele>2479</ele>
        <time>2013-04-07T09:24:29.000Z</time>
      </trkpt>
      <trkpt lat="45.31342" lon="6.17188">
        <ele>2479.6000976562</ele>
        <time>2013-04-07T09:24:36.000Z</time>
      </trkpt>
      <trkpt lat="45.31343" lon="6.17184">
        <ele>2480</ele>
        <time>2013-04-07T09:25:06.000Z</time>
      </trkpt>
      <trkpt lat="45.31344" lon="6.17185">
        <ele>2480.3999023438</ele>
        <time>2013-04-07T09:25:10.000Z</time>
      </trkpt>
      <trkpt lat="45.31345" lon="6.17181">
        <ele>2480.6000976562</ele>
        <time>2013-04-07T09:25:14.000Z</time>
      </trkpt>
      <trkpt lat="45.31349" lon="6.17173">
        <ele>2481</ele>
        <time>2013-04-07T09:25:23.000Z</time>
      </trkpt>
      <trkpt lat="45.3135" lon="6.17171">
        <ele>2481.6000976562</ele>
        <time>2013-04-07T09:25:30.000Z</time>
      </trkpt>
      <trkpt lat="45.3135" lon="6.17167">
        <ele>2481.8000488281</ele>
        <time>2013-04-07T09:25:38.000Z</time>
      </trkpt>
      <trkpt lat="45.31352" lon="6.17163">
        <ele>2482.6000976562</ele>
        <time>2013-04-07T09:25:47.000Z</time>
      </trkpt>
      <trkpt lat="45.31354" lon="6.1716">
        <ele>2482.6000976562</ele>
        <time>2013-04-07T09:26:04.000Z</time>
      </trkpt>
      <trkpt lat="45.31355" lon="6.17158">
        <ele>2482.6000976562</ele>
        <time>2013-04-07T09:26:10.000Z</time>
      </trkpt>
      <trkpt lat="45.31357" lon="6.17159">
        <ele>2482.8000488281</ele>
        <time>2013-04-07T09:26:17.000Z</time>
      </trkpt>
      <trkpt lat="45.3136" lon="6.1716">
        <ele>2482.6000976562</ele>
        <time>2013-04-07T09:26:26.000Z</time>
      </trkpt>
      <trkpt lat="45.31365" lon="6.17159">
        <ele>2482.1999511719</ele>
        <time>2013-04-07T09:26:33.000Z</time>
      </trkpt>
      <trkpt lat="45.3137" lon="6.17158">
        <ele>2482.1999511719</ele>
        <time>2013-04-07T09:26:39.000Z</time>
      </trkpt>
      <trkpt lat="45.31374" lon="6.17159">
        <ele>2481.8000488281</ele>
        <time>2013-04-07T09:26:45.000Z</time>
      </trkpt>
      <trkpt lat="45.31379" lon="6.17159">
        <ele>2481.3999023438</ele>
        <time>2013-04-07T09:26:50.000Z</time>
      </trkpt>
      <trkpt lat="45.31385" lon="6.17158">
        <ele>2481.3999023438</ele>
        <time>2013-04-07T09:26:56.000Z</time>
      </trkpt>
      <trkpt lat="45.31389" lon="6.17159">
        <ele>2482</ele>
        <time>2013-04-07T09:27:02.000Z</time>
      </trkpt>
      <trkpt lat="45.31393" lon="6.17158">
        <ele>2482.8000488281</ele>
        <time>2013-04-07T09:27:07.000Z</time>
      </trkpt>
      <trkpt lat="45.31398" lon="6.17155">
        <ele>2483.3999023438</ele>
        <time>2013-04-07T09:27:13.000Z</time>
      </trkpt>
      <trkpt lat="45.31398" lon="6.17155">
        <ele>2483.6000976562</ele>
        <time>2013-04-07T09:27:14.000Z</time>
      </trkpt>
      <trkpt lat="45.314" lon="6.1715">
        <ele>2484.6000976562</ele>
        <time>2013-04-07T09:27:19.000Z</time>
      </trkpt>
      <trkpt lat="45.31403" lon="6.17144">
        <ele>2486.1999511719</ele>
        <time>2013-04-07T09:27:25.000Z</time>
      </trkpt>
      <trkpt lat="45.31403" lon="6.17142">
        <ele>2486.8000488281</ele>
        <time>2013-04-07T09:27:30.000Z</time>
      </trkpt>
      <trkpt lat="45.31403" lon="6.17137">
        <ele>2487.8000488281</ele>
        <time>2013-04-07T09:27:42.000Z</time>
      </trkpt>
      <trkpt lat="45.31405" lon="6.17133">
        <ele>2488.6000976562</ele>
        <time>2013-04-07T09:27:49.000Z</time>
      </trkpt>
      <trkpt lat="45.31408" lon="6.17128">
        <ele>2489.8000488281</ele>
        <time>2013-04-07T09:27:56.000Z</time>
      </trkpt>
      <trkpt lat="45.31413" lon="6.17126">
        <ele>2491.3999023438</ele>
        <time>2013-04-07T09:28:03.000Z</time>
      </trkpt>
      <trkpt lat="45.31415" lon="6.17125">
        <ele>2492</ele>
        <time>2013-04-07T09:28:07.000Z</time>
      </trkpt>
      <trkpt lat="45.31422" lon="6.17123">
        <ele>2492.1999511719</ele>
        <time>2013-04-07T09:28:15.000Z</time>
      </trkpt>
      <trkpt lat="45.31427" lon="6.17123">
        <ele>2493</ele>
        <time>2013-04-07T09:28:21.000Z</time>
      </trkpt>
      <trkpt lat="45.3143" lon="6.17123">
        <ele>2493.8000488281</ele>
        <time>2013-04-07T09:28:26.000Z</time>
      </trkpt>
      <trkpt lat="45.31432" lon="6.17123">
        <ele>2494.6000976562</ele>
        <time>2013-04-07T09:28:30.000Z</time>
      </trkpt>
      <trkpt lat="45.31435" lon="6.17123">
        <ele>2495.6000976562</ele>
        <time>2013-04-07T09:28:35.000Z</time>
      </trkpt>
      <trkpt lat="45.31436" lon="6.17124">
        <ele>2496.3999023438</ele>
        <time>2013-04-07T09:28:43.000Z</time>
      </trkpt>
      <trkpt lat="45.31438" lon="6.17124">
        <ele>2496.6000976562</ele>
        <time>2013-04-07T09:28:46.000Z</time>
      </trkpt>
      <trkpt lat="45.3144" lon="6.17125">
        <ele>2497.6000976562</ele>
        <time>2013-04-07T09:28:51.000Z</time>
      </trkpt>
      <trkpt lat="45.31444" lon="6.17128">
        <ele>2499</ele>
        <time>2013-04-07T09:28:57.000Z</time>
      </trkpt>
      <trkpt lat="45.31447" lon="6.17128">
        <ele>2500</ele>
        <time>2013-04-07T09:29:01.000Z</time>
      </trkpt>
      <trkpt lat="45.3145" lon="6.17129">
        <ele>2500.6000976562</ele>
        <time>2013-04-07T09:29:05.000Z</time>
      </trkpt>
      <trkpt lat="45.3145" lon="6.1713">
        <ele>2500.6000976562</ele>
        <time>2013-04-07T09:29:06.000Z</time>
      </trkpt>
      <trkpt lat="45.31451" lon="6.17133">
        <ele>2501.3999023438</ele>
        <time>2013-04-07T09:29:13.000Z</time>
      </trkpt>
      <trkpt lat="45.31456" lon="6.17134">
        <ele>2501.8000488281</ele>
        <time>2013-04-07T09:29:23.000Z</time>
      </trkpt>
      <trkpt lat="45.31459" lon="6.17137">
        <ele>2501.3999023438</ele>
        <time>2013-04-07T09:29:44.000Z</time>
      </trkpt>
      <trkpt lat="45.31461" lon="6.17131">
        <ele>2501.8000488281</ele>
        <time>2013-04-07T09:29:50.000Z</time>
      </trkpt>
      <trkpt lat="45.31461" lon="6.17125">
        <ele>2502.6000976562</ele>
        <time>2013-04-07T09:29:54.000Z</time>
      </trkpt>
      <trkpt lat="45.31461" lon="6.17117">
        <ele>2503.8000488281</ele>
        <time>2013-04-07T09:30:01.000Z</time>
      </trkpt>
      <trkpt lat="45.3146" lon="6.17113">
        <ele>2505</ele>
        <time>2013-04-07T09:30:05.000Z</time>
      </trkpt>
      <trkpt lat="45.31459" lon="6.17111">
        <ele>2506.3999023438</ele>
        <time>2013-04-07T09:30:11.000Z</time>
      </trkpt>
      <trkpt lat="45.3146" lon="6.17113">
        <ele>2507.6000976562</ele>
        <time>2013-04-07T09:30:17.000Z</time>
      </trkpt>
      <trkpt lat="45.31461" lon="6.17115">
        <ele>2508.3999023438</ele>
        <time>2013-04-07T09:30:22.000Z</time>
      </trkpt>
      <trkpt lat="45.31463" lon="6.17116">
        <ele>2509.3999023438</ele>
        <time>2013-04-07T09:30:27.000Z</time>
      </trkpt>
      <trkpt lat="45.31464" lon="6.17118">
        <ele>2510.3999023438</ele>
        <time>2013-04-07T09:30:31.000Z</time>
      </trkpt>
      <trkpt lat="45.31465" lon="6.17114">
        <ele>2511.8000488281</ele>
        <time>2013-04-07T09:30:40.000Z</time>
      </trkpt>
      <trkpt lat="45.31465" lon="6.1711">
        <ele>2512.3999023438</ele>
        <time>2013-04-07T09:30:44.000Z</time>
      </trkpt>
      <trkpt lat="45.31465" lon="6.17108">
        <ele>2513.1999511719</ele>
        <time>2013-04-07T09:30:49.000Z</time>
      </trkpt>
      <trkpt lat="45.31467" lon="6.17111">
        <ele>2513.6000976562</ele>
        <time>2013-04-07T09:31:04.000Z</time>
      </trkpt>
      <trkpt lat="45.3147" lon="6.17114">
        <ele>2514.3999023438</ele>
        <time>2013-04-07T09:31:09.000Z</time>
      </trkpt>
      <trkpt lat="45.3147" lon="6.17117">
        <ele>2515.3999023438</ele>
        <time>2013-04-07T09:31:13.000Z</time>
      </trkpt>
      <trkpt lat="45.31472" lon="6.1712">
        <ele>2516.3999023438</ele>
        <time>2013-04-07T09:31:19.000Z</time>
      </trkpt>
      <trkpt lat="45.31475" lon="6.1712">
        <ele>2517.3999023438</ele>
        <time>2013-04-07T09:31:23.000Z</time>
      </trkpt>
      <trkpt lat="45.31477" lon="6.17122">
        <ele>2518.1999511719</ele>
        <time>2013-04-07T09:31:27.000Z</time>
      </trkpt>
      <trkpt lat="45.3148" lon="6.17123">
        <ele>2519</ele>
        <time>2013-04-07T09:31:32.000Z</time>
      </trkpt>
      <trkpt lat="45.31482" lon="6.17124">
        <ele>2519.6000976562</ele>
        <time>2013-04-07T09:31:36.000Z</time>
      </trkpt>
      <trkpt lat="45.31485" lon="6.17127">
        <ele>2521.1999511719</ele>
        <time>2013-04-07T09:31:44.000Z</time>
      </trkpt>
      <trkpt lat="45.31487" lon="6.17129">
        <ele>2522</ele>
        <time>2013-04-07T09:31:48.000Z</time>
      </trkpt>
      <trkpt lat="45.31488" lon="6.17129">
        <ele>2523</ele>
        <time>2013-04-07T09:31:55.000Z</time>
      </trkpt>
      <trkpt lat="45.31492" lon="6.17133">
        <ele>2523.6000976562</ele>
        <time>2013-04-07T09:32:03.000Z</time>
      </trkpt>
      <trkpt lat="45.31496" lon="6.17137">
        <ele>2524.3999023438</ele>
        <time>2013-04-07T09:32:09.000Z</time>
      </trkpt>
      <trkpt lat="45.315" lon="6.17141">
        <ele>2525.1999511719</ele>
        <time>2013-04-07T09:32:15.000Z</time>
      </trkpt>
      <trkpt lat="45.31503" lon="6.17146">
        <ele>2526.3999023438</ele>
        <time>2013-04-07T09:32:22.000Z</time>
      </trkpt>
      <trkpt lat="45.31507" lon="6.1715">
        <ele>2527.1999511719</ele>
        <time>2013-04-07T09:32:28.000Z</time>
      </trkpt>
      <trkpt lat="45.3151" lon="6.17154">
        <ele>2528.1999511719</ele>
        <time>2013-04-07T09:32:35.000Z</time>
      </trkpt>
      <trkpt lat="45.31515" lon="6.17159">
        <ele>2528.8000488281</ele>
        <time>2013-04-07T09:32:42.000Z</time>
      </trkpt>
      <trkpt lat="45.3152" lon="6.17163">
        <ele>2528</ele>
        <time>2013-04-07T09:32:50.000Z</time>
      </trkpt>
      <trkpt lat="45.31521" lon="6.17165">
        <ele>2528.1999511719</ele>
        <time>2013-04-07T09:32:57.000Z</time>
      </trkpt>
      <trkpt lat="45.31522" lon="6.17167">
        <ele>2528.1999511719</ele>
        <time>2013-04-07T09:33:05.000Z</time>
      </trkpt>
      <trkpt lat="45.31518" lon="6.17163">
        <ele>2526</ele>
        <time>2013-04-07T09:39:03.000Z</time>
      </trkpt>
      <trkpt lat="45.31519" lon="6.17163">
        <ele>2526.1999511719</ele>
        <time>2013-04-07T09:39:15.000Z</time>
      </trkpt>
      <trkpt lat="45.31524" lon="6.17163">
        <ele>2526.3999023438</ele>
        <time>2013-04-07T09:39:35.000Z</time>
      </trkpt>
      <trkpt lat="45.31527" lon="6.17169">
        <ele>2525.6000976562</ele>
        <time>2013-04-07T09:43:21.000Z</time>
      </trkpt>
      <trkpt lat="45.31527" lon="6.1717">
        <ele>2525.6000976562</ele>
        <time>2013-04-07T09:43:26.000Z</time>
      </trkpt>
      <trkpt lat="45.31525" lon="6.1718">
        <ele>2525</ele>
        <time>2013-04-07T09:43:30.000Z</time>
      </trkpt>
      <trkpt lat="45.31529" lon="6.17186">
        <ele>2523.8000488281</ele>
        <time>2013-04-07T09:43:33.000Z</time>
      </trkpt>
      <trkpt lat="45.31537" lon="6.17194">
        <ele>2521.6000976562</ele>
        <time>2013-04-07T09:43:36.000Z</time>
      </trkpt>
      <trkpt lat="45.31538" lon="6.17192">
        <ele>2519.3999023438</ele>
        <time>2013-04-07T09:43:39.000Z</time>
      </trkpt>
      <trkpt lat="45.31539" lon="6.17191">
        <ele>2519.1999511719</ele>
        <time>2013-04-07T09:43:40.000Z</time>
      </trkpt>
      <trkpt lat="45.31542" lon="6.1719">
        <ele>2518.3999023438</ele>
        <time>2013-04-07T09:43:57.000Z</time>
      </trkpt>
      <trkpt lat="45.31545" lon="6.17199">
        <ele>2518</ele>
        <time>2013-04-07T09:44:01.000Z</time>
      </trkpt>
      <trkpt lat="45.31546" lon="6.17197">
        <ele>2517.1999511719</ele>
        <time>2013-04-07T09:44:04.000Z</time>
      </trkpt>
      <trkpt lat="45.31545" lon="6.17196">
        <ele>2515.8000488281</ele>
        <time>2013-04-07T09:44:12.000Z</time>
      </trkpt>
      <trkpt lat="45.31546" lon="6.17192">
        <ele>2515.3999023438</ele>
        <time>2013-04-07T09:44:14.000Z</time>
      </trkpt>
      <trkpt lat="45.31552" lon="6.17189">
        <ele>2512.1999511719</ele>
        <time>2013-04-07T09:44:19.000Z</time>
      </trkpt>
      <trkpt lat="45.31557" lon="6.17184">
        <ele>2508.6000976562</ele>
        <time>2013-04-07T09:44:22.000Z</time>
      </trkpt>
      <trkpt lat="45.31559" lon="6.17184">
        <ele>2508.6000976562</ele>
        <time>2013-04-07T09:44:23.000Z</time>
      </trkpt>
      <trkpt lat="45.31565" lon="6.1718">
        <ele>2504.1999511719</ele>
        <time>2013-04-07T09:44:26.000Z</time>
      </trkpt>
      <trkpt lat="45.31567" lon="6.17175">
        <ele>2499.3999023438</ele>
        <time>2013-04-07T09:44:29.000Z</time>
      </trkpt>
      <trkpt lat="45.31563" lon="6.17169">
        <ele>2494.1999511719</ele>
        <time>2013-04-07T09:44:42.000Z</time>
      </trkpt>
      <trkpt lat="45.3156" lon="6.17163">
        <ele>2493.6000976562</ele>
        <time>2013-04-07T09:44:48.000Z</time>
      </trkpt>
      <trkpt lat="45.31559" lon="6.17161">
        <ele>2492.6000976562</ele>
        <time>2013-04-07T09:45:01.000Z</time>
      </trkpt>
      <trkpt lat="45.31564" lon="6.17163">
        <ele>2491.6000976562</ele>
        <time>2013-04-07T09:45:05.000Z</time>
      </trkpt>
      <trkpt lat="45.31566" lon="6.17159">
        <ele>2489.3999023438</ele>
        <time>2013-04-07T09:45:08.000Z</time>
      </trkpt>
      <trkpt lat="45.31565" lon="6.17157">
        <ele>2487.6000976562</ele>
        <time>2013-04-07T09:45:10.000Z</time>
      </trkpt>
      <trkpt lat="45.31567" lon="6.17157">
        <ele>2485.8000488281</ele>
        <time>2013-04-07T09:45:13.000Z</time>
      </trkpt>
      <trkpt lat="45.31569" lon="6.1716">
        <ele>2483</ele>
        <time>2013-04-07T09:45:17.000Z</time>
      </trkpt>
      <trkpt lat="45.3157" lon="6.17161">
        <ele>2481.8000488281</ele>
        <time>2013-04-07T09:45:20.000Z</time>
      </trkpt>
      <trkpt lat="45.31574" lon="6.17156">
        <ele>2480.3999023438</ele>
        <time>2013-04-07T09:45:24.000Z</time>
      </trkpt>
      <trkpt lat="45.31576" lon="6.17157">
        <ele>2477.3999023438</ele>
        <time>2013-04-07T09:45:28.000Z</time>
      </trkpt>
      <trkpt lat="45.31576" lon="6.17157">
        <ele>2476</ele>
        <time>2013-04-07T09:45:31.000Z</time>
      </trkpt>
      <trkpt lat="45.31572" lon="6.17164">
        <ele>2476.1999511719</ele>
        <time>2013-04-07T09:45:45.000Z</time>
      </trkpt>
      <trkpt lat="45.31579" lon="6.17162">
        <ele>2475.3999023438</ele>
        <time>2013-04-07T09:45:49.000Z</time>
      </trkpt>
      <trkpt lat="45.31589" lon="6.17157">
        <ele>2472.1999511719</ele>
        <time>2013-04-07T09:45:52.000Z</time>
      </trkpt>
      <trkpt lat="45.31595" lon="6.17152">
        <ele>2468.8000488281</ele>
        <time>2013-04-07T09:45:54.000Z</time>
      </trkpt>
      <trkpt lat="45.31599" lon="6.17154">
        <ele>2462</ele>
        <time>2013-04-07T09:45:58.000Z</time>
      </trkpt>
      <trkpt lat="45.31597" lon="6.17156">
        <ele>2458.3999023438</ele>
        <time>2013-04-07T09:46:11.000Z</time>
      </trkpt>
      <trkpt lat="45.31595" lon="6.17144">
        <ele>2457.1999511719</ele>
        <time>2013-04-07T09:46:15.000Z</time>
      </trkpt>
      <trkpt lat="45.31594" lon="6.17142">
        <ele>2454.8000488281</ele>
        <time>2013-04-07T09:46:18.000Z</time>
      </trkpt>
      <trkpt lat="45.31599" lon="6.17145">
        <ele>2451.3999023438</ele>
        <time>2013-04-07T09:46:22.000Z</time>
      </trkpt>
      <trkpt lat="45.31601" lon="6.17146">
        <ele>2449.1999511719</ele>
        <time>2013-04-07T09:46:27.000Z</time>
      </trkpt>
      <trkpt lat="45.31603" lon="6.17146">
        <ele>2449</ele>
        <time>2013-04-07T09:46:32.000Z</time>
      </trkpt>
      <trkpt lat="45.31603" lon="6.17146">
        <ele>2449</ele>
        <time>2013-04-07T09:46:33.000Z</time>
      </trkpt>
      <trkpt lat="45.31607" lon="6.17141">
        <ele>2447.1999511719</ele>
        <time>2013-04-07T09:46:38.000Z</time>
      </trkpt>
      <trkpt lat="45.31608" lon="6.17142">
        <ele>2446.3999023438</ele>
        <time>2013-04-07T09:46:39.000Z</time>
      </trkpt>
      <trkpt lat="45.3161" lon="6.17136">
        <ele>2442.1999511719</ele>
        <time>2013-04-07T09:46:43.000Z</time>
      </trkpt>
      <trkpt lat="45.31616" lon="6.17138">
        <ele>2438.8000488281</ele>
        <time>2013-04-07T09:46:46.000Z</time>
      </trkpt>
      <trkpt lat="45.31619" lon="6.17132">
        <ele>2434.3999023438</ele>
        <time>2013-04-07T09:46:49.000Z</time>
      </trkpt>
      <trkpt lat="45.31621" lon="6.17134">
        <ele>2431.8000488281</ele>
        <time>2013-04-07T09:46:51.000Z</time>
      </trkpt>
      <trkpt lat="45.31625" lon="6.17139">
        <ele>2429.6000976562</ele>
        <time>2013-04-07T09:46:54.000Z</time>
      </trkpt>
      <trkpt lat="45.31624" lon="6.1714">
        <ele>2427</ele>
        <time>2013-04-07T09:46:57.000Z</time>
      </trkpt>
      <trkpt lat="45.31625" lon="6.1714">
        <ele>2426.6000976562</ele>
        <time>2013-04-07T09:46:58.000Z</time>
      </trkpt>
      <trkpt lat="45.31628" lon="6.17133">
        <ele>2422.8000488281</ele>
        <time>2013-04-07T09:47:03.000Z</time>
      </trkpt>
      <trkpt lat="45.31638" lon="6.17127">
        <ele>2417.1999511719</ele>
        <time>2013-04-07T09:47:07.000Z</time>
      </trkpt>
      <trkpt lat="45.31643" lon="6.17118">
        <ele>2412</ele>
        <time>2013-04-07T09:47:10.000Z</time>
      </trkpt>
      <trkpt lat="45.31649" lon="6.17121">
        <ele>2408.3999023438</ele>
        <time>2013-04-07T09:47:12.000Z</time>
      </trkpt>
      <trkpt lat="45.31652" lon="6.17114">
        <ele>2403.1999511719</ele>
        <time>2013-04-07T09:47:15.000Z</time>
      </trkpt>
      <trkpt lat="45.31652" lon="6.17115">
        <ele>2398.8000488281</ele>
        <time>2013-04-07T09:47:20.000Z</time>
      </trkpt>
      <trkpt lat="45.31655" lon="6.1712">
        <ele>2396.3999023438</ele>
        <time>2013-04-07T09:47:45.000Z</time>
      </trkpt>
      <trkpt lat="45.31657" lon="6.17113">
        <ele>2395.1999511719</ele>
        <time>2013-04-07T09:47:50.000Z</time>
      </trkpt>
      <trkpt lat="45.3166" lon="6.171">
        <ele>2392.6000976562</ele>
        <time>2013-04-07T09:47:53.000Z</time>
      </trkpt>
      <trkpt lat="45.31665" lon="6.17096">
        <ele>2388.3999023438</ele>
        <time>2013-04-07T09:47:56.000Z</time>
      </trkpt>
      <trkpt lat="45.31666" lon="6.17082">
        <ele>2383.8000488281</ele>
        <time>2013-04-07T09:47:59.000Z</time>
      </trkpt>
      <trkpt lat="45.31669" lon="6.17081">
        <ele>2380</ele>
        <time>2013-04-07T09:48:02.000Z</time>
      </trkpt>
      <trkpt lat="45.31674" lon="6.17079">
        <ele>2375.3999023438</ele>
        <time>2013-04-07T09:48:05.000Z</time>
      </trkpt>
      <trkpt lat="45.3168" lon="6.17075">
        <ele>2370.8000488281</ele>
        <time>2013-04-07T09:48:08.000Z</time>
      </trkpt>
      <trkpt lat="45.31684" lon="6.17071">
        <ele>2369.1999511719</ele>
        <time>2013-04-07T09:48:10.000Z</time>
      </trkpt>
      <trkpt lat="45.31687" lon="6.17068">
        <ele>2366</ele>
        <time>2013-04-07T09:48:12.000Z</time>
      </trkpt>
      <trkpt lat="45.31697" lon="6.17059">
        <ele>2361</ele>
        <time>2013-04-07T09:48:15.000Z</time>
      </trkpt>
      <trkpt lat="45.31702" lon="6.17066">
        <ele>2357.1999511719</ele>
        <time>2013-04-07T09:48:17.000Z</time>
      </trkpt>
      <trkpt lat="45.31702" lon="6.17071">
        <ele>2351.1999511719</ele>
        <time>2013-04-07T09:48:21.000Z</time>
      </trkpt>
      <trkpt lat="45.31705" lon="6.17078">
        <ele>2349</ele>
        <time>2013-04-07T09:48:24.000Z</time>
      </trkpt>
      <trkpt lat="45.31711" lon="6.17087">
        <ele>2347.3999023438</ele>
        <time>2013-04-07T09:48:28.000Z</time>
      </trkpt>
      <trkpt lat="45.31716" lon="6.17095">
        <ele>2345.6000976562</ele>
        <time>2013-04-07T09:48:32.000Z</time>
      </trkpt>
      <trkpt lat="45.31716" lon="6.17095">
        <ele>2344.8000488281</ele>
        <time>2013-04-07T09:48:37.000Z</time>
      </trkpt>
      <trkpt lat="45.31721" lon="6.17092">
        <ele>2343.3999023438</ele>
        <time>2013-04-07T09:48:41.000Z</time>
      </trkpt>
      <trkpt lat="45.3173" lon="6.17087">
        <ele>2340.8000488281</ele>
        <time>2013-04-07T09:48:44.000Z</time>
      </trkpt>
      <trkpt lat="45.31736" lon="6.17083">
        <ele>2337.8000488281</ele>
        <time>2013-04-07T09:48:46.000Z</time>
      </trkpt>
      <trkpt lat="45.31751" lon="6.17076">
        <ele>2327.3999023438</ele>
        <time>2013-04-07T09:48:51.000Z</time>
      </trkpt>
      <trkpt lat="45.31764" lon="6.17062">
        <ele>2316.6000976562</ele>
        <time>2013-04-07T09:48:56.000Z</time>
      </trkpt>
      <trkpt lat="45.31769" lon="6.17053">
        <ele>2309.8000488281</ele>
        <time>2013-04-07T09:48:59.000Z</time>
      </trkpt>
      <trkpt lat="45.31774" lon="6.17057">
        <ele>2307.6000976562</ele>
        <time>2013-04-07T09:49:01.000Z</time>
      </trkpt>
      <trkpt lat="45.31776" lon="6.17049">
        <ele>2301.8000488281</ele>
        <time>2013-04-07T09:49:04.000Z</time>
      </trkpt>
      <trkpt lat="45.31777" lon="6.17038">
        <ele>2297.1999511719</ele>
        <time>2013-04-07T09:49:07.000Z</time>
      </trkpt>
      <trkpt lat="45.3178" lon="6.17032">
        <ele>2292.8000488281</ele>
        <time>2013-04-07T09:49:10.000Z</time>
      </trkpt>
      <trkpt lat="45.31788" lon="6.17027">
        <ele>2288</ele>
        <time>2013-04-07T09:49:13.000Z</time>
      </trkpt>
      <trkpt lat="45.31797" lon="6.17012">
        <ele>2282</ele>
        <time>2013-04-07T09:49:16.000Z</time>
      </trkpt>
      <trkpt lat="45.31811" lon="6.17008">
        <ele>2278</ele>
        <time>2013-04-07T09:49:18.000Z</time>
      </trkpt>
      <trkpt lat="45.31809" lon="6.16997">
        <ele>2271.8000488281</ele>
        <time>2013-04-07T09:49:21.000Z</time>
      </trkpt>
      <trkpt lat="45.31806" lon="6.16998">
        <ele>2267.3999023438</ele>
        <time>2013-04-07T09:49:26.000Z</time>
      </trkpt>
      <trkpt lat="45.31804" lon="6.16999">
        <ele>2266.6000976562</ele>
        <time>2013-04-07T09:49:33.000Z</time>
      </trkpt>
      <trkpt lat="45.31805" lon="6.16997">
        <ele>2266.6000976562</ele>
        <time>2013-04-07T09:49:43.000Z</time>
      </trkpt>
      <trkpt lat="45.31812" lon="6.1699">
        <ele>2265.1999511719</ele>
        <time>2013-04-07T09:49:47.000Z</time>
      </trkpt>
      <trkpt lat="45.31818" lon="6.16985">
        <ele>2263.6000976562</ele>
        <time>2013-04-07T09:49:49.000Z</time>
      </trkpt>
      <trkpt lat="45.31837" lon="6.16969">
        <ele>2258.1999511719</ele>
        <time>2013-04-07T09:49:54.000Z</time>
      </trkpt>
      <trkpt lat="45.3185" lon="6.16946">
        <ele>2250.1999511719</ele>
        <time>2013-04-07T09:49:58.000Z</time>
      </trkpt>
      <trkpt lat="45.31843" lon="6.16939">
        <ele>2244.3999023438</ele>
        <time>2013-04-07T09:50:01.000Z</time>
      </trkpt>
      <trkpt lat="45.31846" lon="6.16939">
        <ele>2239.1999511719</ele>
        <time>2013-04-07T09:50:08.000Z</time>
      </trkpt>
      <trkpt lat="45.31843" lon="6.16955">
        <ele>2238.8000488281</ele>
        <time>2013-04-07T09:51:06.000Z</time>
      </trkpt>
      <trkpt lat="45.31843" lon="6.16942">
        <ele>2238.1999511719</ele>
        <time>2013-04-07T09:51:09.000Z</time>
      </trkpt>
      <trkpt lat="45.31848" lon="6.16939">
        <ele>2236.3999023438</ele>
        <time>2013-04-07T09:51:12.000Z</time>
      </trkpt>
      <trkpt lat="45.3186" lon="6.16922">
        <ele>2233.1999511719</ele>
        <time>2013-04-07T09:51:15.000Z</time>
      </trkpt>
      <trkpt lat="45.31861" lon="6.16914">
        <ele>2231.8000488281</ele>
        <time>2013-04-07T09:51:16.000Z</time>
      </trkpt>
      <trkpt lat="45.31873" lon="6.16889">
        <ele>2221.1999511719</ele>
        <time>2013-04-07T09:51:22.000Z</time>
      </trkpt>
      <trkpt lat="45.31877" lon="6.16881">
        <ele>2216.1999511719</ele>
        <time>2013-04-07T09:51:25.000Z</time>
      </trkpt>
      <trkpt lat="45.31886" lon="6.16863">
        <ele>2211.1999511719</ele>
        <time>2013-04-07T09:51:28.000Z</time>
      </trkpt>
      <trkpt lat="45.31895" lon="6.16843">
        <ele>2206.1999511719</ele>
        <time>2013-04-07T09:51:31.000Z</time>
      </trkpt>
      <trkpt lat="45.31908" lon="6.16841">
        <ele>2204.3999023438</ele>
        <time>2013-04-07T09:51:33.000Z</time>
      </trkpt>
      <trkpt lat="45.31928" lon="6.16824">
        <ele>2198.6000976562</ele>
        <time>2013-04-07T09:51:36.000Z</time>
      </trkpt>
      <trkpt lat="45.31934" lon="6.16812">
        <ele>2196.6000976562</ele>
        <time>2013-04-07T09:51:37.000Z</time>
      </trkpt>
      <trkpt lat="45.31966" lon="6.16768">
        <ele>2186.1999511719</ele>
        <time>2013-04-07T09:51:42.000Z</time>
      </trkpt>
      <trkpt lat="45.31972" lon="6.16766">
        <ele>2184.8000488281</ele>
        <time>2013-04-07T09:51:43.000Z</time>
      </trkpt>
      <trkpt lat="45.31984" lon="6.16759">
        <ele>2182.1999511719</ele>
        <time>2013-04-07T09:51:47.000Z</time>
      </trkpt>
      <trkpt lat="45.31985" lon="6.16756">
        <ele>2182.1999511719</ele>
        <time>2013-04-07T09:51:51.000Z</time>
      </trkpt>
      <trkpt lat="45.31983" lon="6.16756">
        <ele>2181.6000976562</ele>
        <time>2013-04-07T09:52:01.000Z</time>
      </trkpt>
      <trkpt lat="45.31985" lon="6.16749">
        <ele>2182</ele>
        <time>2013-04-07T09:52:21.000Z</time>
      </trkpt>
      <trkpt lat="45.31985" lon="6.16746">
        <ele>2181.6000976562</ele>
        <time>2013-04-07T09:52:26.000Z</time>
      </trkpt>
      <trkpt lat="45.31986" lon="6.16746">
        <ele>2181.1999511719</ele>
        <time>2013-04-07T09:52:31.000Z</time>
      </trkpt>
      <trkpt lat="45.31985" lon="6.16746">
        <ele>2181.6000976562</ele>
        <time>2013-04-07T09:52:44.000Z</time>
      </trkpt>
      <trkpt lat="45.31985" lon="6.1674">
        <ele>2181.1999511719</ele>
        <time>2013-04-07T09:53:04.000Z</time>
      </trkpt>
      <trkpt lat="45.31988" lon="6.16737">
        <ele>2181.3999023438</ele>
        <time>2013-04-07T09:54:12.000Z</time>
      </trkpt>
      <trkpt lat="45.31988" lon="6.16736">
        <ele>2181.3999023438</ele>
        <time>2013-04-07T09:54:26.000Z</time>
      </trkpt>
      <trkpt lat="45.31986" lon="6.16722">
        <ele>2181.6000976562</ele>
        <time>2013-04-07T09:54:31.000Z</time>
      </trkpt>
      <trkpt lat="45.31982" lon="6.16689">
        <ele>2179.6000976562</ele>
        <time>2013-04-07T09:54:36.000Z</time>
      </trkpt>
      <trkpt lat="45.31982" lon="6.16654">
        <ele>2177.3999023438</ele>
        <time>2013-04-07T09:54:42.000Z</time>
      </trkpt>
      <trkpt lat="45.31985" lon="6.16635">
        <ele>2176.3999023438</ele>
        <time>2013-04-07T09:54:47.000Z</time>
      </trkpt>
      <trkpt lat="45.31987" lon="6.16612">
        <ele>2175.1999511719</ele>
        <time>2013-04-07T09:54:54.000Z</time>
      </trkpt>
      <trkpt lat="45.31985" lon="6.16599">
        <ele>2174.6000976562</ele>
        <time>2013-04-07T09:55:00.000Z</time>
      </trkpt>
      <trkpt lat="45.31978" lon="6.1659">
        <ele>2174</ele>
        <time>2013-04-07T09:55:07.000Z</time>
      </trkpt>
      <trkpt lat="45.31974" lon="6.16591">
        <ele>2173.3999023438</ele>
        <time>2013-04-07T09:55:18.000Z</time>
      </trkpt>
      <trkpt lat="45.31971" lon="6.16588">
        <ele>2174</ele>
        <time>2013-04-07T09:55:30.000Z</time>
      </trkpt>
      <trkpt lat="45.31971" lon="6.16589">
        <ele>2173.8000488281</ele>
        <time>2013-04-07T09:55:55.000Z</time>
      </trkpt>
      <trkpt lat="45.31972" lon="6.16588">
        <ele>2173.6000976562</ele>
        <time>2013-04-07T10:01:38.000Z</time>
      </trkpt>
      <trkpt lat="45.31969" lon="6.16582">
        <ele>2173.6000976562</ele>
        <time>2013-04-07T10:03:16.000Z</time>
      </trkpt>
      <trkpt lat="45.31966" lon="6.16582">
        <ele>2173.8000488281</ele>
        <time>2013-04-07T10:03:22.000Z</time>
      </trkpt>
      <trkpt lat="45.31963" lon="6.1658">
        <ele>2174</ele>
        <time>2013-04-07T10:03:38.000Z</time>
      </trkpt>
      <trkpt lat="45.31963" lon="6.16579">
        <ele>2174.1999511719</ele>
        <time>2013-04-07T10:03:40.000Z</time>
      </trkpt>
      <trkpt lat="45.31961" lon="6.16572">
        <ele>2174.3999023438</ele>
        <time>2013-04-07T10:03:46.000Z</time>
      </trkpt>
      <trkpt lat="45.3196" lon="6.16567">
        <ele>2174.3999023438</ele>
        <time>2013-04-07T10:03:51.000Z</time>
      </trkpt>
      <trkpt lat="45.3196" lon="6.1656">
        <ele>2174.3999023438</ele>
        <time>2013-04-07T10:03:58.000Z</time>
      </trkpt>
      <trkpt lat="45.31959" lon="6.16552">
        <ele>2174.3999023438</ele>
        <time>2013-04-07T10:04:05.000Z</time>
      </trkpt>
      <trkpt lat="45.31957" lon="6.16545">
        <ele>2173.8000488281</ele>
        <time>2013-04-07T10:04:11.000Z</time>
      </trkpt>
      <trkpt lat="45.31956" lon="6.16539">
        <ele>2173.6000976562</ele>
        <time>2013-04-07T10:04:16.000Z</time>
      </trkpt>
      <trkpt lat="45.31955" lon="6.16532">
        <ele>2174</ele>
        <time>2013-04-07T10:04:22.000Z</time>
      </trkpt>
      <trkpt lat="45.31955" lon="6.16524">
        <ele>2174.6000976562</ele>
        <time>2013-04-07T10:04:28.000Z</time>
      </trkpt>
      <trkpt lat="45.31954" lon="6.16522">
        <ele>2175</ele>
        <time>2013-04-07T10:04:34.000Z</time>
      </trkpt>
      <trkpt lat="45.31947" lon="6.16509">
        <ele>2174.3999023438</ele>
        <time>2013-04-07T10:06:32.000Z</time>
      </trkpt>
      <trkpt lat="45.31948" lon="6.16509">
        <ele>2175.6000976562</ele>
        <time>2013-04-07T10:06:40.000Z</time>
      </trkpt>
      <trkpt lat="45.31951" lon="6.16508">
        <ele>2175.3999023438</ele>
        <time>2013-04-07T10:07:20.000Z</time>
      </trkpt>
      <trkpt lat="45.31952" lon="6.16498">
        <ele>2176.1999511719</ele>
        <time>2013-04-07T10:07:27.000Z</time>
      </trkpt>
      <trkpt lat="45.31952" lon="6.1649">
        <ele>2176.1999511719</ele>
        <time>2013-04-07T10:07:33.000Z</time>
      </trkpt>
      <trkpt lat="45.31951" lon="6.16481">
        <ele>2176.1999511719</ele>
        <time>2013-04-07T10:07:40.000Z</time>
      </trkpt>
      <trkpt lat="45.31951" lon="6.16477">
        <ele>2176.8000488281</ele>
        <time>2013-04-07T10:07:47.000Z</time>
      </trkpt>
      <trkpt lat="45.31953" lon="6.16477">
        <ele>2176.8000488281</ele>
        <time>2013-04-07T10:08:15.000Z</time>
      </trkpt>
      <trkpt lat="45.31949" lon="6.16474">
        <ele>2177.1999511719</ele>
        <time>2013-04-07T10:08:20.000Z</time>
      </trkpt>
      <trkpt lat="45.31945" lon="6.16474">
        <ele>2178</ele>
        <time>2013-04-07T10:09:20.000Z</time>
      </trkpt>
      <trkpt lat="45.31944" lon="6.16466">
        <ele>2179</ele>
        <time>2013-04-07T10:09:27.000Z</time>
      </trkpt>
      <trkpt lat="45.31943" lon="6.1646">
        <ele>2179.8000488281</ele>
        <time>2013-04-07T10:09:33.000Z</time>
      </trkpt>
      <trkpt lat="45.31943" lon="6.16452">
        <ele>2180.3999023438</ele>
        <time>2013-04-07T10:09:39.000Z</time>
      </trkpt>
      <trkpt lat="45.31941" lon="6.16446">
        <ele>2181</ele>
        <time>2013-04-07T10:09:44.000Z</time>
      </trkpt>
      <trkpt lat="45.31939" lon="6.1644">
        <ele>2181.6000976562</ele>
        <time>2013-04-07T10:09:49.000Z</time>
      </trkpt>
      <trkpt lat="45.31938" lon="6.16434">
        <ele>2181.8000488281</ele>
        <time>2013-04-07T10:09:54.000Z</time>
      </trkpt>
      <trkpt lat="45.31938" lon="6.16426">
        <ele>2181.6000976562</ele>
        <time>2013-04-07T10:09:59.000Z</time>
      </trkpt>
      <trkpt lat="45.31936" lon="6.16418">
        <ele>2182.1999511719</ele>
        <time>2013-04-07T10:10:05.000Z</time>
      </trkpt>
      <trkpt lat="45.31934" lon="6.16412">
        <ele>2182.6000976562</ele>
        <time>2013-04-07T10:10:10.000Z</time>
      </trkpt>
      <trkpt lat="45.31934" lon="6.16406">
        <ele>2183</ele>
        <time>2013-04-07T10:10:15.000Z</time>
      </trkpt>
      <trkpt lat="45.31934" lon="6.16399">
        <ele>2183.6000976562</ele>
        <time>2013-04-07T10:10:21.000Z</time>
      </trkpt>
      <trkpt lat="45.31934" lon="6.16393">
        <ele>2184.3999023438</ele>
        <time>2013-04-07T10:10:26.000Z</time>
      </trkpt>
      <trkpt lat="45.31936" lon="6.16387">
        <ele>2185</ele>
        <time>2013-04-07T10:10:32.000Z</time>
      </trkpt>
      <trkpt lat="45.31936" lon="6.16381">
        <ele>2185.8000488281</ele>
        <time>2013-04-07T10:10:37.000Z</time>
      </trkpt>
      <trkpt lat="45.31938" lon="6.16374">
        <ele>2187.3999023438</ele>
        <time>2013-04-07T10:10:45.000Z</time>
      </trkpt>
      <trkpt lat="45.31939" lon="6.16368">
        <ele>2188.1999511719</ele>
        <time>2013-04-07T10:10:51.000Z</time>
      </trkpt>
      <trkpt lat="45.3194" lon="6.16362">
        <ele>2189.8000488281</ele>
        <time>2013-04-07T10:10:59.000Z</time>
      </trkpt>
      <trkpt lat="45.31939" lon="6.16358">
        <ele>2190.6000976562</ele>
        <time>2013-04-07T10:11:03.000Z</time>
      </trkpt>
      <trkpt lat="45.31939" lon="6.16355">
        <ele>2191.3999023438</ele>
        <time>2013-04-07T10:11:07.000Z</time>
      </trkpt>
      <trkpt lat="45.31938" lon="6.16351">
        <ele>2192.1999511719</ele>
        <time>2013-04-07T10:11:11.000Z</time>
      </trkpt>
      <trkpt lat="45.31936" lon="6.16348">
        <ele>2192.8000488281</ele>
        <time>2013-04-07T10:11:15.000Z</time>
      </trkpt>
      <trkpt lat="45.31935" lon="6.16345">
        <ele>2193.6000976562</ele>
        <time>2013-04-07T10:11:19.000Z</time>
      </trkpt>
      <trkpt lat="45.31934" lon="6.16342">
        <ele>2194.3999023438</ele>
        <time>2013-04-07T10:11:23.000Z</time>
      </trkpt>
      <trkpt lat="45.31932" lon="6.1634">
        <ele>2195.1999511719</ele>
        <time>2013-04-07T10:11:27.000Z</time>
      </trkpt>
      <trkpt lat="45.31931" lon="6.16338">
        <ele>2195.8000488281</ele>
        <time>2013-04-07T10:11:31.000Z</time>
      </trkpt>
      <trkpt lat="45.3193" lon="6.16335">
        <ele>2196.3999023438</ele>
        <time>2013-04-07T10:11:35.000Z</time>
      </trkpt>
      <trkpt lat="45.31928" lon="6.16331">
        <ele>2197.6000976562</ele>
        <time>2013-04-07T10:11:41.000Z</time>
      </trkpt>
      <trkpt lat="45.31925" lon="6.16329">
        <ele>2198.6000976562</ele>
        <time>2013-04-07T10:11:46.000Z</time>
      </trkpt>
      <trkpt lat="45.31923" lon="6.16324">
        <ele>2199.6000976562</ele>
        <time>2013-04-07T10:11:53.000Z</time>
      </trkpt>
      <trkpt lat="45.31922" lon="6.16324">
        <ele>2200.1999511719</ele>
        <time>2013-04-07T10:11:55.000Z</time>
      </trkpt>
      <trkpt lat="45.3192" lon="6.16322">
        <ele>2201.1999511719</ele>
        <time>2013-04-07T10:12:02.000Z</time>
      </trkpt>
      <trkpt lat="45.3192" lon="6.16324">
        <ele>2201.6000976562</ele>
        <time>2013-04-07T10:12:26.000Z</time>
      </trkpt>
      <trkpt lat="45.31918" lon="6.16322">
        <ele>2202.1999511719</ele>
        <time>2013-04-07T10:12:31.000Z</time>
      </trkpt>
      <trkpt lat="45.31915" lon="6.16315">
        <ele>2203.3999023438</ele>
        <time>2013-04-07T10:12:39.000Z</time>
      </trkpt>
      <trkpt lat="45.31913" lon="6.16312">
        <ele>2204.6000976562</ele>
        <time>2013-04-07T10:12:44.000Z</time>
      </trkpt>
      <trkpt lat="45.3191" lon="6.16306">
        <ele>2205.8000488281</ele>
        <time>2013-04-07T10:12:51.000Z</time>
      </trkpt>
      <trkpt lat="45.31908" lon="6.16302">
        <ele>2207</ele>
        <time>2013-04-07T10:12:57.000Z</time>
      </trkpt>
      <trkpt lat="45.31906" lon="6.16298">
        <ele>2207.6000976562</ele>
        <time>2013-04-07T10:13:02.000Z</time>
      </trkpt>
      <trkpt lat="45.31903" lon="6.16292">
        <ele>2208.1999511719</ele>
        <time>2013-04-07T10:13:09.000Z</time>
      </trkpt>
      <trkpt lat="45.31901" lon="6.16287">
        <ele>2208.8000488281</ele>
        <time>2013-04-07T10:13:15.000Z</time>
      </trkpt>
      <trkpt lat="45.319" lon="6.16286">
        <ele>2209.3999023438</ele>
        <time>2013-04-07T10:13:30.000Z</time>
      </trkpt>
      <trkpt lat="45.31897" lon="6.16282">
        <ele>2209.1999511719</ele>
        <time>2013-04-07T10:14:12.000Z</time>
      </trkpt>
      <trkpt lat="45.31893" lon="6.16277">
        <ele>2210</ele>
        <time>2013-04-07T10:14:19.000Z</time>
      </trkpt>
      <trkpt lat="45.31891" lon="6.16274">
        <ele>2211</ele>
        <time>2013-04-07T10:14:25.000Z</time>
      </trkpt>
      <trkpt lat="45.31887" lon="6.16271">
        <ele>2212.3999023438</ele>
        <time>2013-04-07T10:14:31.000Z</time>
      </trkpt>
      <trkpt lat="45.31882" lon="6.16268">
        <ele>2213.6000976562</ele>
        <time>2013-04-07T10:14:37.000Z</time>
      </trkpt>
      <trkpt lat="45.31881" lon="6.16267">
        <ele>2214.8000488281</ele>
        <time>2013-04-07T10:14:43.000Z</time>
      </trkpt>
      <trkpt lat="45.31878" lon="6.16266">
        <ele>2215.1999511719</ele>
        <time>2013-04-07T10:14:50.000Z</time>
      </trkpt>
      <trkpt lat="45.31875" lon="6.16263">
        <ele>2216</ele>
        <time>2013-04-07T10:14:55.000Z</time>
      </trkpt>
      <trkpt lat="45.31873" lon="6.16261">
        <ele>2217.1999511719</ele>
        <time>2013-04-07T10:15:00.000Z</time>
      </trkpt>
      <trkpt lat="45.3187" lon="6.16259">
        <ele>2218.3999023438</ele>
        <time>2013-04-07T10:15:05.000Z</time>
      </trkpt>
      <trkpt lat="45.31868" lon="6.1626">
        <ele>2219.8000488281</ele>
        <time>2013-04-07T10:15:12.000Z</time>
      </trkpt>
      <trkpt lat="45.31866" lon="6.16266">
        <ele>2220.6000976562</ele>
        <time>2013-04-07T10:15:17.000Z</time>
      </trkpt>
      <trkpt lat="45.31864" lon="6.16274">
        <ele>2221.8000488281</ele>
        <time>2013-04-07T10:15:24.000Z</time>
      </trkpt>
      <trkpt lat="45.31863" lon="6.16275">
        <ele>2222</ele>
        <time>2013-04-07T10:15:25.000Z</time>
      </trkpt>
      <trkpt lat="45.31862" lon="6.16279">
        <ele>2223.1999511719</ele>
        <time>2013-04-07T10:15:30.000Z</time>
      </trkpt>
      <trkpt lat="45.3186" lon="6.16282">
        <ele>2224.3999023438</ele>
        <time>2013-04-07T10:15:35.000Z</time>
      </trkpt>
      <trkpt lat="45.31859" lon="6.16285">
        <ele>2225</ele>
        <time>2013-04-07T10:15:39.000Z</time>
      </trkpt>
      <trkpt lat="45.31858" lon="6.16287">
        <ele>2225.6000976562</ele>
        <time>2013-04-07T10:15:43.000Z</time>
      </trkpt>
      <trkpt lat="45.31856" lon="6.16292">
        <ele>2226.8000488281</ele>
        <time>2013-04-07T10:15:49.000Z</time>
      </trkpt>
      <trkpt lat="45.31854" lon="6.16294">
        <ele>2227.8000488281</ele>
        <time>2013-04-07T10:15:53.000Z</time>
      </trkpt>
      <trkpt lat="45.31853" lon="6.16297">
        <ele>2228.8000488281</ele>
        <time>2013-04-07T10:15:57.000Z</time>
      </trkpt>
      <trkpt lat="45.31851" lon="6.163">
        <ele>2229.3999023438</ele>
        <time>2013-04-07T10:16:01.000Z</time>
      </trkpt>
      <trkpt lat="45.31849" lon="6.16303">
        <ele>2230.8000488281</ele>
        <time>2013-04-07T10:16:07.000Z</time>
      </trkpt>
      <trkpt lat="45.31848" lon="6.16305">
        <ele>2231.6000976562</ele>
        <time>2013-04-07T10:16:11.000Z</time>
      </trkpt>
      <trkpt lat="45.31847" lon="6.16306">
        <ele>2232.1999511719</ele>
        <time>2013-04-07T10:16:15.000Z</time>
      </trkpt>
      <trkpt lat="45.31845" lon="6.16309">
        <ele>2233.1999511719</ele>
        <time>2013-04-07T10:16:20.000Z</time>
      </trkpt>
      <trkpt lat="45.31844" lon="6.16311">
        <ele>2234.3999023438</ele>
        <time>2013-04-07T10:16:25.000Z</time>
      </trkpt>
      <trkpt lat="45.31842" lon="6.16313">
        <ele>2235.3999023438</ele>
        <time>2013-04-07T10:16:29.000Z</time>
      </trkpt>
      <trkpt lat="45.31841" lon="6.16315">
        <ele>2236.1999511719</ele>
        <time>2013-04-07T10:16:34.000Z</time>
      </trkpt>
      <trkpt lat="45.31839" lon="6.16318">
        <ele>2237.6000976562</ele>
        <time>2013-04-07T10:16:40.000Z</time>
      </trkpt>
      <trkpt lat="45.31837" lon="6.16319">
        <ele>2238.6000976562</ele>
        <time>2013-04-07T10:16:44.000Z</time>
      </trkpt>
      <trkpt lat="45.31836" lon="6.16321">
        <ele>2239.3999023438</ele>
        <time>2013-04-07T10:16:48.000Z</time>
      </trkpt>
      <trkpt lat="45.31835" lon="6.16323">
        <ele>2240.1999511719</ele>
        <time>2013-04-07T10:16:52.000Z</time>
      </trkpt>
      <trkpt lat="45.31833" lon="6.16325">
        <ele>2240.8000488281</ele>
        <time>2013-04-07T10:16:56.000Z</time>
      </trkpt>
      <trkpt lat="45.31831" lon="6.16327">
        <ele>2241.6000976562</ele>
        <time>2013-04-07T10:17:00.000Z</time>
      </trkpt>
      <trkpt lat="45.3183" lon="6.16329">
        <ele>2242.8000488281</ele>
        <time>2013-04-07T10:17:05.000Z</time>
      </trkpt>
      <trkpt lat="45.3183" lon="6.16327">
        <ele>2243.6000976562</ele>
        <time>2013-04-07T10:17:11.000Z</time>
      </trkpt>
      <trkpt lat="45.31829" lon="6.16322">
        <ele>2244.1999511719</ele>
        <time>2013-04-07T10:17:16.000Z</time>
      </trkpt>
      <trkpt lat="45.31829" lon="6.16317">
        <ele>2245.3999023438</ele>
        <time>2013-04-07T10:17:22.000Z</time>
      </trkpt>
      <trkpt lat="45.31828" lon="6.16312">
        <ele>2246.3999023438</ele>
        <time>2013-04-07T10:17:27.000Z</time>
      </trkpt>
      <trkpt lat="45.31827" lon="6.16309">
        <ele>2247</ele>
        <time>2013-04-07T10:17:31.000Z</time>
      </trkpt>
      <trkpt lat="45.31826" lon="6.16302">
        <ele>2248.3999023438</ele>
        <time>2013-04-07T10:17:39.000Z</time>
      </trkpt>
      <trkpt lat="45.31825" lon="6.16299">
        <ele>2249.3999023438</ele>
        <time>2013-04-07T10:17:43.000Z</time>
      </trkpt>
      <trkpt lat="45.31824" lon="6.16297">
        <ele>2250</ele>
        <time>2013-04-07T10:17:47.000Z</time>
      </trkpt>
      <trkpt lat="45.31823" lon="6.16294">
        <ele>2250.8000488281</ele>
        <time>2013-04-07T10:17:51.000Z</time>
      </trkpt>
      <trkpt lat="45.31823" lon="6.16292">
        <ele>2251.3999023438</ele>
        <time>2013-04-07T10:17:55.000Z</time>
      </trkpt>
      <trkpt lat="45.31822" lon="6.16289">
        <ele>2252.1999511719</ele>
        <time>2013-04-07T10:17:59.000Z</time>
      </trkpt>
      <trkpt lat="45.31821" lon="6.16287">
        <ele>2253</ele>
        <time>2013-04-07T10:18:03.000Z</time>
      </trkpt>
      <trkpt lat="45.3182" lon="6.16287">
        <ele>2253.8000488281</ele>
        <time>2013-04-07T10:18:08.000Z</time>
      </trkpt>
      <trkpt lat="45.3182" lon="6.1629">
        <ele>2254.1999511719</ele>
        <time>2013-04-07T10:18:32.000Z</time>
      </trkpt>
      <trkpt lat="45.31817" lon="6.16295">
        <ele>2255</ele>
        <time>2013-04-07T10:18:39.000Z</time>
      </trkpt>
      <trkpt lat="45.31814" lon="6.16299">
        <ele>2256.1999511719</ele>
        <time>2013-04-07T10:18:47.000Z</time>
      </trkpt>
      <trkpt lat="45.31813" lon="6.16301">
        <ele>2256.6000976562</ele>
        <time>2013-04-07T10:18:58.000Z</time>
      </trkpt>
      <trkpt lat="45.3181" lon="6.16305">
        <ele>2257.6000976562</ele>
        <time>2013-04-07T10:19:04.000Z</time>
      </trkpt>
      <trkpt lat="45.31808" lon="6.16308">
        <ele>2258.8000488281</ele>
        <time>2013-04-07T10:19:09.000Z</time>
      </trkpt>
      <trkpt lat="45.31806" lon="6.16311">
        <ele>2260.1999511719</ele>
        <time>2013-04-07T10:19:14.000Z</time>
      </trkpt>
      <trkpt lat="45.31804" lon="6.16314">
        <ele>2261.1999511719</ele>
        <time>2013-04-07T10:19:18.000Z</time>
      </trkpt>
      <trkpt lat="45.31804" lon="6.16314">
        <ele>2262.1999511719</ele>
        <time>2013-04-07T10:19:23.000Z</time>
      </trkpt>
      <trkpt lat="45.31805" lon="6.16304">
        <ele>2263.3999023438</ele>
        <time>2013-04-07T10:19:34.000Z</time>
      </trkpt>
      <trkpt lat="45.31805" lon="6.16302">
        <ele>2264.1999511719</ele>
        <time>2013-04-07T10:19:37.000Z</time>
      </trkpt>
      <trkpt lat="45.31804" lon="6.16298">
        <ele>2265.1999511719</ele>
        <time>2013-04-07T10:19:42.000Z</time>
      </trkpt>
      <trkpt lat="45.31804" lon="6.16295">
        <ele>2266</ele>
        <time>2013-04-07T10:19:46.000Z</time>
      </trkpt>
      <trkpt lat="45.31803" lon="6.16292">
        <ele>2266.8000488281</ele>
        <time>2013-04-07T10:19:50.000Z</time>
      </trkpt>
      <trkpt lat="45.31801" lon="6.16286">
        <ele>2268</ele>
        <time>2013-04-07T10:19:58.000Z</time>
      </trkpt>
      <trkpt lat="45.31799" lon="6.16283">
        <ele>2268.8000488281</ele>
        <time>2013-04-07T10:20:03.000Z</time>
      </trkpt>
      <trkpt lat="45.31797" lon="6.16281">
        <ele>2270</ele>
        <time>2013-04-07T10:20:07.000Z</time>
      </trkpt>
      <trkpt lat="45.31793" lon="6.16277">
        <ele>2271.1999511719</ele>
        <time>2013-04-07T10:20:15.000Z</time>
      </trkpt>
      <trkpt lat="45.3179" lon="6.16272">
        <ele>2272.3999023438</ele>
        <time>2013-04-07T10:20:21.000Z</time>
      </trkpt>
      <trkpt lat="45.31787" lon="6.16269">
        <ele>2273</ele>
        <time>2013-04-07T10:20:25.000Z</time>
      </trkpt>
      <trkpt lat="45.31784" lon="6.16266">
        <ele>2274</ele>
        <time>2013-04-07T10:20:32.000Z</time>
      </trkpt>
      <trkpt lat="45.31782" lon="6.16263">
        <ele>2275.1999511719</ele>
        <time>2013-04-07T10:20:37.000Z</time>
      </trkpt>
      <trkpt lat="45.31779" lon="6.16261">
        <ele>2276.1999511719</ele>
        <time>2013-04-07T10:20:45.000Z</time>
      </trkpt>
      <trkpt lat="45.31775" lon="6.1626">
        <ele>2277</ele>
        <time>2013-04-07T10:20:52.000Z</time>
      </trkpt>
      <trkpt lat="45.31773" lon="6.16259">
        <ele>2278.1999511719</ele>
        <time>2013-04-07T10:21:00.000Z</time>
      </trkpt>
      <trkpt lat="45.31773" lon="6.16259">
        <ele>2278.1999511719</ele>
        <time>2013-04-07T10:21:01.000Z</time>
      </trkpt>
      <trkpt lat="45.31768" lon="6.16255">
        <ele>2278.6000976562</ele>
        <time>2013-04-07T10:21:08.000Z</time>
      </trkpt>
      <trkpt lat="45.31763" lon="6.16252">
        <ele>2279.8000488281</ele>
        <time>2013-04-07T10:21:14.000Z</time>
      </trkpt>
      <trkpt lat="45.31759" lon="6.16248">
        <ele>2281</ele>
        <time>2013-04-07T10:21:20.000Z</time>
      </trkpt>
      <trkpt lat="45.31756" lon="6.16244">
        <ele>2282</ele>
        <time>2013-04-07T10:21:26.000Z</time>
      </trkpt>
      <trkpt lat="45.31753" lon="6.16241">
        <ele>2283</ele>
        <time>2013-04-07T10:21:32.000Z</time>
      </trkpt>
      <trkpt lat="45.31749" lon="6.16239">
        <ele>2284</ele>
        <time>2013-04-07T10:21:38.000Z</time>
      </trkpt>
      <trkpt lat="45.31747" lon="6.16237">
        <ele>2284.6000976562</ele>
        <time>2013-04-07T10:21:42.000Z</time>
      </trkpt>
      <trkpt lat="45.31744" lon="6.16234">
        <ele>2286</ele>
        <time>2013-04-07T10:21:48.000Z</time>
      </trkpt>
      <trkpt lat="45.3174" lon="6.16232">
        <ele>2287</ele>
        <time>2013-04-07T10:21:54.000Z</time>
      </trkpt>
      <trkpt lat="45.31737" lon="6.16231">
        <ele>2288.3999023438</ele>
        <time>2013-04-07T10:22:01.000Z</time>
      </trkpt>
      <trkpt lat="45.31735" lon="6.16229">
        <ele>2289.6000976562</ele>
        <time>2013-04-07T10:22:06.000Z</time>
      </trkpt>
      <trkpt lat="45.31733" lon="6.16228">
        <ele>2290.1999511719</ele>
        <time>2013-04-07T10:22:10.000Z</time>
      </trkpt>
      <trkpt lat="45.3173" lon="6.16227">
        <ele>2291.1999511719</ele>
        <time>2013-04-07T10:22:14.000Z</time>
      </trkpt>
      <trkpt lat="45.31726" lon="6.16225">
        <ele>2292.6000976562</ele>
        <time>2013-04-07T10:22:21.000Z</time>
      </trkpt>
      <trkpt lat="45.31724" lon="6.16225">
        <ele>2293.1999511719</ele>
        <time>2013-04-07T10:22:25.000Z</time>
      </trkpt>
      <trkpt lat="45.31722" lon="6.16225">
        <ele>2293.8000488281</ele>
        <time>2013-04-07T10:22:29.000Z</time>
      </trkpt>
      <trkpt lat="45.31718" lon="6.16225">
        <ele>2295.3999023438</ele>
        <time>2013-04-07T10:22:36.000Z</time>
      </trkpt>
      <trkpt lat="45.31716" lon="6.16224">
        <ele>2296.1999511719</ele>
        <time>2013-04-07T10:22:40.000Z</time>
      </trkpt>
      <trkpt lat="45.31712" lon="6.16223">
        <ele>2297.3999023438</ele>
        <time>2013-04-07T10:22:46.000Z</time>
      </trkpt>
      <trkpt lat="45.31709" lon="6.16222">
        <ele>2298.1999511719</ele>
        <time>2013-04-07T10:22:51.000Z</time>
      </trkpt>
      <trkpt lat="45.31707" lon="6.16221">
        <ele>2299.6000976562</ele>
        <time>2013-04-07T10:22:57.000Z</time>
      </trkpt>
      <trkpt lat="45.31705" lon="6.1622">
        <ele>2300.6000976562</ele>
        <time>2013-04-07T10:23:02.000Z</time>
      </trkpt>
      <trkpt lat="45.31702" lon="6.16219">
        <ele>2301.8000488281</ele>
        <time>2013-04-07T10:23:07.000Z</time>
      </trkpt>
      <trkpt lat="45.31698" lon="6.16219">
        <ele>2302.8000488281</ele>
        <time>2013-04-07T10:23:13.000Z</time>
      </trkpt>
      <trkpt lat="45.31694" lon="6.16218">
        <ele>2304</ele>
        <time>2013-04-07T10:23:19.000Z</time>
      </trkpt>
      <trkpt lat="45.31692" lon="6.16217">
        <ele>2305.1999511719</ele>
        <time>2013-04-07T10:23:24.000Z</time>
      </trkpt>
      <trkpt lat="45.31685" lon="6.16215">
        <ele>2305.6000976562</ele>
        <time>2013-04-07T10:23:43.000Z</time>
      </trkpt>
      <trkpt lat="45.31683" lon="6.16215">
        <ele>2306.6000976562</ele>
        <time>2013-04-07T10:23:47.000Z</time>
      </trkpt>
      <trkpt lat="45.3168" lon="6.16215">
        <ele>2308</ele>
        <time>2013-04-07T10:23:53.000Z</time>
      </trkpt>
      <trkpt lat="45.31678" lon="6.16216">
        <ele>2308.8000488281</ele>
        <time>2013-04-07T10:23:57.000Z</time>
      </trkpt>
      <trkpt lat="45.31675" lon="6.16216">
        <ele>2310</ele>
        <time>2013-04-07T10:24:02.000Z</time>
      </trkpt>
      <trkpt lat="45.31673" lon="6.16216">
        <ele>2310.8000488281</ele>
        <time>2013-04-07T10:24:06.000Z</time>
      </trkpt>
      <trkpt lat="45.3167" lon="6.16216">
        <ele>2312.3999023438</ele>
        <time>2013-04-07T10:24:13.000Z</time>
      </trkpt>
      <trkpt lat="45.31668" lon="6.16217">
        <ele>2313.1999511719</ele>
        <time>2013-04-07T10:24:17.000Z</time>
      </trkpt>
      <trkpt lat="45.31665" lon="6.16217">
        <ele>2314.3999023438</ele>
        <time>2013-04-07T10:24:22.000Z</time>
      </trkpt>
      <trkpt lat="45.31663" lon="6.16217">
        <ele>2315.1999511719</ele>
        <time>2013-04-07T10:24:26.000Z</time>
      </trkpt>
      <trkpt lat="45.3166" lon="6.16217">
        <ele>2316.3999023438</ele>
        <time>2013-04-07T10:24:32.000Z</time>
      </trkpt>
      <trkpt lat="45.31658" lon="6.16217">
        <ele>2317.3999023438</ele>
        <time>2013-04-07T10:24:36.000Z</time>
      </trkpt>
      <trkpt lat="45.31656" lon="6.16217">
        <ele>2318.3999023438</ele>
        <time>2013-04-07T10:24:40.000Z</time>
      </trkpt>
      <trkpt lat="45.31653" lon="6.16216">
        <ele>2319.6000976562</ele>
        <time>2013-04-07T10:24:45.000Z</time>
      </trkpt>
      <trkpt lat="45.31651" lon="6.16214">
        <ele>2320.6000976562</ele>
        <time>2013-04-07T10:24:49.000Z</time>
      </trkpt>
      <trkpt lat="45.31649" lon="6.16214">
        <ele>2321.3999023438</ele>
        <time>2013-04-07T10:24:53.000Z</time>
      </trkpt>
      <trkpt lat="45.31645" lon="6.16214">
        <ele>2323</ele>
        <time>2013-04-07T10:25:00.000Z</time>
      </trkpt>
      <trkpt lat="45.31644" lon="6.16213">
        <ele>2323.8000488281</ele>
        <time>2013-04-07T10:25:04.000Z</time>
      </trkpt>
      <trkpt lat="45.3164" lon="6.16212">
        <ele>2325.6000976562</ele>
        <time>2013-04-07T10:25:11.000Z</time>
      </trkpt>
      <trkpt lat="45.31638" lon="6.16212">
        <ele>2326.6000976562</ele>
        <time>2013-04-07T10:25:16.000Z</time>
      </trkpt>
      <trkpt lat="45.31633" lon="6.16212">
        <ele>2328.3999023438</ele>
        <time>2013-04-07T10:25:25.000Z</time>
      </trkpt>
      <trkpt lat="45.3163" lon="6.16211">
        <ele>2329.1999511719</ele>
        <time>2013-04-07T10:25:29.000Z</time>
      </trkpt>
      <trkpt lat="45.31629" lon="6.16211">
        <ele>2329.8000488281</ele>
        <time>2013-04-07T10:25:33.000Z</time>
      </trkpt>
      <trkpt lat="45.31628" lon="6.1621">
        <ele>2331.1999511719</ele>
        <time>2013-04-07T10:25:40.000Z</time>
      </trkpt>
      <trkpt lat="45.31624" lon="6.1621">
        <ele>2331.6000976562</ele>
        <time>2013-04-07T10:25:46.000Z</time>
      </trkpt>
      <trkpt lat="45.31621" lon="6.16209">
        <ele>2333</ele>
        <time>2013-04-07T10:25:51.000Z</time>
      </trkpt>
      <trkpt lat="45.31615" lon="6.16207">
        <ele>2334.8000488281</ele>
        <time>2013-04-07T10:25:58.000Z</time>
      </trkpt>
      <trkpt lat="45.31613" lon="6.16205">
        <ele>2335.6000976562</ele>
        <time>2013-04-07T10:26:02.000Z</time>
      </trkpt>
      <trkpt lat="45.31611" lon="6.16206">
        <ele>2336.1999511719</ele>
        <time>2013-04-07T10:26:06.000Z</time>
      </trkpt>
      <trkpt lat="45.3161" lon="6.16208">
        <ele>2336.8000488281</ele>
        <time>2013-04-07T10:26:10.000Z</time>
      </trkpt>
      <trkpt lat="45.31605" lon="6.1621">
        <ele>2338.3999023438</ele>
        <time>2013-04-07T10:26:17.000Z</time>
      </trkpt>
      <trkpt lat="45.31604" lon="6.16211">
        <ele>2339.1999511719</ele>
        <time>2013-04-07T10:26:22.000Z</time>
      </trkpt>
      <trkpt lat="45.31602" lon="6.16213">
        <ele>2340.1999511719</ele>
        <time>2013-04-07T10:26:27.000Z</time>
      </trkpt>
      <trkpt lat="45.31598" lon="6.16214">
        <ele>2341.6000976562</ele>
        <time>2013-04-07T10:26:35.000Z</time>
      </trkpt>
      <trkpt lat="45.31597" lon="6.16214">
        <ele>2342.1999511719</ele>
        <time>2013-04-07T10:26:39.000Z</time>
      </trkpt>
      <trkpt lat="45.31596" lon="6.16214">
        <ele>2342.3999023438</ele>
        <time>2013-04-07T10:26:40.000Z</time>
      </trkpt>
      <trkpt lat="45.31594" lon="6.16214">
        <ele>2343.8000488281</ele>
        <time>2013-04-07T10:26:47.000Z</time>
      </trkpt>
      <trkpt lat="45.31589" lon="6.16208">
        <ele>2344.1999511719</ele>
        <time>2013-04-07T10:27:10.000Z</time>
      </trkpt>
      <trkpt lat="45.31586" lon="6.16206">
        <ele>2344.1999511719</ele>
        <time>2013-04-07T10:27:17.000Z</time>
      </trkpt>
      <trkpt lat="45.31588" lon="6.16204">
        <ele>2344.3999023438</ele>
        <time>2013-04-07T10:27:25.000Z</time>
      </trkpt>
      <trkpt lat="45.3159" lon="6.16203">
        <ele>2344.3999023438</ele>
        <time>2013-04-07T10:27:27.000Z</time>
      </trkpt>
      <trkpt lat="45.31593" lon="6.16201">
        <ele>2345.3999023438</ele>
        <time>2013-04-07T10:27:32.000Z</time>
      </trkpt>
      <trkpt lat="45.31594" lon="6.16198">
        <ele>2346.1999511719</ele>
        <time>2013-04-07T10:27:36.000Z</time>
      </trkpt>
      <trkpt lat="45.31595" lon="6.16196">
        <ele>2347</ele>
        <time>2013-04-07T10:27:40.000Z</time>
      </trkpt>
      <trkpt lat="45.31592" lon="6.16199">
        <ele>2348.6000976562</ele>
        <time>2013-04-07T10:27:47.000Z</time>
      </trkpt>
      <trkpt lat="45.31587" lon="6.16202">
        <ele>2349.3999023438</ele>
        <time>2013-04-07T10:27:52.000Z</time>
      </trkpt>
      <trkpt lat="45.31583" lon="6.16203">
        <ele>2350.3999023438</ele>
        <time>2013-04-07T10:27:56.000Z</time>
      </trkpt>
      <trkpt lat="45.31581" lon="6.16204">
        <ele>2351.8000488281</ele>
        <time>2013-04-07T10:28:04.000Z</time>
      </trkpt>
      <trkpt lat="45.31582" lon="6.16202">
        <ele>2353</ele>
        <time>2013-04-07T10:28:11.000Z</time>
      </trkpt>
      <trkpt lat="45.31582" lon="6.16199">
        <ele>2353.8000488281</ele>
        <time>2013-04-07T10:28:16.000Z</time>
      </trkpt>
      <trkpt lat="45.31579" lon="6.16196">
        <ele>2355.1999511719</ele>
        <time>2013-04-07T10:28:23.000Z</time>
      </trkpt>
      <trkpt lat="45.31576" lon="6.16198">
        <ele>2356.1999511719</ele>
        <time>2013-04-07T10:28:29.000Z</time>
      </trkpt>
      <trkpt lat="45.31571" lon="6.16201">
        <ele>2357</ele>
        <time>2013-04-07T10:28:34.000Z</time>
      </trkpt>
      <trkpt lat="45.31569" lon="6.16201">
        <ele>2357.8000488281</ele>
        <time>2013-04-07T10:28:38.000Z</time>
      </trkpt>
      <trkpt lat="45.3157" lon="6.16201">
        <ele>2358.6000976562</ele>
        <time>2013-04-07T10:28:43.000Z</time>
      </trkpt>
      <trkpt lat="45.31569" lon="6.16198">
        <ele>2359.1999511719</ele>
        <time>2013-04-07T10:28:51.000Z</time>
      </trkpt>
      <trkpt lat="45.31567" lon="6.16194">
        <ele>2360.3999023438</ele>
        <time>2013-04-07T10:28:56.000Z</time>
      </trkpt>
      <trkpt lat="45.31574" lon="6.16186">
        <ele>2361.6000976562</ele>
        <time>2013-04-07T10:29:44.000Z</time>
      </trkpt>
      <trkpt lat="45.31567" lon="6.16188">
        <ele>2363.3999023438</ele>
        <time>2013-04-07T10:29:52.000Z</time>
      </trkpt>
      <trkpt lat="45.31565" lon="6.16186">
        <ele>2364.3999023438</ele>
        <time>2013-04-07T10:29:55.000Z</time>
      </trkpt>
      <trkpt lat="45.31564" lon="6.16182">
        <ele>2365.3999023438</ele>
        <time>2013-04-07T10:30:01.000Z</time>
      </trkpt>
      <trkpt lat="45.31564" lon="6.16177">
        <ele>2366.8000488281</ele>
        <time>2013-04-07T10:30:07.000Z</time>
      </trkpt>
      <trkpt lat="45.31562" lon="6.16175">
        <ele>2367.6000976562</ele>
        <time>2013-04-07T10:30:11.000Z</time>
      </trkpt>
      <trkpt lat="45.31562" lon="6.16172">
        <ele>2368</ele>
        <time>2013-04-07T10:30:16.000Z</time>
      </trkpt>
      <trkpt lat="45.31561" lon="6.16169">
        <ele>2368.6000976562</ele>
        <time>2013-04-07T10:30:21.000Z</time>
      </trkpt>
      <trkpt lat="45.3156" lon="6.16169">
        <ele>2369.1999511719</ele>
        <time>2013-04-07T10:30:28.000Z</time>
      </trkpt>
      <trkpt lat="45.31558" lon="6.16164">
        <ele>2369.1999511719</ele>
        <time>2013-04-07T10:30:37.000Z</time>
      </trkpt>
      <trkpt lat="45.31556" lon="6.16158">
        <ele>2369.8000488281</ele>
        <time>2013-04-07T10:30:42.000Z</time>
      </trkpt>
      <trkpt lat="45.31555" lon="6.16153">
        <ele>2370.1999511719</ele>
        <time>2013-04-07T10:30:47.000Z</time>
      </trkpt>
      <trkpt lat="45.31554" lon="6.16147">
        <ele>2370.8000488281</ele>
        <time>2013-04-07T10:30:52.000Z</time>
      </trkpt>
      <trkpt lat="45.31552" lon="6.16141">
        <ele>2371.8000488281</ele>
        <time>2013-04-07T10:30:57.000Z</time>
      </trkpt>
      <trkpt lat="45.31551" lon="6.16136">
        <ele>2372.1999511719</ele>
        <time>2013-04-07T10:31:01.000Z</time>
      </trkpt>
      <trkpt lat="45.31551" lon="6.16135">
        <ele>2372.3999023438</ele>
        <time>2013-04-07T10:31:02.000Z</time>
      </trkpt>
      <trkpt lat="45.31549" lon="6.16128">
        <ele>2373.1999511719</ele>
        <time>2013-04-07T10:31:08.000Z</time>
      </trkpt>
      <trkpt lat="45.31547" lon="6.16121">
        <ele>2373.6000976562</ele>
        <time>2013-04-07T10:31:14.000Z</time>
      </trkpt>
      <trkpt lat="45.31545" lon="6.16115">
        <ele>2374.1999511719</ele>
        <time>2013-04-07T10:31:19.000Z</time>
      </trkpt>
      <trkpt lat="45.31542" lon="6.16109">
        <ele>2374.8000488281</ele>
        <time>2013-04-07T10:31:25.000Z</time>
      </trkpt>
      <trkpt lat="45.31539" lon="6.16101">
        <ele>2375.1999511719</ele>
        <time>2013-04-07T10:31:31.000Z</time>
      </trkpt>
      <trkpt lat="45.31536" lon="6.16095">
        <ele>2375.3999023438</ele>
        <time>2013-04-07T10:31:36.000Z</time>
      </trkpt>
      <trkpt lat="45.31536" lon="6.16085">
        <ele>2375.6000976562</ele>
        <time>2013-04-07T10:31:43.000Z</time>
      </trkpt>
      <trkpt lat="45.31537" lon="6.16077">
        <ele>2376</ele>
        <time>2013-04-07T10:31:49.000Z</time>
      </trkpt>
      <trkpt lat="45.31538" lon="6.16073">
        <ele>2376.6000976562</ele>
        <time>2013-04-07T10:31:53.000Z</time>
      </trkpt>
      <trkpt lat="45.3154" lon="6.16066">
        <ele>2377.8000488281</ele>
        <time>2013-04-07T10:31:59.000Z</time>
      </trkpt>
      <trkpt lat="45.31542" lon="6.1606">
        <ele>2378.6000976562</ele>
        <time>2013-04-07T10:32:05.000Z</time>
      </trkpt>
      <trkpt lat="45.31543" lon="6.16055">
        <ele>2379.6000976562</ele>
        <time>2013-04-07T10:32:11.000Z</time>
      </trkpt>
      <trkpt lat="45.31544" lon="6.1605">
        <ele>2380.6000976562</ele>
        <time>2013-04-07T10:32:16.000Z</time>
      </trkpt>
      <trkpt lat="45.31545" lon="6.16046">
        <ele>2381.1999511719</ele>
        <time>2013-04-07T10:32:21.000Z</time>
      </trkpt>
      <trkpt lat="45.31546" lon="6.16042">
        <ele>2381.8000488281</ele>
        <time>2013-04-07T10:32:25.000Z</time>
      </trkpt>
      <trkpt lat="45.31546" lon="6.16038">
        <ele>2382.6000976562</ele>
        <time>2013-04-07T10:32:29.000Z</time>
      </trkpt>
      <trkpt lat="45.31547" lon="6.16033">
        <ele>2383.3999023438</ele>
        <time>2013-04-07T10:32:34.000Z</time>
      </trkpt>
      <trkpt lat="45.31547" lon="6.1603">
        <ele>2384</ele>
        <time>2013-04-07T10:32:38.000Z</time>
      </trkpt>
      <trkpt lat="45.31547" lon="6.16025">
        <ele>2384.8000488281</ele>
        <time>2013-04-07T10:32:43.000Z</time>
      </trkpt>
      <trkpt lat="45.31548" lon="6.16021">
        <ele>2385.6000976562</ele>
        <time>2013-04-07T10:32:47.000Z</time>
      </trkpt>
      <trkpt lat="45.31548" lon="6.16017">
        <ele>2386.3999023438</ele>
        <time>2013-04-07T10:32:52.000Z</time>
      </trkpt>
      <trkpt lat="45.3155" lon="6.16013">
        <ele>2387.3999023438</ele>
        <time>2013-04-07T10:32:57.000Z</time>
      </trkpt>
      <trkpt lat="45.31551" lon="6.16008">
        <ele>2388.8000488281</ele>
        <time>2013-04-07T10:33:03.000Z</time>
      </trkpt>
      <trkpt lat="45.31551" lon="6.16003">
        <ele>2390</ele>
        <time>2013-04-07T10:33:08.000Z</time>
      </trkpt>
      <trkpt lat="45.3155" lon="6.15998">
        <ele>2390.6000976562</ele>
        <time>2013-04-07T10:33:12.000Z</time>
      </trkpt>
      <trkpt lat="45.3155" lon="6.15994">
        <ele>2391.3999023438</ele>
        <time>2013-04-07T10:33:16.000Z</time>
      </trkpt>
      <trkpt lat="45.3155" lon="6.15988">
        <ele>2392.1999511719</ele>
        <time>2013-04-07T10:33:22.000Z</time>
      </trkpt>
      <trkpt lat="45.31549" lon="6.15982">
        <ele>2393.3999023438</ele>
        <time>2013-04-07T10:33:28.000Z</time>
      </trkpt>
      <trkpt lat="45.31547" lon="6.15977">
        <ele>2394.6000976562</ele>
        <time>2013-04-07T10:33:35.000Z</time>
      </trkpt>
      <trkpt lat="45.31546" lon="6.15975">
        <ele>2395</ele>
        <time>2013-04-07T10:33:37.000Z</time>
      </trkpt>
      <trkpt lat="45.31545" lon="6.15973">
        <ele>2396</ele>
        <time>2013-04-07T10:33:42.000Z</time>
      </trkpt>
      <trkpt lat="45.31542" lon="6.15971">
        <ele>2396</ele>
        <time>2013-04-07T10:33:51.000Z</time>
      </trkpt>
      <trkpt lat="45.31539" lon="6.15972">
        <ele>2397</ele>
        <time>2013-04-07T10:33:56.000Z</time>
      </trkpt>
      <trkpt lat="45.31535" lon="6.15971">
        <ele>2398</ele>
        <time>2013-04-07T10:34:00.000Z</time>
      </trkpt>
      <trkpt lat="45.31534" lon="6.15972">
        <ele>2398.3999023438</ele>
        <time>2013-04-07T10:34:04.000Z</time>
      </trkpt>
      <trkpt lat="45.31531" lon="6.15971">
        <ele>2397.8000488281</ele>
        <time>2013-04-07T10:34:11.000Z</time>
      </trkpt>
      <trkpt lat="45.31528" lon="6.1597">
        <ele>2397.8000488281</ele>
        <time>2013-04-07T10:34:15.000Z</time>
      </trkpt>
      <trkpt lat="45.31524" lon="6.15968">
        <ele>2397.1999511719</ele>
        <time>2013-04-07T10:34:22.000Z</time>
      </trkpt>
      <trkpt lat="45.31519" lon="6.15966">
        <ele>2396.8000488281</ele>
        <time>2013-04-07T10:34:28.000Z</time>
      </trkpt>
      <trkpt lat="45.31515" lon="6.15964">
        <ele>2396.3999023438</ele>
        <time>2013-04-07T10:34:33.000Z</time>
      </trkpt>
      <trkpt lat="45.31507" lon="6.15961">
        <ele>2395.3999023438</ele>
        <time>2013-04-07T10:34:41.000Z</time>
      </trkpt>
      <trkpt lat="45.315" lon="6.15956">
        <ele>2394.1999511719</ele>
        <time>2013-04-07T10:34:48.000Z</time>
      </trkpt>
      <trkpt lat="45.31497" lon="6.15955">
        <ele>2394</ele>
        <time>2013-04-07T10:34:51.000Z</time>
      </trkpt>
      <trkpt lat="45.31492" lon="6.15948">
        <ele>2394</ele>
        <time>2013-04-07T10:34:59.000Z</time>
      </trkpt>
      <trkpt lat="45.3149" lon="6.15946">
        <ele>2394</ele>
        <time>2013-04-07T10:35:01.000Z</time>
      </trkpt>
      <trkpt lat="45.31485" lon="6.15937">
        <ele>2394</ele>
        <time>2013-04-07T10:35:08.000Z</time>
      </trkpt>
      <trkpt lat="45.31481" lon="6.15928">
        <ele>2393.6000976562</ele>
        <time>2013-04-07T10:35:15.000Z</time>
      </trkpt>
      <trkpt lat="45.31479" lon="6.15919">
        <ele>2394</ele>
        <time>2013-04-07T10:35:22.000Z</time>
      </trkpt>
      <trkpt lat="45.31477" lon="6.15913">
        <ele>2394.1999511719</ele>
        <time>2013-04-07T10:35:29.000Z</time>
      </trkpt>
      <trkpt lat="45.31475" lon="6.15903">
        <ele>2394.3999023438</ele>
        <time>2013-04-07T10:35:36.000Z</time>
      </trkpt>
      <trkpt lat="45.31473" lon="6.15895">
        <ele>2394</ele>
        <time>2013-04-07T10:35:42.000Z</time>
      </trkpt>
      <trkpt lat="45.31472" lon="6.1589">
        <ele>2394.6000976562</ele>
        <time>2013-04-07T10:35:47.000Z</time>
      </trkpt>
      <trkpt lat="45.3147" lon="6.15883">
        <ele>2395</ele>
        <time>2013-04-07T10:35:52.000Z</time>
      </trkpt>
      <trkpt lat="45.31469" lon="6.15878">
        <ele>2395</ele>
        <time>2013-04-07T10:35:57.000Z</time>
      </trkpt>
      <trkpt lat="45.31469" lon="6.1587">
        <ele>2395.3999023438</ele>
        <time>2013-04-07T10:36:03.000Z</time>
      </trkpt>
      <trkpt lat="45.31468" lon="6.15862">
        <ele>2395.3999023438</ele>
        <time>2013-04-07T10:36:09.000Z</time>
      </trkpt>
      <trkpt lat="45.31469" lon="6.15855">
        <ele>2396</ele>
        <time>2013-04-07T10:36:15.000Z</time>
      </trkpt>
      <trkpt lat="45.3147" lon="6.15847">
        <ele>2396.3999023438</ele>
        <time>2013-04-07T10:36:21.000Z</time>
      </trkpt>
      <trkpt lat="45.31472" lon="6.15839">
        <ele>2397.1999511719</ele>
        <time>2013-04-07T10:36:27.000Z</time>
      </trkpt>
      <trkpt lat="45.31473" lon="6.15833">
        <ele>2398</ele>
        <time>2013-04-07T10:36:31.000Z</time>
      </trkpt>
      <trkpt lat="45.31471" lon="6.15827">
        <ele>2398.1999511719</ele>
        <time>2013-04-07T10:36:35.000Z</time>
      </trkpt>
      <trkpt lat="45.31473" lon="6.15817">
        <ele>2399.1999511719</ele>
        <time>2013-04-07T10:36:42.000Z</time>
      </trkpt>
      <trkpt lat="45.31475" lon="6.15814">
        <ele>2399.3999023438</ele>
        <time>2013-04-07T10:36:45.000Z</time>
      </trkpt>
      <trkpt lat="45.31478" lon="6.15808">
        <ele>2400</ele>
        <time>2013-04-07T10:36:50.000Z</time>
      </trkpt>
      <trkpt lat="45.3148" lon="6.158">
        <ele>2400.8000488281</ele>
        <time>2013-04-07T10:36:57.000Z</time>
      </trkpt>
      <trkpt lat="45.31481" lon="6.15794">
        <ele>2401.8000488281</ele>
        <time>2013-04-07T10:37:03.000Z</time>
      </trkpt>
      <trkpt lat="45.31483" lon="6.15791">
        <ele>2402.6000976562</ele>
        <time>2013-04-07T10:37:07.000Z</time>
      </trkpt>
      <trkpt lat="45.31486" lon="6.15786">
        <ele>2403.1999511719</ele>
        <time>2013-04-07T10:37:12.000Z</time>
      </trkpt>
      <trkpt lat="45.31488" lon="6.1578">
        <ele>2403.8000488281</ele>
        <time>2013-04-07T10:37:17.000Z</time>
      </trkpt>
      <trkpt lat="45.31489" lon="6.15775">
        <ele>2404.1999511719</ele>
        <time>2013-04-07T10:37:21.000Z</time>
      </trkpt>
      <trkpt lat="45.31491" lon="6.15768">
        <ele>2405</ele>
        <time>2013-04-07T10:37:27.000Z</time>
      </trkpt>
      <trkpt lat="45.31492" lon="6.15761">
        <ele>2406.3999023438</ele>
        <time>2013-04-07T10:37:33.000Z</time>
      </trkpt>
      <trkpt lat="45.31495" lon="6.15756">
        <ele>2407.3999023438</ele>
        <time>2013-04-07T10:37:39.000Z</time>
      </trkpt>
      <trkpt lat="45.31496" lon="6.15751">
        <ele>2408.6000976562</ele>
        <time>2013-04-07T10:37:45.000Z</time>
      </trkpt>
      <trkpt lat="45.31497" lon="6.15744">
        <ele>2410</ele>
        <time>2013-04-07T10:37:51.000Z</time>
      </trkpt>
      <trkpt lat="45.31498" lon="6.1574">
        <ele>2410.8000488281</ele>
        <time>2013-04-07T10:37:55.000Z</time>
      </trkpt>
      <trkpt lat="45.31497" lon="6.15738">
        <ele>2411.3999023438</ele>
        <time>2013-04-07T10:37:57.000Z</time>
      </trkpt>
      <trkpt lat="45.31495" lon="6.15736">
        <ele>2411.8000488281</ele>
        <time>2013-04-07T10:38:00.000Z</time>
      </trkpt>
      <trkpt lat="45.31491" lon="6.15734">
        <ele>2412.8000488281</ele>
        <time>2013-04-07T10:38:05.000Z</time>
      </trkpt>
      <trkpt lat="45.31489" lon="6.1573">
        <ele>2413.8000488281</ele>
        <time>2013-04-07T10:38:10.000Z</time>
      </trkpt>
      <trkpt lat="45.31487" lon="6.15725">
        <ele>2415</ele>
        <time>2013-04-07T10:38:16.000Z</time>
      </trkpt>
      <trkpt lat="45.31487" lon="6.15724">
        <ele>2415.3999023438</ele>
        <time>2013-04-07T10:38:17.000Z</time>
      </trkpt>
      <trkpt lat="45.31486" lon="6.15716">
        <ele>2416.8000488281</ele>
        <time>2013-04-07T10:38:24.000Z</time>
      </trkpt>
      <trkpt lat="45.31487" lon="6.15712">
        <ele>2417.6000976562</ele>
        <time>2013-04-07T10:38:29.000Z</time>
      </trkpt>
      <trkpt lat="45.3149" lon="6.15706">
        <ele>2419</ele>
        <time>2013-04-07T10:38:35.000Z</time>
      </trkpt>
      <trkpt lat="45.31489" lon="6.15703">
        <ele>2419.8000488281</ele>
        <time>2013-04-07T10:38:39.000Z</time>
      </trkpt>
      <trkpt lat="45.31487" lon="6.15699">
        <ele>2421</ele>
        <time>2013-04-07T10:38:44.000Z</time>
      </trkpt>
      <trkpt lat="45.31486" lon="6.15696">
        <ele>2421.8000488281</ele>
        <time>2013-04-07T10:38:48.000Z</time>
      </trkpt>
      <trkpt lat="45.31484" lon="6.15691">
        <ele>2422.6000976562</ele>
        <time>2013-04-07T10:38:53.000Z</time>
      </trkpt>
      <trkpt lat="45.31483" lon="6.15688">
        <ele>2423.8000488281</ele>
        <time>2013-04-07T10:38:58.000Z</time>
      </trkpt>
      <trkpt lat="45.3148" lon="6.15684">
        <ele>2424.6000976562</ele>
        <time>2013-04-07T10:39:02.000Z</time>
      </trkpt>
      <trkpt lat="45.31478" lon="6.1568">
        <ele>2425.6000976562</ele>
        <time>2013-04-07T10:39:08.000Z</time>
      </trkpt>
      <trkpt lat="45.31477" lon="6.15677">
        <ele>2426.6000976562</ele>
        <time>2013-04-07T10:39:12.000Z</time>
      </trkpt>
      <trkpt lat="45.31476" lon="6.15671">
        <ele>2427.6000976562</ele>
        <time>2013-04-07T10:39:19.000Z</time>
      </trkpt>
      <trkpt lat="45.31475" lon="6.15666">
        <ele>2428.6000976562</ele>
        <time>2013-04-07T10:39:24.000Z</time>
      </trkpt>
      <trkpt lat="45.31474" lon="6.15665">
        <ele>2428.8000488281</ele>
        <time>2013-04-07T10:39:25.000Z</time>
      </trkpt>
      <trkpt lat="45.31471" lon="6.15658">
        <ele>2429.8000488281</ele>
        <time>2013-04-07T10:39:32.000Z</time>
      </trkpt>
      <trkpt lat="45.3147" lon="6.15653">
        <ele>2430.6000976562</ele>
        <time>2013-04-07T10:39:37.000Z</time>
      </trkpt>
      <trkpt lat="45.3147" lon="6.15651">
        <ele>2431</ele>
        <time>2013-04-07T10:39:39.000Z</time>
      </trkpt>
      <trkpt lat="45.31465" lon="6.15646">
        <ele>2431.8000488281</ele>
        <time>2013-04-07T10:39:45.000Z</time>
      </trkpt>
      <trkpt lat="45.31462" lon="6.15641">
        <ele>2432.8000488281</ele>
        <time>2013-04-07T10:39:50.000Z</time>
      </trkpt>
      <trkpt lat="45.31463" lon="6.15638">
        <ele>2433.8000488281</ele>
        <time>2013-04-07T10:39:54.000Z</time>
      </trkpt>
      <trkpt lat="45.31465" lon="6.15632">
        <ele>2435.1999511719</ele>
        <time>2013-04-07T10:40:01.000Z</time>
      </trkpt>
      <trkpt lat="45.31468" lon="6.15627">
        <ele>2436.1999511719</ele>
        <time>2013-04-07T10:40:07.000Z</time>
      </trkpt>
      <trkpt lat="45.31469" lon="6.15622">
        <ele>2437.3999023438</ele>
        <time>2013-04-07T10:40:13.000Z</time>
      </trkpt>
      <trkpt lat="45.31473" lon="6.15616">
        <ele>2439</ele>
        <time>2013-04-07T10:40:20.000Z</time>
      </trkpt>
      <trkpt lat="45.31476" lon="6.1561">
        <ele>2440.6000976562</ele>
        <time>2013-04-07T10:40:27.000Z</time>
      </trkpt>
      <trkpt lat="45.31476" lon="6.15609">
        <ele>2440.8000488281</ele>
        <time>2013-04-07T10:40:28.000Z</time>
      </trkpt>
      <trkpt lat="45.31477" lon="6.15604">
        <ele>2441.8000488281</ele>
        <time>2013-04-07T10:40:33.000Z</time>
      </trkpt>
      <trkpt lat="45.31475" lon="6.15602">
        <ele>2442.1999511719</ele>
        <time>2013-04-07T10:40:35.000Z</time>
      </trkpt>
      <trkpt lat="45.31466" lon="6.156">
        <ele>2443.1999511719</ele>
        <time>2013-04-07T10:40:40.000Z</time>
      </trkpt>
      <trkpt lat="45.31461" lon="6.15596">
        <ele>2444.1999511719</ele>
        <time>2013-04-07T10:40:45.000Z</time>
      </trkpt>
      <trkpt lat="45.31459" lon="6.15592">
        <ele>2445.1999511719</ele>
        <time>2013-04-07T10:40:50.000Z</time>
      </trkpt>
      <trkpt lat="45.31458" lon="6.15587">
        <ele>2446.1999511719</ele>
        <time>2013-04-07T10:40:55.000Z</time>
      </trkpt>
      <trkpt lat="45.31458" lon="6.15582">
        <ele>2447.6000976562</ele>
        <time>2013-04-07T10:41:02.000Z</time>
      </trkpt>
      <trkpt lat="45.31457" lon="6.15577">
        <ele>2449.1999511719</ele>
        <time>2013-04-07T10:41:08.000Z</time>
      </trkpt>
      <trkpt lat="45.31455" lon="6.15573">
        <ele>2450.1999511719</ele>
        <time>2013-04-07T10:41:13.000Z</time>
      </trkpt>
      <trkpt lat="45.31453" lon="6.15569">
        <ele>2451.6000976562</ele>
        <time>2013-04-07T10:41:18.000Z</time>
      </trkpt>
      <trkpt lat="45.31453" lon="6.15564">
        <ele>2452.8000488281</ele>
        <time>2013-04-07T10:41:24.000Z</time>
      </trkpt>
      <trkpt lat="45.31455" lon="6.15561">
        <ele>2453.8000488281</ele>
        <time>2013-04-07T10:41:29.000Z</time>
      </trkpt>
      <trkpt lat="45.31457" lon="6.15558">
        <ele>2454.6000976562</ele>
        <time>2013-04-07T10:41:34.000Z</time>
      </trkpt>
      <trkpt lat="45.3146" lon="6.15554">
        <ele>2455.8000488281</ele>
        <time>2013-04-07T10:41:41.000Z</time>
      </trkpt>
      <trkpt lat="45.31461" lon="6.15551">
        <ele>2457</ele>
        <time>2013-04-07T10:41:46.000Z</time>
      </trkpt>
      <trkpt lat="45.31463" lon="6.15549">
        <ele>2457.6000976562</ele>
        <time>2013-04-07T10:41:50.000Z</time>
      </trkpt>
      <trkpt lat="45.31464" lon="6.15546">
        <ele>2458.6000976562</ele>
        <time>2013-04-07T10:41:55.000Z</time>
      </trkpt>
      <trkpt lat="45.31464" lon="6.15545">
        <ele>2459.3999023438</ele>
        <time>2013-04-07T10:42:00.000Z</time>
      </trkpt>
      <trkpt lat="45.31461" lon="6.15539">
        <ele>2460.8000488281</ele>
        <time>2013-04-07T10:42:07.000Z</time>
      </trkpt>
      <trkpt lat="45.31457" lon="6.15535">
        <ele>2461.8000488281</ele>
        <time>2013-04-07T10:42:12.000Z</time>
      </trkpt>
      <trkpt lat="45.31455" lon="6.15533">
        <ele>2462.6000976562</ele>
        <time>2013-04-07T10:42:16.000Z</time>
      </trkpt>
      <trkpt lat="45.31452" lon="6.15529">
        <ele>2464.1999511719</ele>
        <time>2013-04-07T10:42:23.000Z</time>
      </trkpt>
      <trkpt lat="45.31452" lon="6.15527">
        <ele>2465.3999023438</ele>
        <time>2013-04-07T10:42:28.000Z</time>
      </trkpt>
      <trkpt lat="45.31452" lon="6.15524">
        <ele>2466.1999511719</ele>
        <time>2013-04-07T10:42:32.000Z</time>
      </trkpt>
      <trkpt lat="45.31454" lon="6.15521">
        <ele>2467.3999023438</ele>
        <time>2013-04-07T10:42:37.000Z</time>
      </trkpt>
      <trkpt lat="45.31457" lon="6.15516">
        <ele>2468.3999023438</ele>
        <time>2013-04-07T10:42:44.000Z</time>
      </trkpt>
      <trkpt lat="45.31457" lon="6.15514">
        <ele>2468.6000976562</ele>
        <time>2013-04-07T10:42:46.000Z</time>
      </trkpt>
      <trkpt lat="45.31457" lon="6.15509">
        <ele>2469.3999023438</ele>
        <time>2013-04-07T10:42:51.000Z</time>
      </trkpt>
      <trkpt lat="45.31455" lon="6.15506">
        <ele>2471</ele>
        <time>2013-04-07T10:42:57.000Z</time>
      </trkpt>
      <trkpt lat="45.31452" lon="6.15503">
        <ele>2472.1999511719</ele>
        <time>2013-04-07T10:43:03.000Z</time>
      </trkpt>
      <trkpt lat="45.31451" lon="6.155">
        <ele>2472.8000488281</ele>
        <time>2013-04-07T10:43:07.000Z</time>
      </trkpt>
      <trkpt lat="45.31449" lon="6.15497">
        <ele>2474.1999511719</ele>
        <time>2013-04-07T10:43:13.000Z</time>
      </trkpt>
      <trkpt lat="45.31448" lon="6.15491">
        <ele>2475.6000976562</ele>
        <time>2013-04-07T10:43:19.000Z</time>
      </trkpt>
      <trkpt lat="45.31446" lon="6.15485">
        <ele>2477.1999511719</ele>
        <time>2013-04-07T10:43:25.000Z</time>
      </trkpt>
      <trkpt lat="45.31448" lon="6.1548">
        <ele>2478.3999023438</ele>
        <time>2013-04-07T10:43:31.000Z</time>
      </trkpt>
      <trkpt lat="45.31449" lon="6.15477">
        <ele>2479.3999023438</ele>
        <time>2013-04-07T10:43:37.000Z</time>
      </trkpt>
      <trkpt lat="45.31446" lon="6.15476">
        <ele>2480.1999511719</ele>
        <time>2013-04-07T10:44:39.000Z</time>
      </trkpt>
      <trkpt lat="45.31445" lon="6.15471">
        <ele>2480.6000976562</ele>
        <time>2013-04-07T10:44:48.000Z</time>
      </trkpt>
      <trkpt lat="45.31442" lon="6.15467">
        <ele>2481.6000976562</ele>
        <time>2013-04-07T10:44:52.000Z</time>
      </trkpt>
      <trkpt lat="45.31436" lon="6.15462">
        <ele>2483.1999511719</ele>
        <time>2013-04-07T10:44:59.000Z</time>
      </trkpt>
      <trkpt lat="45.31436" lon="6.15459">
        <ele>2484.1999511719</ele>
        <time>2013-04-07T10:45:03.000Z</time>
      </trkpt>
      <trkpt lat="45.31435" lon="6.15456">
        <ele>2485.1999511719</ele>
        <time>2013-04-07T10:45:07.000Z</time>
      </trkpt>
      <trkpt lat="45.31433" lon="6.15453">
        <ele>2485.8000488281</ele>
        <time>2013-04-07T10:45:11.000Z</time>
      </trkpt>
      <trkpt lat="45.3143" lon="6.1545">
        <ele>2486.8000488281</ele>
        <time>2013-04-07T10:45:15.000Z</time>
      </trkpt>
      <trkpt lat="45.3143" lon="6.15447">
        <ele>2487.8000488281</ele>
        <time>2013-04-07T10:45:19.000Z</time>
      </trkpt>
      <trkpt lat="45.31427" lon="6.15446">
        <ele>2488.6000976562</ele>
        <time>2013-04-07T10:45:23.000Z</time>
      </trkpt>
      <trkpt lat="45.31425" lon="6.15445">
        <ele>2489.6000976562</ele>
        <time>2013-04-07T10:45:27.000Z</time>
      </trkpt>
      <trkpt lat="45.31428" lon="6.15443">
        <ele>2490.8000488281</ele>
        <time>2013-04-07T10:45:32.000Z</time>
      </trkpt>
      <trkpt lat="45.31438" lon="6.15442">
        <ele>2491.1999511719</ele>
        <time>2013-04-07T10:45:43.000Z</time>
      </trkpt>
      <trkpt lat="45.31441" lon="6.15442">
        <ele>2492.3999023438</ele>
        <time>2013-04-07T10:45:49.000Z</time>
      </trkpt>
      <trkpt lat="45.31445" lon="6.15441">
        <ele>2493.6000976562</ele>
        <time>2013-04-07T10:45:56.000Z</time>
      </trkpt>
      <trkpt lat="45.31448" lon="6.15441">
        <ele>2494.6000976562</ele>
        <time>2013-04-07T10:46:02.000Z</time>
      </trkpt>
      <trkpt lat="45.3145" lon="6.1544">
        <ele>2496</ele>
        <time>2013-04-07T10:46:08.000Z</time>
      </trkpt>
      <trkpt lat="45.31452" lon="6.15442">
        <ele>2498</ele>
        <time>2013-04-07T10:46:16.000Z</time>
      </trkpt>
      <trkpt lat="45.31452" lon="6.15438">
        <ele>2498.8000488281</ele>
        <time>2013-04-07T10:46:23.000Z</time>
      </trkpt>
      <trkpt lat="45.31451" lon="6.15436">
        <ele>2499</ele>
        <time>2013-04-07T10:46:25.000Z</time>
      </trkpt>
      <trkpt lat="45.31447" lon="6.15432">
        <ele>2499.3999023438</ele>
        <time>2013-04-07T10:46:30.000Z</time>
      </trkpt>
      <trkpt lat="45.31444" lon="6.15429">
        <ele>2500.6000976562</ele>
        <time>2013-04-07T10:46:35.000Z</time>
      </trkpt>
      <trkpt lat="45.31443" lon="6.15426">
        <ele>2501.3999023438</ele>
        <time>2013-04-07T10:46:39.000Z</time>
      </trkpt>
      <trkpt lat="45.31441" lon="6.15421">
        <ele>2502.8000488281</ele>
        <time>2013-04-07T10:46:46.000Z</time>
      </trkpt>
      <trkpt lat="45.3144" lon="6.15419">
        <ele>2503.8000488281</ele>
        <time>2013-04-07T10:46:50.000Z</time>
      </trkpt>
      <trkpt lat="45.31438" lon="6.15417">
        <ele>2504.3999023438</ele>
        <time>2013-04-07T10:46:54.000Z</time>
      </trkpt>
      <trkpt lat="45.31436" lon="6.15413">
        <ele>2505.3999023438</ele>
        <time>2013-04-07T10:47:00.000Z</time>
      </trkpt>
      <trkpt lat="45.31434" lon="6.15411">
        <ele>2506</ele>
        <time>2013-04-07T10:47:04.000Z</time>
      </trkpt>
      <trkpt lat="45.31433" lon="6.15408">
        <ele>2507</ele>
        <time>2013-04-07T10:47:10.000Z</time>
      </trkpt>
      <trkpt lat="45.3143" lon="6.15407">
        <ele>2508.1999511719</ele>
        <time>2013-04-07T10:47:14.000Z</time>
      </trkpt>
      <trkpt lat="45.31429" lon="6.15406">
        <ele>2508.8000488281</ele>
        <time>2013-04-07T10:47:18.000Z</time>
      </trkpt>
      <trkpt lat="45.31431" lon="6.15403">
        <ele>2510</ele>
        <time>2013-04-07T10:47:26.000Z</time>
      </trkpt>
      <trkpt lat="45.31437" lon="6.15401">
        <ele>2511</ele>
        <time>2013-04-07T10:47:33.000Z</time>
      </trkpt>
      <trkpt lat="45.31441" lon="6.154">
        <ele>2512.1999511719</ele>
        <time>2013-04-07T10:47:39.000Z</time>
      </trkpt>
      <trkpt lat="45.31446" lon="6.154">
        <ele>2513.1999511719</ele>
        <time>2013-04-07T10:47:46.000Z</time>
      </trkpt>
      <trkpt lat="45.3145" lon="6.154">
        <ele>2514.8000488281</ele>
        <time>2013-04-07T10:47:54.000Z</time>
      </trkpt>
      <trkpt lat="45.31454" lon="6.15399">
        <ele>2516.3999023438</ele>
        <time>2013-04-07T10:48:01.000Z</time>
      </trkpt>
      <trkpt lat="45.31457" lon="6.15401">
        <ele>2517.3999023438</ele>
        <time>2013-04-07T10:48:06.000Z</time>
      </trkpt>
      <trkpt lat="45.31458" lon="6.15401">
        <ele>2518.8000488281</ele>
        <time>2013-04-07T10:48:13.000Z</time>
      </trkpt>
      <trkpt lat="45.31456" lon="6.15396">
        <ele>2519.6000976562</ele>
        <time>2013-04-07T10:48:20.000Z</time>
      </trkpt>
      <trkpt lat="45.31452" lon="6.15391">
        <ele>2520.3999023438</ele>
        <time>2013-04-07T10:48:26.000Z</time>
      </trkpt>
      <trkpt lat="45.3145" lon="6.1539">
        <ele>2520.8000488281</ele>
        <time>2013-04-07T10:48:29.000Z</time>
      </trkpt>
      <trkpt lat="45.31444" lon="6.15383">
        <ele>2521.8000488281</ele>
        <time>2013-04-07T10:48:37.000Z</time>
      </trkpt>
      <trkpt lat="45.3144" lon="6.1538">
        <ele>2522.8000488281</ele>
        <time>2013-04-07T10:48:44.000Z</time>
      </trkpt>
      <trkpt lat="45.31438" lon="6.15379">
        <ele>2523.8000488281</ele>
        <time>2013-04-07T10:48:49.000Z</time>
      </trkpt>
      <trkpt lat="45.31434" lon="6.15379">
        <ele>2525.1999511719</ele>
        <time>2013-04-07T10:48:55.000Z</time>
      </trkpt>
      <trkpt lat="45.31432" lon="6.15377">
        <ele>2525.8000488281</ele>
        <time>2013-04-07T10:49:00.000Z</time>
      </trkpt>
      <trkpt lat="45.31432" lon="6.15376">
        <ele>2526.8000488281</ele>
        <time>2013-04-07T10:49:04.000Z</time>
      </trkpt>
      <trkpt lat="45.31434" lon="6.15374">
        <ele>2527.8000488281</ele>
        <time>2013-04-07T10:49:09.000Z</time>
      </trkpt>
      <trkpt lat="45.31437" lon="6.15375">
        <ele>2528.3999023438</ele>
        <time>2013-04-07T10:49:15.000Z</time>
      </trkpt>
      <trkpt lat="45.3144" lon="6.15374">
        <ele>2529.1999511719</ele>
        <time>2013-04-07T11:01:43.000Z</time>
      </trkpt>
      <trkpt lat="45.31442" lon="6.15376">
        <ele>2529.3999023438</ele>
        <time>2013-04-07T11:02:46.000Z</time>
      </trkpt>
      <trkpt lat="45.3144" lon="6.15375">
        <ele>2529.1999511719</ele>
        <time>2013-04-07T11:03:28.000Z</time>
      </trkpt>
      <trkpt lat="45.31439" lon="6.15376">
        <ele>2528.8000488281</ele>
        <time>2013-04-07T11:03:30.000Z</time>
      </trkpt>
      <trkpt lat="45.31437" lon="6.15379">
        <ele>2528.1999511719</ele>
        <time>2013-04-07T11:03:37.000Z</time>
      </trkpt>
      <trkpt lat="45.31438" lon="6.15376">
        <ele>2528.1999511719</ele>
        <time>2013-04-07T11:04:14.000Z</time>
      </trkpt>
      <trkpt lat="45.31435" lon="6.15382">
        <ele>2528.3999023438</ele>
        <time>2013-04-07T11:05:20.000Z</time>
      </trkpt>
      <trkpt lat="45.31435" lon="6.15378">
        <ele>2528.1999511719</ele>
        <time>2013-04-07T11:06:39.000Z</time>
      </trkpt>
      <trkpt lat="45.31441" lon="6.15374">
        <ele>2528.1999511719</ele>
        <time>2013-04-07T11:08:29.000Z</time>
      </trkpt>
      <trkpt lat="45.31436" lon="6.15375">
        <ele>2528.6000976562</ele>
        <time>2013-04-07T11:18:26.000Z</time>
      </trkpt>
      <trkpt lat="45.31438" lon="6.15376">
        <ele>2528.8000488281</ele>
        <time>2013-04-07T11:18:44.000Z</time>
      </trkpt>
      <trkpt lat="45.31442" lon="6.15375">
        <ele>2529.1999511719</ele>
        <time>2013-04-07T11:19:09.000Z</time>
      </trkpt>
      <trkpt lat="45.31442" lon="6.15376">
        <ele>2529.3999023438</ele>
        <time>2013-04-07T11:19:45.000Z</time>
      </trkpt>
      <trkpt lat="45.31441" lon="6.15376">
        <ele>2529.3999023438</ele>
        <time>2013-04-07T11:23:15.000Z</time>
      </trkpt>
      <trkpt lat="45.31436" lon="6.15374">
        <ele>2529.1999511719</ele>
        <time>2013-04-07T11:23:19.000Z</time>
      </trkpt>
      <trkpt lat="45.31432" lon="6.15366">
        <ele>2526.6000976562</ele>
        <time>2013-04-07T11:23:24.000Z</time>
      </trkpt>
      <trkpt lat="45.31432" lon="6.15363">
        <ele>2523.1999511719</ele>
        <time>2013-04-07T11:23:28.000Z</time>
      </trkpt>
      <trkpt lat="45.31433" lon="6.15364">
        <ele>2521.8000488281</ele>
        <time>2013-04-07T11:23:31.000Z</time>
      </trkpt>
      <trkpt lat="45.31445" lon="6.15377">
        <ele>2521.6000976562</ele>
        <time>2013-04-07T11:26:17.000Z</time>
      </trkpt>
      <trkpt lat="45.31436" lon="6.15378">
        <ele>2520.8000488281</ele>
        <time>2013-04-07T11:26:21.000Z</time>
      </trkpt>
      <trkpt lat="45.31434" lon="6.15376">
        <ele>2519.1999511719</ele>
        <time>2013-04-07T11:26:24.000Z</time>
      </trkpt>
      <trkpt lat="45.31433" lon="6.15363">
        <ele>2516.3999023438</ele>
        <time>2013-04-07T11:26:28.000Z</time>
      </trkpt>
      <trkpt lat="45.31438" lon="6.15351">
        <ele>2514.8000488281</ele>
        <time>2013-04-07T11:26:31.000Z</time>
      </trkpt>
      <trkpt lat="45.31438" lon="6.15345">
        <ele>2512.1999511719</ele>
        <time>2013-04-07T11:26:34.000Z</time>
      </trkpt>
      <trkpt lat="45.31429" lon="6.15346">
        <ele>2509.3999023438</ele>
        <time>2013-04-07T11:26:37.000Z</time>
      </trkpt>
      <trkpt lat="45.31425" lon="6.1534">
        <ele>2506.8000488281</ele>
        <time>2013-04-07T11:26:40.000Z</time>
      </trkpt>
      <trkpt lat="45.31415" lon="6.15329">
        <ele>2503.3999023438</ele>
        <time>2013-04-07T11:26:43.000Z</time>
      </trkpt>
      <trkpt lat="45.31407" lon="6.15329">
        <ele>2502.1999511719</ele>
        <time>2013-04-07T11:26:44.000Z</time>
      </trkpt>
      <trkpt lat="45.31378" lon="6.1531">
        <ele>2495.6000976562</ele>
        <time>2013-04-07T11:26:49.000Z</time>
      </trkpt>
      <trkpt lat="45.3136" lon="6.15288">
        <ele>2491.3999023438</ele>
        <time>2013-04-07T11:26:55.000Z</time>
      </trkpt>
      <trkpt lat="45.31343" lon="6.15274">
        <ele>2489.3999023438</ele>
        <time>2013-04-07T11:27:00.000Z</time>
      </trkpt>
      <trkpt lat="45.31341" lon="6.15272">
        <ele>2487.6000976562</ele>
        <time>2013-04-07T11:27:04.000Z</time>
      </trkpt>
      <trkpt lat="45.31344" lon="6.1527">
        <ele>2487</ele>
        <time>2013-04-07T11:27:25.000Z</time>
      </trkpt>
      <trkpt lat="45.31342" lon="6.15265">
        <ele>2487</ele>
        <time>2013-04-07T11:27:28.000Z</time>
      </trkpt>
      <trkpt lat="45.31346" lon="6.1526">
        <ele>2485.1999511719</ele>
        <time>2013-04-07T11:27:32.000Z</time>
      </trkpt>
      <trkpt lat="45.3135" lon="6.15248">
        <ele>2482.3999023438</ele>
        <time>2013-04-07T11:27:35.000Z</time>
      </trkpt>
      <trkpt lat="45.31352" lon="6.15243">
        <ele>2478.6000976562</ele>
        <time>2013-04-07T11:27:38.000Z</time>
      </trkpt>
      <trkpt lat="45.31353" lon="6.1523">
        <ele>2474.1999511719</ele>
        <time>2013-04-07T11:27:41.000Z</time>
      </trkpt>
      <trkpt lat="45.31344" lon="6.15222">
        <ele>2469.8000488281</ele>
        <time>2013-04-07T11:27:44.000Z</time>
      </trkpt>
      <trkpt lat="45.31349" lon="6.15213">
        <ele>2466.8000488281</ele>
        <time>2013-04-07T11:27:47.000Z</time>
      </trkpt>
      <trkpt lat="45.31341" lon="6.15186">
        <ele>2461.8000488281</ele>
        <time>2013-04-07T11:27:50.000Z</time>
      </trkpt>
      <trkpt lat="45.31339" lon="6.15184">
        <ele>2458.3999023438</ele>
        <time>2013-04-07T11:27:52.000Z</time>
      </trkpt>
      <trkpt lat="45.31336" lon="6.15159">
        <ele>2450.1999511719</ele>
        <time>2013-04-07T11:27:56.000Z</time>
      </trkpt>
      <trkpt lat="45.31334" lon="6.15162">
        <ele>2444.3999023438</ele>
        <time>2013-04-07T11:27:59.000Z</time>
      </trkpt>
      <trkpt lat="45.31323" lon="6.15144">
        <ele>2439.1999511719</ele>
        <time>2013-04-07T11:28:04.000Z</time>
      </trkpt>
      <trkpt lat="45.31319" lon="6.15143">
        <ele>2439</ele>
        <time>2013-04-07T11:28:05.000Z</time>
      </trkpt>
      <trkpt lat="45.31312" lon="6.15137">
        <ele>2437.1999511719</ele>
        <time>2013-04-07T11:28:08.000Z</time>
      </trkpt>
      <trkpt lat="45.31324" lon="6.15122">
        <ele>2434.1999511719</ele>
        <time>2013-04-07T11:28:12.000Z</time>
      </trkpt>
      <trkpt lat="45.31303" lon="6.15118">
        <ele>2427.8000488281</ele>
        <time>2013-04-07T11:28:16.000Z</time>
      </trkpt>
      <trkpt lat="45.31305" lon="6.15107">
        <ele>2422.8000488281</ele>
        <time>2013-04-07T11:28:19.000Z</time>
      </trkpt>
      <trkpt lat="45.31294" lon="6.15091">
        <ele>2417.6000976562</ele>
        <time>2013-04-07T11:28:22.000Z</time>
      </trkpt>
      <trkpt lat="45.31277" lon="6.15088">
        <ele>2414</ele>
        <time>2013-04-07T11:28:24.000Z</time>
      </trkpt>
      <trkpt lat="45.31267" lon="6.15087">
        <ele>2410.6000976562</ele>
        <time>2013-04-07T11:28:26.000Z</time>
      </trkpt>
      <trkpt lat="45.3127" lon="6.1506">
        <ele>2404.6000976562</ele>
        <time>2013-04-07T11:28:30.000Z</time>
      </trkpt>
      <trkpt lat="45.31277" lon="6.15045">
        <ele>2401.1999511719</ele>
        <time>2013-04-07T11:28:32.000Z</time>
      </trkpt>
      <trkpt lat="45.31255" lon="6.15018">
        <ele>2392.6000976562</ele>
        <time>2013-04-07T11:28:37.000Z</time>
      </trkpt>
      <trkpt lat="45.31243" lon="6.1502">
        <ele>2388</ele>
        <time>2013-04-07T11:28:40.000Z</time>
      </trkpt>
      <trkpt lat="45.31241" lon="6.14999">
        <ele>2384</ele>
        <time>2013-04-07T11:28:43.000Z</time>
      </trkpt>
      <trkpt lat="45.31233" lon="6.14987">
        <ele>2379.3999023438</ele>
        <time>2013-04-07T11:28:46.000Z</time>
      </trkpt>
      <trkpt lat="45.31245" lon="6.14972">
        <ele>2374.3999023438</ele>
        <time>2013-04-07T11:28:49.000Z</time>
      </trkpt>
      <trkpt lat="45.3124" lon="6.14953">
        <ele>2369.1999511719</ele>
        <time>2013-04-07T11:28:52.000Z</time>
      </trkpt>
      <trkpt lat="45.3123" lon="6.14957">
        <ele>2366.3999023438</ele>
        <time>2013-04-07T11:28:54.000Z</time>
      </trkpt>
      <trkpt lat="45.31225" lon="6.14953">
        <ele>2365.1999511719</ele>
        <time>2013-04-07T11:28:55.000Z</time>
      </trkpt>
      <trkpt lat="45.31207" lon="6.14942">
        <ele>2362</ele>
        <time>2013-04-07T11:28:58.000Z</time>
      </trkpt>
      <trkpt lat="45.31196" lon="6.14933">
        <ele>2358.3999023438</ele>
        <time>2013-04-07T11:29:02.000Z</time>
      </trkpt>
      <trkpt lat="45.31199" lon="6.14928">
        <ele>2358.3999023438</ele>
        <time>2013-04-07T11:29:03.000Z</time>
      </trkpt>
      <trkpt lat="45.31192" lon="6.14896">
        <ele>2354.1999511719</ele>
        <time>2013-04-07T11:29:06.000Z</time>
      </trkpt>
      <trkpt lat="45.31173" lon="6.1488">
        <ele>2349</ele>
        <time>2013-04-07T11:29:09.000Z</time>
      </trkpt>
      <trkpt lat="45.31171" lon="6.14855">
        <ele>2341.6000976562</ele>
        <time>2013-04-07T11:29:14.000Z</time>
      </trkpt>
      <trkpt lat="45.31169" lon="6.14817">
        <ele>2336.3999023438</ele>
        <time>2013-04-07T11:29:17.000Z</time>
      </trkpt>
      <trkpt lat="45.31156" lon="6.148">
        <ele>2330.8000488281</ele>
        <time>2013-04-07T11:29:20.000Z</time>
      </trkpt>
      <trkpt lat="45.31148" lon="6.14792">
        <ele>2328</ele>
        <time>2013-04-07T11:29:22.000Z</time>
      </trkpt>
      <trkpt lat="45.31128" lon="6.14769">
        <ele>2324.3999023438</ele>
        <time>2013-04-07T11:29:28.000Z</time>
      </trkpt>
      <trkpt lat="45.31126" lon="6.14767">
        <ele>2323.8000488281</ele>
        <time>2013-04-07T11:29:29.000Z</time>
      </trkpt>
      <trkpt lat="45.31131" lon="6.14753">
        <ele>2320.8000488281</ele>
        <time>2013-04-07T11:29:33.000Z</time>
      </trkpt>
      <trkpt lat="45.31127" lon="6.14734">
        <ele>2316.3999023438</ele>
        <time>2013-04-07T11:29:36.000Z</time>
      </trkpt>
      <trkpt lat="45.31121" lon="6.1471">
        <ele>2311</ele>
        <time>2013-04-07T11:29:39.000Z</time>
      </trkpt>
      <trkpt lat="45.31105" lon="6.1469">
        <ele>2304.8000488281</ele>
        <time>2013-04-07T11:29:42.000Z</time>
      </trkpt>
      <trkpt lat="45.31086" lon="6.14678">
        <ele>2300</ele>
        <time>2013-04-07T11:29:45.000Z</time>
      </trkpt>
      <trkpt lat="45.31067" lon="6.14674">
        <ele>2295.8000488281</ele>
        <time>2013-04-07T11:29:49.000Z</time>
      </trkpt>
      <trkpt lat="45.31052" lon="6.14667">
        <ele>2293.3999023438</ele>
        <time>2013-04-07T11:29:54.000Z</time>
      </trkpt>
      <trkpt lat="45.31042" lon="6.14635">
        <ele>2290.3999023438</ele>
        <time>2013-04-07T11:29:58.000Z</time>
      </trkpt>
      <trkpt lat="45.31036" lon="6.14617">
        <ele>2286.3999023438</ele>
        <time>2013-04-07T11:30:01.000Z</time>
      </trkpt>
      <trkpt lat="45.31029" lon="6.14601">
        <ele>2281.3999023438</ele>
        <time>2013-04-07T11:30:04.000Z</time>
      </trkpt>
      <trkpt lat="45.31023" lon="6.14587">
        <ele>2277.3999023438</ele>
        <time>2013-04-07T11:30:07.000Z</time>
      </trkpt>
      <trkpt lat="45.31018" lon="6.14577">
        <ele>2272.6000976562</ele>
        <time>2013-04-07T11:30:10.000Z</time>
      </trkpt>
      <trkpt lat="45.31009" lon="6.14563">
        <ele>2267</ele>
        <time>2013-04-07T11:30:13.000Z</time>
      </trkpt>
      <trkpt lat="45.31" lon="6.14544">
        <ele>2260.3999023438</ele>
        <time>2013-04-07T11:30:16.000Z</time>
      </trkpt>
      <trkpt lat="45.30992" lon="6.14536">
        <ele>2258</ele>
        <time>2013-04-07T11:30:18.000Z</time>
      </trkpt>
      <trkpt lat="45.30989" lon="6.14517">
        <ele>2250.3999023438</ele>
        <time>2013-04-07T11:30:21.000Z</time>
      </trkpt>
      <trkpt lat="45.30979" lon="6.14508">
        <ele>2244.3999023438</ele>
        <time>2013-04-07T11:30:23.000Z</time>
      </trkpt>
      <trkpt lat="45.3097" lon="6.14507">
        <ele>2236</ele>
        <time>2013-04-07T11:30:26.000Z</time>
      </trkpt>
      <trkpt lat="45.30965" lon="6.1448">
        <ele>2228</ele>
        <time>2013-04-07T11:30:29.000Z</time>
      </trkpt>
      <trkpt lat="45.30952" lon="6.14465">
        <ele>2222.6000976562</ele>
        <time>2013-04-07T11:30:31.000Z</time>
      </trkpt>
      <trkpt lat="45.30918" lon="6.14433">
        <ele>2212.6000976562</ele>
        <time>2013-04-07T11:30:36.000Z</time>
      </trkpt>
      <trkpt lat="45.30908" lon="6.14421">
        <ele>2210.3999023438</ele>
        <time>2013-04-07T11:30:39.000Z</time>
      </trkpt>
      <trkpt lat="45.30902" lon="6.14398">
        <ele>2209.1999511719</ele>
        <time>2013-04-07T11:30:43.000Z</time>
      </trkpt>
      <trkpt lat="45.30894" lon="6.14379">
        <ele>2208.3999023438</ele>
        <time>2013-04-07T11:30:49.000Z</time>
      </trkpt>
      <trkpt lat="45.30888" lon="6.14365">
        <ele>2209.6000976562</ele>
        <time>2013-04-07T11:35:40.000Z</time>
      </trkpt>
      <trkpt lat="45.30891" lon="6.14378">
        <ele>2211.3999023438</ele>
        <time>2013-04-07T11:36:37.000Z</time>
      </trkpt>
      <trkpt lat="45.30882" lon="6.14374">
        <ele>2213.3999023438</ele>
        <time>2013-04-07T11:38:39.000Z</time>
      </trkpt>
      <trkpt lat="45.3088" lon="6.14377">
        <ele>2214.1999511719</ele>
        <time>2013-04-07T11:38:46.000Z</time>
      </trkpt>
      <trkpt lat="45.30876" lon="6.14379">
        <ele>2218.1999511719</ele>
        <time>2013-04-07T11:39:04.000Z</time>
      </trkpt>
      <trkpt lat="45.30876" lon="6.14378">
        <ele>2218.6000976562</ele>
        <time>2013-04-07T11:39:09.000Z</time>
      </trkpt>
      <trkpt lat="45.30872" lon="6.14377">
        <ele>2220</ele>
        <time>2013-04-07T11:39:16.000Z</time>
      </trkpt>
      <trkpt lat="45.3087" lon="6.14371">
        <ele>2220.1999511719</ele>
        <time>2013-04-07T11:39:25.000Z</time>
      </trkpt>
      <trkpt lat="45.3087" lon="6.14366">
        <ele>2220.3999023438</ele>
        <time>2013-04-07T11:39:35.000Z</time>
      </trkpt>
      <trkpt lat="45.30866" lon="6.14367">
        <ele>2221</ele>
        <time>2013-04-07T11:39:39.000Z</time>
      </trkpt>
      <trkpt lat="45.30863" lon="6.14367">
        <ele>2222</ele>
        <time>2013-04-07T11:39:43.000Z</time>
      </trkpt>
      <trkpt lat="45.30858" lon="6.14368">
        <ele>2223.6000976562</ele>
        <time>2013-04-07T11:39:50.000Z</time>
      </trkpt>
      <trkpt lat="45.30854" lon="6.14364">
        <ele>2224.6000976562</ele>
        <time>2013-04-07T11:39:54.000Z</time>
      </trkpt>
      <trkpt lat="45.30851" lon="6.14362">
        <ele>2225.3999023438</ele>
        <time>2013-04-07T11:40:00.000Z</time>
      </trkpt>
      <trkpt lat="45.30846" lon="6.14361">
        <ele>2226.6000976562</ele>
        <time>2013-04-07T11:40:07.000Z</time>
      </trkpt>
      <trkpt lat="45.30842" lon="6.14359">
        <ele>2227.3999023438</ele>
        <time>2013-04-07T11:40:11.000Z</time>
      </trkpt>
      <trkpt lat="45.30837" lon="6.14355">
        <ele>2228</ele>
        <time>2013-04-07T11:40:16.000Z</time>
      </trkpt>
      <trkpt lat="45.30833" lon="6.1435">
        <ele>2229</ele>
        <time>2013-04-07T11:40:22.000Z</time>
      </trkpt>
      <trkpt lat="45.30829" lon="6.14347">
        <ele>2229.8000488281</ele>
        <time>2013-04-07T11:40:29.000Z</time>
      </trkpt>
      <trkpt lat="45.30824" lon="6.14345">
        <ele>2231</ele>
        <time>2013-04-07T11:40:35.000Z</time>
      </trkpt>
      <trkpt lat="45.30821" lon="6.14344">
        <ele>2231.8000488281</ele>
        <time>2013-04-07T11:40:39.000Z</time>
      </trkpt>
      <trkpt lat="45.30818" lon="6.14344">
        <ele>2233.3999023438</ele>
        <time>2013-04-07T11:40:45.000Z</time>
      </trkpt>
      <trkpt lat="45.30813" lon="6.14342">
        <ele>2234.6000976562</ele>
        <time>2013-04-07T11:40:53.000Z</time>
      </trkpt>
      <trkpt lat="45.30812" lon="6.14342">
        <ele>2234.8000488281</ele>
        <time>2013-04-07T11:40:54.000Z</time>
      </trkpt>
      <trkpt lat="45.30812" lon="6.14345">
        <ele>2235.6000976562</ele>
        <time>2013-04-07T11:40:58.000Z</time>
      </trkpt>
      <trkpt lat="45.30818" lon="6.1437">
        <ele>2237.1999511719</ele>
        <time>2013-04-07T11:41:06.000Z</time>
      </trkpt>
      <trkpt lat="45.30818" lon="6.14379">
        <ele>2237.8000488281</ele>
        <time>2013-04-07T11:41:10.000Z</time>
      </trkpt>
      <trkpt lat="45.30818" lon="6.14382">
        <ele>2238.6000976562</ele>
        <time>2013-04-07T11:41:13.000Z</time>
      </trkpt>
      <trkpt lat="45.30817" lon="6.14395">
        <ele>2240</ele>
        <time>2013-04-07T11:41:21.000Z</time>
      </trkpt>
      <trkpt lat="45.30815" lon="6.14403">
        <ele>2240.8000488281</ele>
        <time>2013-04-07T11:41:25.000Z</time>
      </trkpt>
      <trkpt lat="45.30815" lon="6.14406">
        <ele>2242</ele>
        <time>2013-04-07T11:41:30.000Z</time>
      </trkpt>
      <trkpt lat="45.30815" lon="6.14407">
        <ele>2242.6000976562</ele>
        <time>2013-04-07T11:41:34.000Z</time>
      </trkpt>
      <trkpt lat="45.30816" lon="6.1441">
        <ele>2243.3999023438</ele>
        <time>2013-04-07T11:41:38.000Z</time>
      </trkpt>
      <trkpt lat="45.30812" lon="6.14401">
        <ele>2244.8000488281</ele>
        <time>2013-04-07T11:41:46.000Z</time>
      </trkpt>
      <trkpt lat="45.30812" lon="6.144">
        <ele>2245</ele>
        <time>2013-04-07T11:41:47.000Z</time>
      </trkpt>
      <trkpt lat="45.30808" lon="6.14393">
        <ele>2246.6000976562</ele>
        <time>2013-04-07T11:41:55.000Z</time>
      </trkpt>
      <trkpt lat="45.30803" lon="6.14388">
        <ele>2247.8000488281</ele>
        <time>2013-04-07T11:42:02.000Z</time>
      </trkpt>
      <trkpt lat="45.308" lon="6.14385">
        <ele>2248.1999511719</ele>
        <time>2013-04-07T11:42:06.000Z</time>
      </trkpt>
      <trkpt lat="45.30798" lon="6.14384">
        <ele>2248.6000976562</ele>
        <time>2013-04-07T11:42:08.000Z</time>
      </trkpt>
      <trkpt lat="45.30797" lon="6.14383">
        <ele>2248.8000488281</ele>
        <time>2013-04-07T11:42:10.000Z</time>
      </trkpt>
      <trkpt lat="45.30793" lon="6.1438">
        <ele>2249.8000488281</ele>
        <time>2013-04-07T11:42:15.000Z</time>
      </trkpt>
      <trkpt lat="45.30789" lon="6.14375">
        <ele>2250.6000976562</ele>
        <time>2013-04-07T11:42:20.000Z</time>
      </trkpt>
      <trkpt lat="45.30785" lon="6.14372">
        <ele>2251.6000976562</ele>
        <time>2013-04-07T11:42:25.000Z</time>
      </trkpt>
      <trkpt lat="45.30778" lon="6.14365">
        <ele>2253</ele>
        <time>2013-04-07T11:42:32.000Z</time>
      </trkpt>
      <trkpt lat="45.30775" lon="6.14365">
        <ele>2254.1999511719</ele>
        <time>2013-04-07T11:42:37.000Z</time>
      </trkpt>
      <trkpt lat="45.30772" lon="6.14362">
        <ele>2255.3999023438</ele>
        <time>2013-04-07T11:42:43.000Z</time>
      </trkpt>
      <trkpt lat="45.30771" lon="6.14363">
        <ele>2256.6000976562</ele>
        <time>2013-04-07T11:42:49.000Z</time>
      </trkpt>
      <trkpt lat="45.30769" lon="6.14373">
        <ele>2259.8000488281</ele>
        <time>2013-04-07T11:47:57.000Z</time>
      </trkpt>
      <trkpt lat="45.30767" lon="6.14363">
        <ele>2261</ele>
        <time>2013-04-07T11:48:49.000Z</time>
      </trkpt>
      <trkpt lat="45.30763" lon="6.14358">
        <ele>2261.8000488281</ele>
        <time>2013-04-07T11:48:56.000Z</time>
      </trkpt>
      <trkpt lat="45.30759" lon="6.14355">
        <ele>2262.8000488281</ele>
        <time>2013-04-07T11:49:01.000Z</time>
      </trkpt>
      <trkpt lat="45.30754" lon="6.1435">
        <ele>2263.8000488281</ele>
        <time>2013-04-07T11:49:07.000Z</time>
      </trkpt>
      <trkpt lat="45.30747" lon="6.14344">
        <ele>2265.3999023438</ele>
        <time>2013-04-07T11:49:15.000Z</time>
      </trkpt>
      <trkpt lat="45.30741" lon="6.14339">
        <ele>2266.6000976562</ele>
        <time>2013-04-07T11:49:22.000Z</time>
      </trkpt>
      <trkpt lat="45.30739" lon="6.14337">
        <ele>2267.3999023438</ele>
        <time>2013-04-07T11:49:26.000Z</time>
      </trkpt>
      <trkpt lat="45.30737" lon="6.14343">
        <ele>2268.6000976562</ele>
        <time>2013-04-07T11:49:32.000Z</time>
      </trkpt>
      <trkpt lat="45.30737" lon="6.14353">
        <ele>2269.6000976562</ele>
        <time>2013-04-07T11:49:37.000Z</time>
      </trkpt>
      <trkpt lat="45.30738" lon="6.1436">
        <ele>2270.1999511719</ele>
        <time>2013-04-07T11:49:41.000Z</time>
      </trkpt>
      <trkpt lat="45.30738" lon="6.14368">
        <ele>2270.8000488281</ele>
        <time>2013-04-07T11:49:46.000Z</time>
      </trkpt>
      <trkpt lat="45.30738" lon="6.14373">
        <ele>2271.8000488281</ele>
        <time>2013-04-07T11:49:51.000Z</time>
      </trkpt>
      <trkpt lat="45.30738" lon="6.14379">
        <ele>2273</ele>
        <time>2013-04-07T11:49:57.000Z</time>
      </trkpt>
      <trkpt lat="45.30738" lon="6.14386">
        <ele>2274</ele>
        <time>2013-04-07T11:50:02.000Z</time>
      </trkpt>
      <trkpt lat="45.30738" lon="6.14392">
        <ele>2274.8000488281</ele>
        <time>2013-04-07T11:50:07.000Z</time>
      </trkpt>
      <trkpt lat="45.3074" lon="6.144">
        <ele>2275.8000488281</ele>
        <time>2013-04-07T11:50:13.000Z</time>
      </trkpt>
      <trkpt lat="45.30741" lon="6.14404">
        <ele>2276.6000976562</ele>
        <time>2013-04-07T11:50:17.000Z</time>
      </trkpt>
      <trkpt lat="45.30741" lon="6.1441">
        <ele>2277.1999511719</ele>
        <time>2013-04-07T11:50:21.000Z</time>
      </trkpt>
      <trkpt lat="45.30741" lon="6.14409">
        <ele>2278.6000976562</ele>
        <time>2013-04-07T11:50:28.000Z</time>
      </trkpt>
      <trkpt lat="45.3074" lon="6.14408">
        <ele>2278.8000488281</ele>
        <time>2013-04-07T11:50:29.000Z</time>
      </trkpt>
      <trkpt lat="45.30736" lon="6.14395">
        <ele>2279.8000488281</ele>
        <time>2013-04-07T11:50:35.000Z</time>
      </trkpt>
      <trkpt lat="45.30731" lon="6.14386">
        <ele>2280.8000488281</ele>
        <time>2013-04-07T11:50:41.000Z</time>
      </trkpt>
      <trkpt lat="45.30725" lon="6.14381">
        <ele>2282.1999511719</ele>
        <time>2013-04-07T11:50:48.000Z</time>
      </trkpt>
      <trkpt lat="45.3072" lon="6.14377">
        <ele>2283.8000488281</ele>
        <time>2013-04-07T11:50:55.000Z</time>
      </trkpt>
      <trkpt lat="45.30714" lon="6.14374">
        <ele>2284.8000488281</ele>
        <time>2013-04-07T11:51:02.000Z</time>
      </trkpt>
      <trkpt lat="45.30714" lon="6.14374">
        <ele>2285.3999023438</ele>
        <time>2013-04-07T11:51:06.000Z</time>
      </trkpt>
      <trkpt lat="45.30713" lon="6.1437">
        <ele>2286.8000488281</ele>
        <time>2013-04-07T11:51:12.000Z</time>
      </trkpt>
      <trkpt lat="45.30706" lon="6.14364">
        <ele>2288.3999023438</ele>
        <time>2013-04-07T11:51:21.000Z</time>
      </trkpt>
      <trkpt lat="45.30707" lon="6.14368">
        <ele>2288.8000488281</ele>
        <time>2013-04-07T11:51:23.000Z</time>
      </trkpt>
      <trkpt lat="45.30707" lon="6.14382">
        <ele>2290.3999023438</ele>
        <time>2013-04-07T11:51:31.000Z</time>
      </trkpt>
      <trkpt lat="45.30706" lon="6.14385">
        <ele>2290.8000488281</ele>
        <time>2013-04-07T11:51:33.000Z</time>
      </trkpt>
      <trkpt lat="45.30705" lon="6.14392">
        <ele>2292.6000976562</ele>
        <time>2013-04-07T11:51:40.000Z</time>
      </trkpt>
      <trkpt lat="45.30706" lon="6.14397">
        <ele>2293.6000976562</ele>
        <time>2013-04-07T11:51:45.000Z</time>
      </trkpt>
      <trkpt lat="45.30707" lon="6.14405">
        <ele>2294.3999023438</ele>
        <time>2013-04-07T11:51:51.000Z</time>
      </trkpt>
      <trkpt lat="45.30708" lon="6.14409">
        <ele>2294.8000488281</ele>
        <time>2013-04-07T11:51:54.000Z</time>
      </trkpt>
      <trkpt lat="45.30709" lon="6.14415">
        <ele>2296</ele>
        <time>2013-04-07T11:51:59.000Z</time>
      </trkpt>
      <trkpt lat="45.30711" lon="6.14419">
        <ele>2296.8000488281</ele>
        <time>2013-04-07T11:52:03.000Z</time>
      </trkpt>
      <trkpt lat="45.30711" lon="6.14428">
        <ele>2297.8000488281</ele>
        <time>2013-04-07T11:52:08.000Z</time>
      </trkpt>
      <trkpt lat="45.30711" lon="6.14435">
        <ele>2298.8000488281</ele>
        <time>2013-04-07T11:52:13.000Z</time>
      </trkpt>
      <trkpt lat="45.30712" lon="6.1444">
        <ele>2299.6000976562</ele>
        <time>2013-04-07T11:52:18.000Z</time>
      </trkpt>
      <trkpt lat="45.30713" lon="6.14443">
        <ele>2300.6000976562</ele>
        <time>2013-04-07T11:52:23.000Z</time>
      </trkpt>
      <trkpt lat="45.30715" lon="6.14448">
        <ele>2301.6000976562</ele>
        <time>2013-04-07T11:52:28.000Z</time>
      </trkpt>
      <trkpt lat="45.30716" lon="6.14452">
        <ele>2302.3999023438</ele>
        <time>2013-04-07T11:52:32.000Z</time>
      </trkpt>
      <trkpt lat="45.30717" lon="6.14454">
        <ele>2303</ele>
        <time>2013-04-07T11:52:36.000Z</time>
      </trkpt>
      <trkpt lat="45.30718" lon="6.14456">
        <ele>2303.6000976562</ele>
        <time>2013-04-07T11:52:40.000Z</time>
      </trkpt>
      <trkpt lat="45.30719" lon="6.14461">
        <ele>2304.8000488281</ele>
        <time>2013-04-07T11:52:46.000Z</time>
      </trkpt>
      <trkpt lat="45.3072" lon="6.14461">
        <ele>2306</ele>
        <time>2013-04-07T11:52:52.000Z</time>
      </trkpt>
      <trkpt lat="45.30716" lon="6.14455">
        <ele>2306.8000488281</ele>
        <time>2013-04-07T11:52:58.000Z</time>
      </trkpt>
      <trkpt lat="45.3071" lon="6.14449">
        <ele>2308</ele>
        <time>2013-04-07T11:53:05.000Z</time>
      </trkpt>
      <trkpt lat="45.30705" lon="6.14444">
        <ele>2309.1999511719</ele>
        <time>2013-04-07T11:53:11.000Z</time>
      </trkpt>
      <trkpt lat="45.30701" lon="6.14443">
        <ele>2310.3999023438</ele>
        <time>2013-04-07T11:53:18.000Z</time>
      </trkpt>
      <trkpt lat="45.30694" lon="6.1444">
        <ele>2312.1999511719</ele>
        <time>2013-04-07T11:53:27.000Z</time>
      </trkpt>
      <trkpt lat="45.30692" lon="6.14439">
        <ele>2313.1999511719</ele>
        <time>2013-04-07T11:53:33.000Z</time>
      </trkpt>
      <trkpt lat="45.30688" lon="6.14436">
        <ele>2314</ele>
        <time>2013-04-07T11:53:38.000Z</time>
      </trkpt>
      <trkpt lat="45.30686" lon="6.14437">
        <ele>2314.8000488281</ele>
        <time>2013-04-07T11:53:44.000Z</time>
      </trkpt>
      <trkpt lat="45.30687" lon="6.14443">
        <ele>2315.8000488281</ele>
        <time>2013-04-07T11:53:49.000Z</time>
      </trkpt>
      <trkpt lat="45.3069" lon="6.14451">
        <ele>2316.6000976562</ele>
        <time>2013-04-07T11:53:54.000Z</time>
      </trkpt>
      <trkpt lat="45.30691" lon="6.14458">
        <ele>2317.3999023438</ele>
        <time>2013-04-07T11:53:59.000Z</time>
      </trkpt>
      <trkpt lat="45.30694" lon="6.14466">
        <ele>2319.1999511719</ele>
        <time>2013-04-07T11:54:05.000Z</time>
      </trkpt>
      <trkpt lat="45.30695" lon="6.14468">
        <ele>2319.6000976562</ele>
        <time>2013-04-07T11:54:07.000Z</time>
      </trkpt>
      <trkpt lat="45.30698" lon="6.14474">
        <ele>2320.8000488281</ele>
        <time>2013-04-07T11:54:13.000Z</time>
      </trkpt>
      <trkpt lat="45.30701" lon="6.14481">
        <ele>2322</ele>
        <time>2013-04-07T11:54:19.000Z</time>
      </trkpt>
      <trkpt lat="45.30701" lon="6.14484">
        <ele>2322.8000488281</ele>
        <time>2013-04-07T11:54:24.000Z</time>
      </trkpt>
      <trkpt lat="45.30702" lon="6.14484">
        <ele>2323.1999511719</ele>
        <time>2013-04-07T11:54:26.000Z</time>
      </trkpt>
      <trkpt lat="45.30703" lon="6.14486">
        <ele>2324</ele>
        <time>2013-04-07T11:54:31.000Z</time>
      </trkpt>
      <trkpt lat="45.30702" lon="6.14489">
        <ele>2324.8000488281</ele>
        <time>2013-04-07T11:54:35.000Z</time>
      </trkpt>
      <trkpt lat="45.30703" lon="6.14494">
        <ele>2325.8000488281</ele>
        <time>2013-04-07T11:54:41.000Z</time>
      </trkpt>
      <trkpt lat="45.30705" lon="6.14502">
        <ele>2326.8000488281</ele>
        <time>2013-04-07T11:54:47.000Z</time>
      </trkpt>
      <trkpt lat="45.30704" lon="6.14507">
        <ele>2327.8000488281</ele>
        <time>2013-04-07T11:54:52.000Z</time>
      </trkpt>
      <trkpt lat="45.30705" lon="6.14512">
        <ele>2328.8000488281</ele>
        <time>2013-04-07T11:54:57.000Z</time>
      </trkpt>
      <trkpt lat="45.30704" lon="6.14515">
        <ele>2330.1999511719</ele>
        <time>2013-04-07T11:55:04.000Z</time>
      </trkpt>
      <trkpt lat="45.30704" lon="6.14513">
        <ele>2330.3999023438</ele>
        <time>2013-04-07T11:55:06.000Z</time>
      </trkpt>
      <trkpt lat="45.30699" lon="6.14501">
        <ele>2331</ele>
        <time>2013-04-07T11:55:13.000Z</time>
      </trkpt>
      <trkpt lat="45.30697" lon="6.14499">
        <ele>2331.6000976562</ele>
        <time>2013-04-07T11:55:15.000Z</time>
      </trkpt>
      <trkpt lat="45.30691" lon="6.14493">
        <ele>2333.3999023438</ele>
        <time>2013-04-07T11:55:23.000Z</time>
      </trkpt>
      <trkpt lat="45.30686" lon="6.1449">
        <ele>2334.3999023438</ele>
        <time>2013-04-07T11:55:29.000Z</time>
      </trkpt>
      <trkpt lat="45.30684" lon="6.14489">
        <ele>2335</ele>
        <time>2013-04-07T11:55:32.000Z</time>
      </trkpt>
      <trkpt lat="45.3068" lon="6.14489">
        <ele>2336.3999023438</ele>
        <time>2013-04-07T11:55:39.000Z</time>
      </trkpt>
      <trkpt lat="45.30675" lon="6.14486">
        <ele>2337.3999023438</ele>
        <time>2013-04-07T11:55:45.000Z</time>
      </trkpt>
      <trkpt lat="45.30672" lon="6.14487">
        <ele>2338.6000976562</ele>
        <time>2013-04-07T11:55:50.000Z</time>
      </trkpt>
      <trkpt lat="45.30669" lon="6.1449">
        <ele>2339.6000976562</ele>
        <time>2013-04-07T11:55:56.000Z</time>
      </trkpt>
      <trkpt lat="45.30666" lon="6.14493">
        <ele>2340.6000976562</ele>
        <time>2013-04-07T11:56:02.000Z</time>
      </trkpt>
      <trkpt lat="45.30663" lon="6.14492">
        <ele>2341.1999511719</ele>
        <time>2013-04-07T11:56:07.000Z</time>
      </trkpt>
      <trkpt lat="45.30657" lon="6.14487">
        <ele>2342.1999511719</ele>
        <time>2013-04-07T11:56:13.000Z</time>
      </trkpt>
      <trkpt lat="45.30652" lon="6.14483">
        <ele>2343.3999023438</ele>
        <time>2013-04-07T11:56:19.000Z</time>
      </trkpt>
      <trkpt lat="45.30647" lon="6.14478">
        <ele>2344.3999023438</ele>
        <time>2013-04-07T11:56:25.000Z</time>
      </trkpt>
      <trkpt lat="45.30642" lon="6.14473">
        <ele>2345.3999023438</ele>
        <time>2013-04-07T11:56:31.000Z</time>
      </trkpt>
      <trkpt lat="45.30639" lon="6.14467">
        <ele>2346.8000488281</ele>
        <time>2013-04-07T11:56:38.000Z</time>
      </trkpt>
      <trkpt lat="45.30639" lon="6.14465">
        <ele>2347.8000488281</ele>
        <time>2013-04-07T11:56:44.000Z</time>
      </trkpt>
      <trkpt lat="45.30639" lon="6.14462">
        <ele>2348.3999023438</ele>
        <time>2013-04-07T11:56:48.000Z</time>
      </trkpt>
      <trkpt lat="45.30637" lon="6.14459">
        <ele>2349.3999023438</ele>
        <time>2013-04-07T11:56:52.000Z</time>
      </trkpt>
      <trkpt lat="45.30633" lon="6.14454">
        <ele>2350.6000976562</ele>
        <time>2013-04-07T11:56:58.000Z</time>
      </trkpt>
      <trkpt lat="45.30629" lon="6.14449">
        <ele>2351.1999511719</ele>
        <time>2013-04-07T11:57:02.000Z</time>
      </trkpt>
      <trkpt lat="45.30626" lon="6.14448">
        <ele>2352.8000488281</ele>
        <time>2013-04-07T11:57:09.000Z</time>
      </trkpt>
      <trkpt lat="45.30626" lon="6.14462">
        <ele>2354.6000976562</ele>
        <time>2013-04-07T11:57:16.000Z</time>
      </trkpt>
      <trkpt lat="45.30625" lon="6.14468">
        <ele>2355.1999511719</ele>
        <time>2013-04-07T11:57:22.000Z</time>
      </trkpt>
      <trkpt lat="45.30624" lon="6.14476">
        <ele>2356.6000976562</ele>
        <time>2013-04-07T11:57:28.000Z</time>
      </trkpt>
      <trkpt lat="45.30623" lon="6.14481">
        <ele>2357.8000488281</ele>
        <time>2013-04-07T11:57:33.000Z</time>
      </trkpt>
      <trkpt lat="45.30621" lon="6.14478">
        <ele>2358.8000488281</ele>
        <time>2013-04-07T11:57:39.000Z</time>
      </trkpt>
      <trkpt lat="45.30616" lon="6.14468">
        <ele>2360.1999511719</ele>
        <time>2013-04-07T11:57:48.000Z</time>
      </trkpt>
      <trkpt lat="45.30615" lon="6.14464">
        <ele>2361</ele>
        <time>2013-04-07T11:57:53.000Z</time>
      </trkpt>
      <trkpt lat="45.30612" lon="6.14458">
        <ele>2362</ele>
        <time>2013-04-07T11:57:58.000Z</time>
      </trkpt>
      <trkpt lat="45.30606" lon="6.14452">
        <ele>2363.1999511719</ele>
        <time>2013-04-07T11:58:05.000Z</time>
      </trkpt>
      <trkpt lat="45.30602" lon="6.14447">
        <ele>2364.3999023438</ele>
        <time>2013-04-07T11:58:12.000Z</time>
      </trkpt>
      <trkpt lat="45.30602" lon="6.14452">
        <ele>2365.1999511719</ele>
        <time>2013-04-07T11:58:16.000Z</time>
      </trkpt>
      <trkpt lat="45.30602" lon="6.14465">
        <ele>2366.3999023438</ele>
        <time>2013-04-07T11:58:24.000Z</time>
      </trkpt>
      <trkpt lat="45.30602" lon="6.14473">
        <ele>2367.6000976562</ele>
        <time>2013-04-07T11:58:30.000Z</time>
      </trkpt>
      <trkpt lat="45.30601" lon="6.14478">
        <ele>2368.3999023438</ele>
        <time>2013-04-07T11:58:35.000Z</time>
      </trkpt>
      <trkpt lat="45.30601" lon="6.14484">
        <ele>2369.3999023438</ele>
        <time>2013-04-07T11:58:40.000Z</time>
      </trkpt>
      <trkpt lat="45.306" lon="6.14488">
        <ele>2370.3999023438</ele>
        <time>2013-04-07T11:58:45.000Z</time>
      </trkpt>
      <trkpt lat="45.306" lon="6.14493">
        <ele>2371.3999023438</ele>
        <time>2013-04-07T11:58:50.000Z</time>
      </trkpt>
      <trkpt lat="45.30598" lon="6.14497">
        <ele>2372.6000976562</ele>
        <time>2013-04-07T11:58:56.000Z</time>
      </trkpt>
      <trkpt lat="45.30597" lon="6.14502">
        <ele>2373.3999023438</ele>
        <time>2013-04-07T11:59:02.000Z</time>
      </trkpt>
      <trkpt lat="45.30597" lon="6.1451">
        <ele>2375</ele>
        <time>2013-04-07T11:59:09.000Z</time>
      </trkpt>
      <trkpt lat="45.30597" lon="6.14513">
        <ele>2375.8000488281</ele>
        <time>2013-04-07T11:59:13.000Z</time>
      </trkpt>
      <trkpt lat="45.30598" lon="6.14518">
        <ele>2376.6000976562</ele>
        <time>2013-04-07T11:59:18.000Z</time>
      </trkpt>
      <trkpt lat="45.30598" lon="6.14522">
        <ele>2377.3999023438</ele>
        <time>2013-04-07T11:59:22.000Z</time>
      </trkpt>
      <trkpt lat="45.30599" lon="6.14525">
        <ele>2378</ele>
        <time>2013-04-07T11:59:26.000Z</time>
      </trkpt>
      <trkpt lat="45.306" lon="6.14531">
        <ele>2379</ele>
        <time>2013-04-07T11:59:31.000Z</time>
      </trkpt>
      <trkpt lat="45.30602" lon="6.14536">
        <ele>2379.8000488281</ele>
        <time>2013-04-07T11:59:36.000Z</time>
      </trkpt>
      <trkpt lat="45.30604" lon="6.14542">
        <ele>2381</ele>
        <time>2013-04-07T11:59:42.000Z</time>
      </trkpt>
      <trkpt lat="45.30605" lon="6.14545">
        <ele>2381.6000976562</ele>
        <time>2013-04-07T11:59:46.000Z</time>
      </trkpt>
      <trkpt lat="45.30603" lon="6.14544">
        <ele>2382.3999023438</ele>
        <time>2013-04-07T11:59:51.000Z</time>
      </trkpt>
      <trkpt lat="45.30597" lon="6.1454">
        <ele>2383.6000976562</ele>
        <time>2013-04-07T11:59:59.000Z</time>
      </trkpt>
      <trkpt lat="45.30592" lon="6.14533">
        <ele>2384.6000976562</ele>
        <time>2013-04-07T12:00:05.000Z</time>
      </trkpt>
      <trkpt lat="45.30588" lon="6.14529">
        <ele>2385.3999023438</ele>
        <time>2013-04-07T12:00:10.000Z</time>
      </trkpt>
      <trkpt lat="45.30584" lon="6.14525">
        <ele>2386.3999023438</ele>
        <time>2013-04-07T12:00:17.000Z</time>
      </trkpt>
      <trkpt lat="45.30579" lon="6.14523">
        <ele>2387.6000976562</ele>
        <time>2013-04-07T12:00:23.000Z</time>
      </trkpt>
      <trkpt lat="45.30577" lon="6.14519">
        <ele>2388.6000976562</ele>
        <time>2013-04-07T12:00:28.000Z</time>
      </trkpt>
      <trkpt lat="45.30574" lon="6.14516">
        <ele>2389.1999511719</ele>
        <time>2013-04-07T12:00:32.000Z</time>
      </trkpt>
      <trkpt lat="45.30571" lon="6.14512">
        <ele>2390.1999511719</ele>
        <time>2013-04-07T12:00:38.000Z</time>
      </trkpt>
      <trkpt lat="45.30568" lon="6.14509">
        <ele>2390.8000488281</ele>
        <time>2013-04-07T12:00:43.000Z</time>
      </trkpt>
      <trkpt lat="45.30569" lon="6.14515">
        <ele>2391.6000976562</ele>
        <time>2013-04-07T12:00:49.000Z</time>
      </trkpt>
      <trkpt lat="45.3057" lon="6.14522">
        <ele>2392.3999023438</ele>
        <time>2013-04-07T12:00:54.000Z</time>
      </trkpt>
      <trkpt lat="45.30572" lon="6.14527">
        <ele>2393.1999511719</ele>
        <time>2013-04-07T12:00:58.000Z</time>
      </trkpt>
      <trkpt lat="45.30573" lon="6.14533">
        <ele>2394.1999511719</ele>
        <time>2013-04-07T12:01:03.000Z</time>
      </trkpt>
      <trkpt lat="45.30573" lon="6.14537">
        <ele>2394.8000488281</ele>
        <time>2013-04-07T12:01:07.000Z</time>
      </trkpt>
      <trkpt lat="45.30573" lon="6.14543">
        <ele>2395.6000976562</ele>
        <time>2013-04-07T12:01:12.000Z</time>
      </trkpt>
      <trkpt lat="45.30574" lon="6.14549">
        <ele>2396.6000976562</ele>
        <time>2013-04-07T12:01:17.000Z</time>
      </trkpt>
      <trkpt lat="45.30574" lon="6.14554">
        <ele>2397.1999511719</ele>
        <time>2013-04-07T12:01:21.000Z</time>
      </trkpt>
      <trkpt lat="45.30575" lon="6.14559">
        <ele>2398.1999511719</ele>
        <time>2013-04-07T12:01:26.000Z</time>
      </trkpt>
      <trkpt lat="45.30575" lon="6.14564">
        <ele>2399</ele>
        <time>2013-04-07T12:01:30.000Z</time>
      </trkpt>
      <trkpt lat="45.30576" lon="6.1457">
        <ele>2399.8000488281</ele>
        <time>2013-04-07T12:01:35.000Z</time>
      </trkpt>
      <trkpt lat="45.30577" lon="6.14576">
        <ele>2400.6000976562</ele>
        <time>2013-04-07T12:01:39.000Z</time>
      </trkpt>
      <trkpt lat="45.30578" lon="6.14581">
        <ele>2401.3999023438</ele>
        <time>2013-04-07T12:01:43.000Z</time>
      </trkpt>
      <trkpt lat="45.3058" lon="6.14589">
        <ele>2402.6000976562</ele>
        <time>2013-04-07T12:01:49.000Z</time>
      </trkpt>
      <trkpt lat="45.30582" lon="6.14594">
        <ele>2403.6000976562</ele>
        <time>2013-04-07T12:01:55.000Z</time>
      </trkpt>
      <trkpt lat="45.30583" lon="6.14599">
        <ele>2404.6000976562</ele>
        <time>2013-04-07T12:02:01.000Z</time>
      </trkpt>
      <trkpt lat="45.30584" lon="6.14604">
        <ele>2405.6000976562</ele>
        <time>2013-04-07T12:02:05.000Z</time>
      </trkpt>
      <trkpt lat="45.30584" lon="6.14608">
        <ele>2406.6000976562</ele>
        <time>2013-04-07T12:02:10.000Z</time>
      </trkpt>
      <trkpt lat="45.30585" lon="6.14611">
        <ele>2407.6000976562</ele>
        <time>2013-04-07T12:02:16.000Z</time>
      </trkpt>
      <trkpt lat="45.30586" lon="6.14614">
        <ele>2408.6000976562</ele>
        <time>2013-04-07T12:02:21.000Z</time>
      </trkpt>
      <trkpt lat="45.30586" lon="6.14616">
        <ele>2409</ele>
        <time>2013-04-07T12:02:25.000Z</time>
      </trkpt>
      <trkpt lat="45.30585" lon="6.14616">
        <ele>2409.3999023438</ele>
        <time>2013-04-07T12:02:27.000Z</time>
      </trkpt>
      <trkpt lat="45.30579" lon="6.14616">
        <ele>2410.3999023438</ele>
        <time>2013-04-07T12:02:33.000Z</time>
      </trkpt>
      <trkpt lat="45.30575" lon="6.14615">
        <ele>2411.6000976562</ele>
        <time>2013-04-07T12:02:41.000Z</time>
      </trkpt>
      <trkpt lat="45.3057" lon="6.14614">
        <ele>2412.6000976562</ele>
        <time>2013-04-07T12:02:47.000Z</time>
      </trkpt>
      <trkpt lat="45.30568" lon="6.14614">
        <ele>2412.6000976562</ele>
        <time>2013-04-07T12:02:49.000Z</time>
      </trkpt>
      <trkpt lat="45.30563" lon="6.14621">
        <ele>2413.8000488281</ele>
        <time>2013-04-07T12:02:56.000Z</time>
      </trkpt>
      <trkpt lat="45.30557" lon="6.14625">
        <ele>2414.1999511719</ele>
        <time>2013-04-07T12:03:02.000Z</time>
      </trkpt>
      <trkpt lat="45.30553" lon="6.14629">
        <ele>2415.1999511719</ele>
        <time>2013-04-07T12:03:08.000Z</time>
      </trkpt>
      <trkpt lat="45.30548" lon="6.14629">
        <ele>2416</ele>
        <time>2013-04-07T12:03:13.000Z</time>
      </trkpt>
      <trkpt lat="45.30544" lon="6.14633">
        <ele>2417.1999511719</ele>
        <time>2013-04-07T12:03:19.000Z</time>
      </trkpt>
      <trkpt lat="45.3054" lon="6.14636">
        <ele>2418.3999023438</ele>
        <time>2013-04-07T12:03:24.000Z</time>
      </trkpt>
      <trkpt lat="45.30537" lon="6.14638">
        <ele>2419.6000976562</ele>
        <time>2013-04-07T12:03:29.000Z</time>
      </trkpt>
      <trkpt lat="45.30536" lon="6.14641">
        <ele>2421.1999511719</ele>
        <time>2013-04-07T12:03:35.000Z</time>
      </trkpt>
      <trkpt lat="45.30534" lon="6.14643">
        <ele>2422</ele>
        <time>2013-04-07T12:03:39.000Z</time>
      </trkpt>
      <trkpt lat="45.30532" lon="6.14648">
        <ele>2423.6000976562</ele>
        <time>2013-04-07T12:03:45.000Z</time>
      </trkpt>
      <trkpt lat="45.3053" lon="6.14651">
        <ele>2424.1999511719</ele>
        <time>2013-04-07T12:03:49.000Z</time>
      </trkpt>
      <trkpt lat="45.30529" lon="6.14655">
        <ele>2425</ele>
        <time>2013-04-07T12:03:53.000Z</time>
      </trkpt>
      <trkpt lat="45.30527" lon="6.1466">
        <ele>2426.3999023438</ele>
        <time>2013-04-07T12:03:59.000Z</time>
      </trkpt>
      <trkpt lat="45.30526" lon="6.14663">
        <ele>2426.8000488281</ele>
        <time>2013-04-07T12:04:03.000Z</time>
      </trkpt>
      <trkpt lat="45.30525" lon="6.14667">
        <ele>2427.8000488281</ele>
        <time>2013-04-07T12:04:07.000Z</time>
      </trkpt>
      <trkpt lat="45.30523" lon="6.14671">
        <ele>2428.8000488281</ele>
        <time>2013-04-07T12:04:12.000Z</time>
      </trkpt>
      <trkpt lat="45.30522" lon="6.14674">
        <ele>2429.8000488281</ele>
        <time>2013-04-07T12:04:16.000Z</time>
      </trkpt>
      <trkpt lat="45.30521" lon="6.14677">
        <ele>2430.8000488281</ele>
        <time>2013-04-07T12:04:20.000Z</time>
      </trkpt>
      <trkpt lat="45.3052" lon="6.14683">
        <ele>2432</ele>
        <time>2013-04-07T12:04:27.000Z</time>
      </trkpt>
      <trkpt lat="45.30519" lon="6.14686">
        <ele>2432.1999511719</ele>
        <time>2013-04-07T12:04:29.000Z</time>
      </trkpt>
      <trkpt lat="45.30519" lon="6.14689">
        <ele>2433.3999023438</ele>
        <time>2013-04-07T12:04:34.000Z</time>
      </trkpt>
      <trkpt lat="45.30519" lon="6.14692">
        <ele>2434.1999511719</ele>
        <time>2013-04-07T12:04:38.000Z</time>
      </trkpt>
      <trkpt lat="45.3052" lon="6.14694">
        <ele>2435</ele>
        <time>2013-04-07T12:04:42.000Z</time>
      </trkpt>
      <trkpt lat="45.30521" lon="6.14697">
        <ele>2436</ele>
        <time>2013-04-07T12:04:47.000Z</time>
      </trkpt>
      <trkpt lat="45.30521" lon="6.14701">
        <ele>2437</ele>
        <time>2013-04-07T12:04:52.000Z</time>
      </trkpt>
      <trkpt lat="45.30523" lon="6.14704">
        <ele>2438</ele>
        <time>2013-04-07T12:04:56.000Z</time>
      </trkpt>
      <trkpt lat="45.3052" lon="6.147">
        <ele>2438.8000488281</ele>
        <time>2013-04-07T12:05:02.000Z</time>
      </trkpt>
      <trkpt lat="45.30519" lon="6.147">
        <ele>2439</ele>
        <time>2013-04-07T12:05:03.000Z</time>
      </trkpt>
      <trkpt lat="45.30513" lon="6.14696">
        <ele>2440.3999023438</ele>
        <time>2013-04-07T12:05:11.000Z</time>
      </trkpt>
      <trkpt lat="45.30512" lon="6.14695">
        <ele>2440.8000488281</ele>
        <time>2013-04-07T12:05:13.000Z</time>
      </trkpt>
      <trkpt lat="45.30509" lon="6.1469">
        <ele>2441.8000488281</ele>
        <time>2013-04-07T12:05:18.000Z</time>
      </trkpt>
      <trkpt lat="45.30506" lon="6.14683">
        <ele>2443</ele>
        <time>2013-04-07T12:05:25.000Z</time>
      </trkpt>
      <trkpt lat="45.30503" lon="6.14679">
        <ele>2443.8000488281</ele>
        <time>2013-04-07T12:05:31.000Z</time>
      </trkpt>
      <trkpt lat="45.30502" lon="6.14675">
        <ele>2444.3999023438</ele>
        <time>2013-04-07T12:05:36.000Z</time>
      </trkpt>
      <trkpt lat="45.305" lon="6.14669">
        <ele>2445.3999023438</ele>
        <time>2013-04-07T12:05:42.000Z</time>
      </trkpt>
      <trkpt lat="45.30499" lon="6.14663">
        <ele>2446.6000976562</ele>
        <time>2013-04-07T12:05:49.000Z</time>
      </trkpt>
      <trkpt lat="45.30497" lon="6.14655">
        <ele>2447.8000488281</ele>
        <time>2013-04-07T12:05:56.000Z</time>
      </trkpt>
      <trkpt lat="45.30494" lon="6.14648">
        <ele>2449</ele>
        <time>2013-04-07T12:06:04.000Z</time>
      </trkpt>
      <trkpt lat="45.30492" lon="6.14644">
        <ele>2450</ele>
        <time>2013-04-07T12:06:09.000Z</time>
      </trkpt>
      <trkpt lat="45.30491" lon="6.1464">
        <ele>2451</ele>
        <time>2013-04-07T12:06:14.000Z</time>
      </trkpt>
      <trkpt lat="45.30488" lon="6.14635">
        <ele>2452.1999511719</ele>
        <time>2013-04-07T12:06:20.000Z</time>
      </trkpt>
      <trkpt lat="45.30486" lon="6.14635">
        <ele>2453</ele>
        <time>2013-04-07T12:06:26.000Z</time>
      </trkpt>
      <trkpt lat="45.30485" lon="6.14646">
        <ele>2453.6000976562</ele>
        <time>2013-04-07T12:06:33.000Z</time>
      </trkpt>
      <trkpt lat="45.30485" lon="6.14652">
        <ele>2454.1999511719</ele>
        <time>2013-04-07T12:06:38.000Z</time>
      </trkpt>
      <trkpt lat="45.30484" lon="6.14657">
        <ele>2454.8000488281</ele>
        <time>2013-04-07T12:06:42.000Z</time>
      </trkpt>
      <trkpt lat="45.30483" lon="6.14662">
        <ele>2455.8000488281</ele>
        <time>2013-04-07T12:06:47.000Z</time>
      </trkpt>
      <trkpt lat="45.30482" lon="6.14667">
        <ele>2456.6000976562</ele>
        <time>2013-04-07T12:06:52.000Z</time>
      </trkpt>
      <trkpt lat="45.30481" lon="6.14673">
        <ele>2457.1999511719</ele>
        <time>2013-04-07T12:06:57.000Z</time>
      </trkpt>
      <trkpt lat="45.30481" lon="6.14678">
        <ele>2458</ele>
        <time>2013-04-07T12:07:02.000Z</time>
      </trkpt>
      <trkpt lat="45.30481" lon="6.14686">
        <ele>2458.8000488281</ele>
        <time>2013-04-07T12:07:08.000Z</time>
      </trkpt>
      <trkpt lat="45.30481" lon="6.14691">
        <ele>2459.1999511719</ele>
        <time>2013-04-07T12:07:12.000Z</time>
      </trkpt>
      <trkpt lat="45.30481" lon="6.14697">
        <ele>2460</ele>
        <time>2013-04-07T12:07:17.000Z</time>
      </trkpt>
      <trkpt lat="45.30481" lon="6.14705">
        <ele>2461</ele>
        <time>2013-04-07T12:07:23.000Z</time>
      </trkpt>
      <trkpt lat="45.30483" lon="6.14712">
        <ele>2462.3999023438</ele>
        <time>2013-04-07T12:07:30.000Z</time>
      </trkpt>
      <trkpt lat="45.30484" lon="6.14715">
        <ele>2463</ele>
        <time>2013-04-07T12:07:34.000Z</time>
      </trkpt>
      <trkpt lat="45.30484" lon="6.14717">
        <ele>2463.3999023438</ele>
        <time>2013-04-07T12:07:36.000Z</time>
      </trkpt>
      <trkpt lat="45.30485" lon="6.14723">
        <ele>2464</ele>
        <time>2013-04-07T12:07:41.000Z</time>
      </trkpt>
      <trkpt lat="45.30487" lon="6.14728">
        <ele>2464.6000976562</ele>
        <time>2013-04-07T12:07:46.000Z</time>
      </trkpt>
      <trkpt lat="45.30488" lon="6.14732">
        <ele>2465.1999511719</ele>
        <time>2013-04-07T12:07:51.000Z</time>
      </trkpt>
      <trkpt lat="45.3049" lon="6.14737">
        <ele>2466.1999511719</ele>
        <time>2013-04-07T12:07:56.000Z</time>
      </trkpt>
      <trkpt lat="45.30491" lon="6.14743">
        <ele>2467.3999023438</ele>
        <time>2013-04-07T12:08:02.000Z</time>
      </trkpt>
      <trkpt lat="45.30491" lon="6.14746">
        <ele>2468</ele>
        <time>2013-04-07T12:08:06.000Z</time>
      </trkpt>
      <trkpt lat="45.30491" lon="6.1475">
        <ele>2469</ele>
        <time>2013-04-07T12:08:11.000Z</time>
      </trkpt>
      <trkpt lat="45.30491" lon="6.14752">
        <ele>2469.3999023438</ele>
        <time>2013-04-07T12:08:15.000Z</time>
      </trkpt>
      <trkpt lat="45.30492" lon="6.14756">
        <ele>2470</ele>
        <time>2013-04-07T12:08:34.000Z</time>
      </trkpt>
      <trkpt lat="45.3049" lon="6.14761">
        <ele>2471.1999511719</ele>
        <time>2013-04-07T12:08:39.000Z</time>
      </trkpt>
      <trkpt lat="45.30488" lon="6.14763">
        <ele>2472.1999511719</ele>
        <time>2013-04-07T12:08:47.000Z</time>
      </trkpt>
      <trkpt lat="45.30484" lon="6.14763">
        <ele>2472.3999023438</ele>
        <time>2013-04-07T12:09:05.000Z</time>
      </trkpt>
      <trkpt lat="45.30484" lon="6.14768">
        <ele>2473.1999511719</ele>
        <time>2013-04-07T12:09:14.000Z</time>
      </trkpt>
      <trkpt lat="45.30478" lon="6.14772">
        <ele>2474.3999023438</ele>
        <time>2013-04-07T12:09:21.000Z</time>
      </trkpt>
      <trkpt lat="45.30475" lon="6.14773">
        <ele>2475.1999511719</ele>
        <time>2013-04-07T12:09:25.000Z</time>
      </trkpt>
      <trkpt lat="45.30471" lon="6.14777">
        <ele>2476</ele>
        <time>2013-04-07T12:09:30.000Z</time>
      </trkpt>
      <trkpt lat="45.30468" lon="6.14779">
        <ele>2477.1999511719</ele>
        <time>2013-04-07T12:09:35.000Z</time>
      </trkpt>
      <trkpt lat="45.30466" lon="6.14782">
        <ele>2478.1999511719</ele>
        <time>2013-04-07T12:09:40.000Z</time>
      </trkpt>
      <trkpt lat="45.30467" lon="6.14783">
        <ele>2479</ele>
        <time>2013-04-07T12:09:50.000Z</time>
      </trkpt>
      <trkpt lat="45.30471" lon="6.14786">
        <ele>2479</ele>
        <time>2013-04-07T12:10:12.000Z</time>
      </trkpt>
      <trkpt lat="45.30462" lon="6.14783">
        <ele>2479.1999511719</ele>
        <time>2013-04-07T12:10:29.000Z</time>
      </trkpt>
      <trkpt lat="45.3046" lon="6.14782">
        <ele>2480.3999023438</ele>
        <time>2013-04-07T12:10:37.000Z</time>
      </trkpt>
      <trkpt lat="45.30458" lon="6.14781">
        <ele>2481.3999023438</ele>
        <time>2013-04-07T12:10:49.000Z</time>
      </trkpt>
      <trkpt lat="45.30457" lon="6.14782">
        <ele>2482.3999023438</ele>
        <time>2013-04-07T12:10:53.000Z</time>
      </trkpt>
      <trkpt lat="45.30455" lon="6.1478">
        <ele>2483.8000488281</ele>
        <time>2013-04-07T12:10:59.000Z</time>
      </trkpt>
      <trkpt lat="45.30455" lon="6.1478">
        <ele>2484.6000976562</ele>
        <time>2013-04-07T12:11:02.000Z</time>
      </trkpt>
      <trkpt lat="45.30454" lon="6.14773">
        <ele>2485.8000488281</ele>
        <time>2013-04-07T12:11:08.000Z</time>
      </trkpt>
      <trkpt lat="45.30455" lon="6.14772">
        <ele>2486.1999511719</ele>
        <time>2013-04-07T12:11:10.000Z</time>
      </trkpt>
      <trkpt lat="45.30454" lon="6.14765">
        <ele>2487.1999511719</ele>
        <time>2013-04-07T12:11:15.000Z</time>
      </trkpt>
      <trkpt lat="45.30447" lon="6.14771">
        <ele>2490.1999511719</ele>
        <time>2013-04-07T12:11:27.000Z</time>
      </trkpt>
      <trkpt lat="45.30444" lon="6.14775">
        <ele>2491.1999511719</ele>
        <time>2013-04-07T12:11:33.000Z</time>
      </trkpt>
      <trkpt lat="45.30441" lon="6.14777">
        <ele>2492.1999511719</ele>
        <time>2013-04-07T12:11:37.000Z</time>
      </trkpt>
      <trkpt lat="45.30436" lon="6.14781">
        <ele>2493.6000976562</ele>
        <time>2013-04-07T12:11:44.000Z</time>
      </trkpt>
      <trkpt lat="45.30431" lon="6.14784">
        <ele>2495.1999511719</ele>
        <time>2013-04-07T12:11:52.000Z</time>
      </trkpt>
      <trkpt lat="45.30429" lon="6.14785">
        <ele>2496.3999023438</ele>
        <time>2013-04-07T12:11:57.000Z</time>
      </trkpt>
      <trkpt lat="45.30427" lon="6.14792">
        <ele>2497.8000488281</ele>
        <time>2013-04-07T12:12:04.000Z</time>
      </trkpt>
      <trkpt lat="45.30423" lon="6.14798">
        <ele>2498.8000488281</ele>
        <time>2013-04-07T12:12:09.000Z</time>
      </trkpt>
      <trkpt lat="45.30422" lon="6.14792">
        <ele>2500.1999511719</ele>
        <time>2013-04-07T12:12:15.000Z</time>
      </trkpt>
      <trkpt lat="45.3042" lon="6.14785">
        <ele>2502.6000976562</ele>
        <time>2013-04-07T12:12:25.000Z</time>
      </trkpt>
      <trkpt lat="45.30419" lon="6.14781">
        <ele>2503.3999023438</ele>
        <time>2013-04-07T12:12:31.000Z</time>
      </trkpt>
      <trkpt lat="45.30417" lon="6.14778">
        <ele>2504.6000976562</ele>
        <time>2013-04-07T12:12:37.000Z</time>
      </trkpt>
      <trkpt lat="45.30417" lon="6.14772">
        <ele>2505.6000976562</ele>
        <time>2013-04-07T12:12:42.000Z</time>
      </trkpt>
      <trkpt lat="45.30416" lon="6.14767">
        <ele>2506.8000488281</ele>
        <time>2013-04-07T12:12:48.000Z</time>
      </trkpt>
      <trkpt lat="45.30416" lon="6.14765">
        <ele>2507</ele>
        <time>2013-04-07T12:12:49.000Z</time>
      </trkpt>
      <trkpt lat="45.30416" lon="6.14758">
        <ele>2507.8000488281</ele>
        <time>2013-04-07T12:12:55.000Z</time>
      </trkpt>
      <trkpt lat="45.30413" lon="6.14753">
        <ele>2508.6000976562</ele>
        <time>2013-04-07T12:13:00.000Z</time>
      </trkpt>
      <trkpt lat="45.3041" lon="6.14747">
        <ele>2509.8000488281</ele>
        <time>2013-04-07T12:13:07.000Z</time>
      </trkpt>
      <trkpt lat="45.30408" lon="6.14745">
        <ele>2510.6000976562</ele>
        <time>2013-04-07T12:13:11.000Z</time>
      </trkpt>
      <trkpt lat="45.30405" lon="6.14741">
        <ele>2511.6000976562</ele>
        <time>2013-04-07T12:13:16.000Z</time>
      </trkpt>
      <trkpt lat="45.30402" lon="6.14737">
        <ele>2512.3999023438</ele>
        <time>2013-04-07T12:13:21.000Z</time>
      </trkpt>
      <trkpt lat="45.30399" lon="6.14735">
        <ele>2513.3999023438</ele>
        <time>2013-04-07T12:13:26.000Z</time>
      </trkpt>
      <trkpt lat="45.30395" lon="6.1473">
        <ele>2515</ele>
        <time>2013-04-07T12:13:33.000Z</time>
      </trkpt>
      <trkpt lat="45.30393" lon="6.14725">
        <ele>2516</ele>
        <time>2013-04-07T12:13:38.000Z</time>
      </trkpt>
      <trkpt lat="45.30389" lon="6.14722">
        <ele>2517.6000976562</ele>
        <time>2013-04-07T12:13:45.000Z</time>
      </trkpt>
      <trkpt lat="45.30386" lon="6.14717">
        <ele>2518.8000488281</ele>
        <time>2013-04-07T12:13:51.000Z</time>
      </trkpt>
      <trkpt lat="45.30383" lon="6.14714">
        <ele>2519.6000976562</ele>
        <time>2013-04-07T12:13:56.000Z</time>
      </trkpt>
      <trkpt lat="45.3038" lon="6.1471">
        <ele>2521.1999511719</ele>
        <time>2013-04-07T12:14:03.000Z</time>
      </trkpt>
      <trkpt lat="45.30377" lon="6.14706">
        <ele>2522.6000976562</ele>
        <time>2013-04-07T12:14:09.000Z</time>
      </trkpt>
      <trkpt lat="45.30375" lon="6.14701">
        <ele>2523.1999511719</ele>
        <time>2013-04-07T12:14:13.000Z</time>
      </trkpt>
      <trkpt lat="45.30371" lon="6.14696">
        <ele>2524.8000488281</ele>
        <time>2013-04-07T12:14:20.000Z</time>
      </trkpt>
      <trkpt lat="45.30371" lon="6.14692">
        <ele>2526.1999511719</ele>
        <time>2013-04-07T12:14:26.000Z</time>
      </trkpt>
      <trkpt lat="45.30369" lon="6.14687">
        <ele>2527.1999511719</ele>
        <time>2013-04-07T12:14:31.000Z</time>
      </trkpt>
      <trkpt lat="45.30366" lon="6.14685">
        <ele>2527.8000488281</ele>
        <time>2013-04-07T12:14:35.000Z</time>
      </trkpt>
      <trkpt lat="45.30363" lon="6.14685">
        <ele>2528.3999023438</ele>
        <time>2013-04-07T12:14:39.000Z</time>
      </trkpt>
      <trkpt lat="45.30357" lon="6.14683">
        <ele>2529.3999023438</ele>
        <time>2013-04-07T12:14:45.000Z</time>
      </trkpt>
      <trkpt lat="45.30354" lon="6.1468">
        <ele>2530.3999023438</ele>
        <time>2013-04-07T12:14:50.000Z</time>
      </trkpt>
      <trkpt lat="45.3035" lon="6.14677">
        <ele>2531.3999023438</ele>
        <time>2013-04-07T12:14:56.000Z</time>
      </trkpt>
      <trkpt lat="45.30345" lon="6.14672">
        <ele>2532.1999511719</ele>
        <time>2013-04-07T12:15:02.000Z</time>
      </trkpt>
      <trkpt lat="45.30342" lon="6.14669">
        <ele>2533.1999511719</ele>
        <time>2013-04-07T12:15:08.000Z</time>
      </trkpt>
      <trkpt lat="45.30339" lon="6.14666">
        <ele>2534.1999511719</ele>
        <time>2013-04-07T12:15:14.000Z</time>
      </trkpt>
      <trkpt lat="45.30335" lon="6.14664">
        <ele>2535.1999511719</ele>
        <time>2013-04-07T12:15:19.000Z</time>
      </trkpt>
      <trkpt lat="45.30332" lon="6.14662">
        <ele>2536</ele>
        <time>2013-04-07T12:15:23.000Z</time>
      </trkpt>
      <trkpt lat="45.30328" lon="6.1466">
        <ele>2536.8000488281</ele>
        <time>2013-04-07T12:15:29.000Z</time>
      </trkpt>
      <trkpt lat="45.30326" lon="6.14658">
        <ele>2538.1999511719</ele>
        <time>2013-04-07T12:15:35.000Z</time>
      </trkpt>
      <trkpt lat="45.30323" lon="6.14656">
        <ele>2539.1999511719</ele>
        <time>2013-04-07T12:15:39.000Z</time>
      </trkpt>
      <trkpt lat="45.30321" lon="6.14651">
        <ele>2540.3999023438</ele>
        <time>2013-04-07T12:15:44.000Z</time>
      </trkpt>
      <trkpt lat="45.30318" lon="6.14649">
        <ele>2541.3999023438</ele>
        <time>2013-04-07T12:15:48.000Z</time>
      </trkpt>
      <trkpt lat="45.30315" lon="6.14649">
        <ele>2542.1999511719</ele>
        <time>2013-04-07T12:15:53.000Z</time>
      </trkpt>
      <trkpt lat="45.30315" lon="6.14648">
        <ele>2543</ele>
        <time>2013-04-07T12:15:57.000Z</time>
      </trkpt>
      <trkpt lat="45.30313" lon="6.14646">
        <ele>2544.1999511719</ele>
        <time>2013-04-07T12:16:01.000Z</time>
      </trkpt>
      <trkpt lat="45.30309" lon="6.14642">
        <ele>2545.1999511719</ele>
        <time>2013-04-07T12:16:07.000Z</time>
      </trkpt>
      <trkpt lat="45.30305" lon="6.14639">
        <ele>2546.3999023438</ele>
        <time>2013-04-07T12:16:12.000Z</time>
      </trkpt>
      <trkpt lat="45.303" lon="6.14636">
        <ele>2547.3999023438</ele>
        <time>2013-04-07T12:16:17.000Z</time>
      </trkpt>
      <trkpt lat="45.30297" lon="6.14634">
        <ele>2548</ele>
        <time>2013-04-07T12:16:21.000Z</time>
      </trkpt>
      <trkpt lat="45.30294" lon="6.14632">
        <ele>2549.3999023438</ele>
        <time>2013-04-07T12:16:27.000Z</time>
      </trkpt>
      <trkpt lat="45.30292" lon="6.14632">
        <ele>2550.1999511719</ele>
        <time>2013-04-07T12:16:31.000Z</time>
      </trkpt>
      <trkpt lat="45.3029" lon="6.1463">
        <ele>2551.1999511719</ele>
        <time>2013-04-07T12:16:36.000Z</time>
      </trkpt>
      <trkpt lat="45.30288" lon="6.14628">
        <ele>2552.1999511719</ele>
        <time>2013-04-07T12:16:40.000Z</time>
      </trkpt>
      <trkpt lat="45.30286" lon="6.14627">
        <ele>2553.3999023438</ele>
        <time>2013-04-07T12:16:46.000Z</time>
      </trkpt>
      <trkpt lat="45.30286" lon="6.14626">
        <ele>2554.1999511719</ele>
        <time>2013-04-07T12:16:50.000Z</time>
      </trkpt>
      <trkpt lat="45.30283" lon="6.14624">
        <ele>2555.1999511719</ele>
        <time>2013-04-07T12:16:55.000Z</time>
      </trkpt>
      <trkpt lat="45.3028" lon="6.14621">
        <ele>2556.6000976562</ele>
        <time>2013-04-07T12:17:01.000Z</time>
      </trkpt>
      <trkpt lat="45.30278" lon="6.1462">
        <ele>2557.1999511719</ele>
        <time>2013-04-07T12:17:05.000Z</time>
      </trkpt>
      <trkpt lat="45.30276" lon="6.1462">
        <ele>2557.8000488281</ele>
        <time>2013-04-07T12:17:09.000Z</time>
      </trkpt>
      <trkpt lat="45.30271" lon="6.14617">
        <ele>2558.8000488281</ele>
        <time>2013-04-07T12:17:15.000Z</time>
      </trkpt>
      <trkpt lat="45.30269" lon="6.14615">
        <ele>2560</ele>
        <time>2013-04-07T12:17:19.000Z</time>
      </trkpt>
      <trkpt lat="45.30267" lon="6.14613">
        <ele>2561</ele>
        <time>2013-04-07T12:17:23.000Z</time>
      </trkpt>
      <trkpt lat="45.30265" lon="6.14612">
        <ele>2562</ele>
        <time>2013-04-07T12:17:28.000Z</time>
      </trkpt>
      <trkpt lat="45.30262" lon="6.14611">
        <ele>2562.8000488281</ele>
        <time>2013-04-07T12:17:33.000Z</time>
      </trkpt>
      <trkpt lat="45.3026" lon="6.14611">
        <ele>2563.6000976562</ele>
        <time>2013-04-07T12:17:37.000Z</time>
      </trkpt>
      <trkpt lat="45.30257" lon="6.14609">
        <ele>2564.8000488281</ele>
        <time>2013-04-07T12:17:42.000Z</time>
      </trkpt>
      <trkpt lat="45.30253" lon="6.14608">
        <ele>2566</ele>
        <time>2013-04-07T12:17:48.000Z</time>
      </trkpt>
      <trkpt lat="45.30251" lon="6.14607">
        <ele>2567</ele>
        <time>2013-04-07T12:17:52.000Z</time>
      </trkpt>
      <trkpt lat="45.30251" lon="6.14603">
        <ele>2568.3999023438</ele>
        <time>2013-04-07T12:17:58.000Z</time>
      </trkpt>
      <trkpt lat="45.30249" lon="6.14601">
        <ele>2569.1999511719</ele>
        <time>2013-04-07T12:18:03.000Z</time>
      </trkpt>
      <trkpt lat="45.30247" lon="6.14597">
        <ele>2570</ele>
        <time>2013-04-07T12:18:07.000Z</time>
      </trkpt>
      <trkpt lat="45.30244" lon="6.14595">
        <ele>2571</ele>
        <time>2013-04-07T12:18:12.000Z</time>
      </trkpt>
      <trkpt lat="45.30241" lon="6.14594">
        <ele>2572</ele>
        <time>2013-04-07T12:18:17.000Z</time>
      </trkpt>
      <trkpt lat="45.30239" lon="6.14594">
        <ele>2572.3999023438</ele>
        <time>2013-04-07T12:18:20.000Z</time>
      </trkpt>
      <trkpt lat="45.30235" lon="6.14593">
        <ele>2573</ele>
        <time>2013-04-07T12:18:24.000Z</time>
      </trkpt>
      <trkpt lat="45.30231" lon="6.14592">
        <ele>2574</ele>
        <time>2013-04-07T12:18:29.000Z</time>
      </trkpt>
      <trkpt lat="45.30226" lon="6.14589">
        <ele>2575.3999023438</ele>
        <time>2013-04-07T12:18:35.000Z</time>
      </trkpt>
      <trkpt lat="45.3022" lon="6.14587">
        <ele>2576.8000488281</ele>
        <time>2013-04-07T12:18:42.000Z</time>
      </trkpt>
      <trkpt lat="45.30216" lon="6.14585">
        <ele>2578</ele>
        <time>2013-04-07T12:18:47.000Z</time>
      </trkpt>
      <trkpt lat="45.30213" lon="6.14583">
        <ele>2578.8000488281</ele>
        <time>2013-04-07T12:18:52.000Z</time>
      </trkpt>
      <trkpt lat="45.30211" lon="6.14582">
        <ele>2579.3999023438</ele>
        <time>2013-04-07T12:18:56.000Z</time>
      </trkpt>
      <trkpt lat="45.30207" lon="6.14579">
        <ele>2581.1999511719</ele>
        <time>2013-04-07T12:19:05.000Z</time>
      </trkpt>
      <trkpt lat="45.30206" lon="6.14579">
        <ele>2581.8000488281</ele>
        <time>2013-04-07T12:19:09.000Z</time>
      </trkpt>
      <trkpt lat="45.30204" lon="6.14579">
        <ele>2582.8000488281</ele>
        <time>2013-04-07T12:19:16.000Z</time>
      </trkpt>
      <trkpt lat="45.30199" lon="6.14581">
        <ele>2583.3999023438</ele>
        <time>2013-04-07T12:19:48.000Z</time>
      </trkpt>
      <trkpt lat="45.30198" lon="6.14579">
        <ele>2584.1999511719</ele>
        <time>2013-04-07T12:19:56.000Z</time>
      </trkpt>
      <trkpt lat="45.30193" lon="6.14576">
        <ele>2585</ele>
        <time>2013-04-07T12:20:03.000Z</time>
      </trkpt>
      <trkpt lat="45.30188" lon="6.14572">
        <ele>2586.1999511719</ele>
        <time>2013-04-07T12:20:09.000Z</time>
      </trkpt>
      <trkpt lat="45.30188" lon="6.14571">
        <ele>2586.3999023438</ele>
        <time>2013-04-07T12:20:10.000Z</time>
      </trkpt>
      <trkpt lat="45.30182" lon="6.14567">
        <ele>2588.6000976562</ele>
        <time>2013-04-07T12:20:18.000Z</time>
      </trkpt>
      <trkpt lat="45.30179" lon="6.14565">
        <ele>2590.1999511719</ele>
        <time>2013-04-07T12:20:25.000Z</time>
      </trkpt>
      <trkpt lat="45.30175" lon="6.14563">
        <ele>2591.1999511719</ele>
        <time>2013-04-07T12:20:30.000Z</time>
      </trkpt>
      <trkpt lat="45.30171" lon="6.14561">
        <ele>2592.1999511719</ele>
        <time>2013-04-07T12:20:35.000Z</time>
      </trkpt>
      <trkpt lat="45.30167" lon="6.14557">
        <ele>2593.6000976562</ele>
        <time>2013-04-07T12:20:41.000Z</time>
      </trkpt>
      <trkpt lat="45.30162" lon="6.14553">
        <ele>2595</ele>
        <time>2013-04-07T12:20:48.000Z</time>
      </trkpt>
      <trkpt lat="45.30158" lon="6.14548">
        <ele>2596.1999511719</ele>
        <time>2013-04-07T12:20:54.000Z</time>
      </trkpt>
      <trkpt lat="45.30156" lon="6.14549">
        <ele>2596.8000488281</ele>
        <time>2013-04-07T12:20:57.000Z</time>
      </trkpt>
      <trkpt lat="45.30154" lon="6.14547">
        <ele>2597.8000488281</ele>
        <time>2013-04-07T12:21:02.000Z</time>
      </trkpt>
      <trkpt lat="45.30151" lon="6.14548">
        <ele>2599.1999511719</ele>
        <time>2013-04-07T12:21:08.000Z</time>
      </trkpt>
      <trkpt lat="45.30145" lon="6.14548">
        <ele>2600.1999511719</ele>
        <time>2013-04-07T12:21:14.000Z</time>
      </trkpt>
      <trkpt lat="45.30143" lon="6.14548">
        <ele>2601.1999511719</ele>
        <time>2013-04-07T12:21:18.000Z</time>
      </trkpt>
      <trkpt lat="45.30142" lon="6.14546">
        <ele>2602.3999023438</ele>
        <time>2013-04-07T12:21:24.000Z</time>
      </trkpt>
      <trkpt lat="45.30141" lon="6.14545">
        <ele>2603</ele>
        <time>2013-04-07T12:21:26.000Z</time>
      </trkpt>
      <trkpt lat="45.30137" lon="6.14539">
        <ele>2604.8000488281</ele>
        <time>2013-04-07T12:21:33.000Z</time>
      </trkpt>
      <trkpt lat="45.30136" lon="6.14537">
        <ele>2606.6000976562</ele>
        <time>2013-04-07T12:21:40.000Z</time>
      </trkpt>
      <trkpt lat="45.30132" lon="6.14536">
        <ele>2608</ele>
        <time>2013-04-07T12:21:46.000Z</time>
      </trkpt>
      <trkpt lat="45.30131" lon="6.14532">
        <ele>2609</ele>
        <time>2013-04-07T12:21:51.000Z</time>
      </trkpt>
      <trkpt lat="45.3013" lon="6.14531">
        <ele>2609.1999511719</ele>
        <time>2013-04-07T12:21:52.000Z</time>
      </trkpt>
      <trkpt lat="45.30129" lon="6.14526">
        <ele>2610.8000488281</ele>
        <time>2013-04-07T12:21:59.000Z</time>
      </trkpt>
      <trkpt lat="45.30126" lon="6.14524">
        <ele>2611.6000976562</ele>
        <time>2013-04-07T12:22:03.000Z</time>
      </trkpt>
      <trkpt lat="45.30124" lon="6.14521">
        <ele>2613</ele>
        <time>2013-04-07T12:22:09.000Z</time>
      </trkpt>
      <trkpt lat="45.30121" lon="6.14519">
        <ele>2614</ele>
        <time>2013-04-07T12:22:14.000Z</time>
      </trkpt>
      <trkpt lat="45.30119" lon="6.14516">
        <ele>2615.1999511719</ele>
        <time>2013-04-07T12:22:19.000Z</time>
      </trkpt>
      <trkpt lat="45.30117" lon="6.14514">
        <ele>2616.3999023438</ele>
        <time>2013-04-07T12:22:24.000Z</time>
      </trkpt>
      <trkpt lat="45.30114" lon="6.14508">
        <ele>2617.8000488281</ele>
        <time>2013-04-07T12:22:31.000Z</time>
      </trkpt>
      <trkpt lat="45.30112" lon="6.14505">
        <ele>2618.8000488281</ele>
        <time>2013-04-07T12:22:36.000Z</time>
      </trkpt>
      <trkpt lat="45.30111" lon="6.14502">
        <ele>2620.1999511719</ele>
        <time>2013-04-07T12:22:42.000Z</time>
      </trkpt>
      <trkpt lat="45.30108" lon="6.14498">
        <ele>2621.6000976562</ele>
        <time>2013-04-07T12:22:48.000Z</time>
      </trkpt>
      <trkpt lat="45.30109" lon="6.14498">
        <ele>2622.6000976562</ele>
        <time>2013-04-07T12:22:55.000Z</time>
      </trkpt>
      <trkpt lat="45.30105" lon="6.14495">
        <ele>2623.3999023438</ele>
        <time>2013-04-07T12:23:05.000Z</time>
      </trkpt>
      <trkpt lat="45.30103" lon="6.14491">
        <ele>2624.6000976562</ele>
        <time>2013-04-07T12:23:10.000Z</time>
      </trkpt>
      <trkpt lat="45.30099" lon="6.14486">
        <ele>2625.6000976562</ele>
        <time>2013-04-07T12:23:15.000Z</time>
      </trkpt>
      <trkpt lat="45.30098" lon="6.14482">
        <ele>2626.3999023438</ele>
        <time>2013-04-07T12:23:19.000Z</time>
      </trkpt>
      <trkpt lat="45.30096" lon="6.14479">
        <ele>2627.6000976562</ele>
        <time>2013-04-07T12:23:24.000Z</time>
      </trkpt>
      <trkpt lat="45.30095" lon="6.14475">
        <ele>2628.8000488281</ele>
        <time>2013-04-07T12:23:29.000Z</time>
      </trkpt>
      <trkpt lat="45.30095" lon="6.14471">
        <ele>2629.8000488281</ele>
        <time>2013-04-07T12:23:34.000Z</time>
      </trkpt>
      <trkpt lat="45.30094" lon="6.14468">
        <ele>2630.6000976562</ele>
        <time>2013-04-07T12:23:38.000Z</time>
      </trkpt>
      <trkpt lat="45.30092" lon="6.14466">
        <ele>2631.3999023438</ele>
        <time>2013-04-07T12:23:42.000Z</time>
      </trkpt>
      <trkpt lat="45.30089" lon="6.14462">
        <ele>2632.3999023438</ele>
        <time>2013-04-07T12:23:46.000Z</time>
      </trkpt>
      <trkpt lat="45.30088" lon="6.14459">
        <ele>2633.6000976562</ele>
        <time>2013-04-07T12:23:51.000Z</time>
      </trkpt>
      <trkpt lat="45.30086" lon="6.14457">
        <ele>2634.1999511719</ele>
        <time>2013-04-07T12:23:55.000Z</time>
      </trkpt>
      <trkpt lat="45.30085" lon="6.14454">
        <ele>2635.1999511719</ele>
        <time>2013-04-07T12:23:59.000Z</time>
      </trkpt>
      <trkpt lat="45.30083" lon="6.14452">
        <ele>2636.3999023438</ele>
        <time>2013-04-07T12:24:04.000Z</time>
      </trkpt>
      <trkpt lat="45.3008" lon="6.1445">
        <ele>2637.3999023438</ele>
        <time>2013-04-07T12:24:09.000Z</time>
      </trkpt>
      <trkpt lat="45.30077" lon="6.14448">
        <ele>2638.8000488281</ele>
        <time>2013-04-07T12:24:15.000Z</time>
      </trkpt>
      <trkpt lat="45.30072" lon="6.14445">
        <ele>2640.1999511719</ele>
        <time>2013-04-07T12:24:21.000Z</time>
      </trkpt>
      <trkpt lat="45.30069" lon="6.14441">
        <ele>2641.1999511719</ele>
        <time>2013-04-07T12:24:26.000Z</time>
      </trkpt>
      <trkpt lat="45.30068" lon="6.14438">
        <ele>2642.3999023438</ele>
        <time>2013-04-07T12:24:30.000Z</time>
      </trkpt>
      <trkpt lat="45.30068" lon="6.14436">
        <ele>2643.6000976562</ele>
        <time>2013-04-07T12:24:36.000Z</time>
      </trkpt>
      <trkpt lat="45.30066" lon="6.14434">
        <ele>2644.3999023438</ele>
        <time>2013-04-07T12:24:40.000Z</time>
      </trkpt>
      <trkpt lat="45.30065" lon="6.14432">
        <ele>2645.3999023438</ele>
        <time>2013-04-07T12:24:44.000Z</time>
      </trkpt>
      <trkpt lat="45.30064" lon="6.14427">
        <ele>2646.8000488281</ele>
        <time>2013-04-07T12:24:51.000Z</time>
      </trkpt>
      <trkpt lat="45.30063" lon="6.14424">
        <ele>2648</ele>
        <time>2013-04-07T12:24:57.000Z</time>
      </trkpt>
      <trkpt lat="45.30063" lon="6.14419">
        <ele>2649.3999023438</ele>
        <time>2013-04-07T12:25:03.000Z</time>
      </trkpt>
      <trkpt lat="45.30062" lon="6.14416">
        <ele>2650.1999511719</ele>
        <time>2013-04-07T12:25:07.000Z</time>
      </trkpt>
      <trkpt lat="45.30062" lon="6.14413">
        <ele>2651</ele>
        <time>2013-04-07T12:25:12.000Z</time>
      </trkpt>
      <trkpt lat="45.30063" lon="6.14411">
        <ele>2652</ele>
        <time>2013-04-07T12:25:16.000Z</time>
      </trkpt>
      <trkpt lat="45.30065" lon="6.14404">
        <ele>2654</ele>
        <time>2013-04-07T12:25:26.000Z</time>
      </trkpt>
      <trkpt lat="45.30066" lon="6.14401">
        <ele>2654.8000488281</ele>
        <time>2013-04-07T12:25:30.000Z</time>
      </trkpt>
      <trkpt lat="45.30066" lon="6.14397">
        <ele>2655.8000488281</ele>
        <time>2013-04-07T12:25:34.000Z</time>
      </trkpt>
      <trkpt lat="45.30065" lon="6.14394">
        <ele>2656.3999023438</ele>
        <time>2013-04-07T12:25:37.000Z</time>
      </trkpt>
      <trkpt lat="45.30065" lon="6.14389">
        <ele>2657.1999511719</ele>
        <time>2013-04-07T12:25:43.000Z</time>
      </trkpt>
      <trkpt lat="45.30066" lon="6.14384">
        <ele>2658.1999511719</ele>
        <time>2013-04-07T12:25:48.000Z</time>
      </trkpt>
      <trkpt lat="45.30066" lon="6.14378">
        <ele>2659.3999023438</ele>
        <time>2013-04-07T12:25:53.000Z</time>
      </trkpt>
      <trkpt lat="45.30067" lon="6.14374">
        <ele>2660</ele>
        <time>2013-04-07T12:25:57.000Z</time>
      </trkpt>
      <trkpt lat="45.30067" lon="6.1437">
        <ele>2660.3999023438</ele>
        <time>2013-04-07T12:26:00.000Z</time>
      </trkpt>
      <trkpt lat="45.30068" lon="6.14369">
        <ele>2660.6000976562</ele>
        <time>2013-04-07T12:26:02.000Z</time>
      </trkpt>
      <trkpt lat="45.30068" lon="6.14364">
        <ele>2661.3999023438</ele>
        <time>2013-04-07T12:26:07.000Z</time>
      </trkpt>
      <trkpt lat="45.30068" lon="6.14359">
        <ele>2662.1999511719</ele>
        <time>2013-04-07T12:26:12.000Z</time>
      </trkpt>
      <trkpt lat="45.30068" lon="6.14355">
        <ele>2663.1999511719</ele>
        <time>2013-04-07T12:26:18.000Z</time>
      </trkpt>
      <trkpt lat="45.30069" lon="6.14353">
        <ele>2664.1999511719</ele>
        <time>2013-04-07T12:26:23.000Z</time>
      </trkpt>
      <trkpt lat="45.3007" lon="6.1435">
        <ele>2664.3999023438</ele>
        <time>2013-04-07T12:26:27.000Z</time>
      </trkpt>
      <trkpt lat="45.3007" lon="6.14346">
        <ele>2665.3999023438</ele>
        <time>2013-04-07T12:26:33.000Z</time>
      </trkpt>
      <trkpt lat="45.30071" lon="6.14343">
        <ele>2666.1999511719</ele>
        <time>2013-04-07T12:26:37.000Z</time>
      </trkpt>
      <trkpt lat="45.30074" lon="6.14335">
        <ele>2667.6000976562</ele>
        <time>2013-04-07T12:26:44.000Z</time>
      </trkpt>
      <trkpt lat="45.30074" lon="6.14332">
        <ele>2668.3999023438</ele>
        <time>2013-04-07T12:26:50.000Z</time>
      </trkpt>
      <trkpt lat="45.30073" lon="6.14329">
        <ele>2669</ele>
        <time>2013-04-07T12:26:55.000Z</time>
      </trkpt>
      <trkpt lat="45.30074" lon="6.14327">
        <ele>2669.8000488281</ele>
        <time>2013-04-07T12:26:58.000Z</time>
      </trkpt>
      <trkpt lat="45.30075" lon="6.14323">
        <ele>2670.3999023438</ele>
        <time>2013-04-07T12:27:03.000Z</time>
      </trkpt>
      <trkpt lat="45.30076" lon="6.1432">
        <ele>2671</ele>
        <time>2013-04-07T12:27:07.000Z</time>
      </trkpt>
      <trkpt lat="45.30077" lon="6.14316">
        <ele>2672.1999511719</ele>
        <time>2013-04-07T12:27:13.000Z</time>
      </trkpt>
      <trkpt lat="45.30077" lon="6.14313">
        <ele>2673</ele>
        <time>2013-04-07T12:27:17.000Z</time>
      </trkpt>
      <trkpt lat="45.30078" lon="6.14308">
        <ele>2674.3999023438</ele>
        <time>2013-04-07T12:27:24.000Z</time>
      </trkpt>
      <trkpt lat="45.30079" lon="6.14305">
        <ele>2674.8000488281</ele>
        <time>2013-04-07T12:27:28.000Z</time>
      </trkpt>
      <trkpt lat="45.30079" lon="6.14299">
        <ele>2676</ele>
        <time>2013-04-07T12:27:34.000Z</time>
      </trkpt>
      <trkpt lat="45.3008" lon="6.14296">
        <ele>2676.6000976562</ele>
        <time>2013-04-07T12:27:38.000Z</time>
      </trkpt>
      <trkpt lat="45.30082" lon="6.14293">
        <ele>2677.1999511719</ele>
        <time>2013-04-07T12:27:42.000Z</time>
      </trkpt>
      <trkpt lat="45.30083" lon="6.14289">
        <ele>2677.8000488281</ele>
        <time>2013-04-07T12:27:47.000Z</time>
      </trkpt>
      <trkpt lat="45.30082" lon="6.14287">
        <ele>2678.6000976562</ele>
        <time>2013-04-07T12:27:53.000Z</time>
      </trkpt>
      <trkpt lat="45.3008" lon="6.14288">
        <ele>2679.1999511719</ele>
        <time>2013-04-07T12:28:01.000Z</time>
      </trkpt>
      <trkpt lat="45.30077" lon="6.14292">
        <ele>2679.6000976562</ele>
        <time>2013-04-07T12:28:20.000Z</time>
      </trkpt>
      <trkpt lat="45.30074" lon="6.14293">
        <ele>2680.1999511719</ele>
        <time>2013-04-07T12:28:24.000Z</time>
      </trkpt>
      <trkpt lat="45.30068" lon="6.14295">
        <ele>2681.8000488281</ele>
        <time>2013-04-07T12:28:31.000Z</time>
      </trkpt>
      <trkpt lat="45.30064" lon="6.14299">
        <ele>2682.3999023438</ele>
        <time>2013-04-07T12:28:36.000Z</time>
      </trkpt>
      <trkpt lat="45.3006" lon="6.14297">
        <ele>2683.6000976562</ele>
        <time>2013-04-07T12:28:47.000Z</time>
      </trkpt>
      <trkpt lat="45.3006" lon="6.14295">
        <ele>2684</ele>
        <time>2013-04-07T12:28:49.000Z</time>
      </trkpt>
      <trkpt lat="45.30063" lon="6.14292">
        <ele>2684.3999023438</ele>
        <time>2013-04-07T12:28:52.000Z</time>
      </trkpt>
      <trkpt lat="45.30066" lon="6.14287">
        <ele>2685</ele>
        <time>2013-04-07T12:28:57.000Z</time>
      </trkpt>
      <trkpt lat="45.30069" lon="6.14282">
        <ele>2686.1999511719</ele>
        <time>2013-04-07T12:29:02.000Z</time>
      </trkpt>
      <trkpt lat="45.30072" lon="6.14276">
        <ele>2687.6000976562</ele>
        <time>2013-04-07T12:29:08.000Z</time>
      </trkpt>
      <trkpt lat="45.30074" lon="6.14272">
        <ele>2688.3999023438</ele>
        <time>2013-04-07T12:29:13.000Z</time>
      </trkpt>
      <trkpt lat="45.30074" lon="6.1427">
        <ele>2689.1999511719</ele>
        <time>2013-04-07T12:29:18.000Z</time>
      </trkpt>
      <trkpt lat="45.30075" lon="6.14267">
        <ele>2690.1999511719</ele>
        <time>2013-04-07T12:29:23.000Z</time>
      </trkpt>
      <trkpt lat="45.30079" lon="6.1426">
        <ele>2691.1999511719</ele>
        <time>2013-04-07T12:29:29.000Z</time>
      </trkpt>
      <trkpt lat="45.3008" lon="6.14256">
        <ele>2692</ele>
        <time>2013-04-07T12:29:33.000Z</time>
      </trkpt>
      <trkpt lat="45.3008" lon="6.14253">
        <ele>2692.6000976562</ele>
        <time>2013-04-07T12:29:37.000Z</time>
      </trkpt>
      <trkpt lat="45.30082" lon="6.14249">
        <ele>2693.3999023438</ele>
        <time>2013-04-07T12:29:42.000Z</time>
      </trkpt>
      <trkpt lat="45.30082" lon="6.14247">
        <ele>2694.3999023438</ele>
        <time>2013-04-07T12:29:47.000Z</time>
      </trkpt>
      <trkpt lat="45.30085" lon="6.14241">
        <ele>2695.3999023438</ele>
        <time>2013-04-07T12:29:53.000Z</time>
      </trkpt>
      <trkpt lat="45.30085" lon="6.1424">
        <ele>2695.6000976562</ele>
        <time>2013-04-07T12:29:55.000Z</time>
      </trkpt>
      <trkpt lat="45.30084" lon="6.14237">
        <ele>2696</ele>
        <time>2013-04-07T12:29:58.000Z</time>
      </trkpt>
      <trkpt lat="45.30085" lon="6.14233">
        <ele>2697</ele>
        <time>2013-04-07T12:30:04.000Z</time>
      </trkpt>
      <trkpt lat="45.30086" lon="6.1423">
        <ele>2697.6000976562</ele>
        <time>2013-04-07T12:30:08.000Z</time>
      </trkpt>
      <trkpt lat="45.30085" lon="6.14227">
        <ele>2698.1999511719</ele>
        <time>2013-04-07T12:30:13.000Z</time>
      </trkpt>
      <trkpt lat="45.30088" lon="6.1422">
        <ele>2699.1999511719</ele>
        <time>2013-04-07T12:30:19.000Z</time>
      </trkpt>
      <trkpt lat="45.30089" lon="6.14215">
        <ele>2700</ele>
        <time>2013-04-07T12:30:23.000Z</time>
      </trkpt>
      <trkpt lat="45.30089" lon="6.1421">
        <ele>2701.1999511719</ele>
        <time>2013-04-07T12:30:30.000Z</time>
      </trkpt>
      <trkpt lat="45.30089" lon="6.14207">
        <ele>2701.8000488281</ele>
        <time>2013-04-07T12:30:34.000Z</time>
      </trkpt>
      <trkpt lat="45.3009" lon="6.14202">
        <ele>2702.1999511719</ele>
        <time>2013-04-07T12:30:41.000Z</time>
      </trkpt>
      <trkpt lat="45.3009" lon="6.14198">
        <ele>2702.3999023438</ele>
        <time>2013-04-07T12:30:44.000Z</time>
      </trkpt>
      <trkpt lat="45.30091" lon="6.14192">
        <ele>2703.1999511719</ele>
        <time>2013-04-07T12:30:49.000Z</time>
      </trkpt>
      <trkpt lat="45.3009" lon="6.1419">
        <ele>2704.1999511719</ele>
        <time>2013-04-07T12:30:56.000Z</time>
      </trkpt>
      <trkpt lat="45.30089" lon="6.14191">
        <ele>2704.6000976562</ele>
        <time>2013-04-07T12:30:58.000Z</time>
      </trkpt>
      <trkpt lat="45.30085" lon="6.14197">
        <ele>2705.1999511719</ele>
        <time>2013-04-07T12:31:05.000Z</time>
      </trkpt>
      <trkpt lat="45.30081" lon="6.14201">
        <ele>2706.3999023438</ele>
        <time>2013-04-07T12:31:11.000Z</time>
      </trkpt>
      <trkpt lat="45.30075" lon="6.14207">
        <ele>2708</ele>
        <time>2013-04-07T12:31:19.000Z</time>
      </trkpt>
      <trkpt lat="45.30071" lon="6.1421">
        <ele>2709.1999511719</ele>
        <time>2013-04-07T12:31:25.000Z</time>
      </trkpt>
      <trkpt lat="45.30066" lon="6.14212">
        <ele>2710</ele>
        <time>2013-04-07T12:31:31.000Z</time>
      </trkpt>
      <trkpt lat="45.30061" lon="6.14218">
        <ele>2711.3999023438</ele>
        <time>2013-04-07T12:31:38.000Z</time>
      </trkpt>
      <trkpt lat="45.30058" lon="6.14219">
        <ele>2712.1999511719</ele>
        <time>2013-04-07T12:31:42.000Z</time>
      </trkpt>
      <trkpt lat="45.30055" lon="6.14221">
        <ele>2713.3999023438</ele>
        <time>2013-04-07T12:31:49.000Z</time>
      </trkpt>
      <trkpt lat="45.30053" lon="6.14222">
        <ele>2714</ele>
        <time>2013-04-07T12:31:53.000Z</time>
      </trkpt>
      <trkpt lat="45.30049" lon="6.14226">
        <ele>2715.1999511719</ele>
        <time>2013-04-07T12:32:01.000Z</time>
      </trkpt>
      <trkpt lat="45.30048" lon="6.14228">
        <ele>2716</ele>
        <time>2013-04-07T12:32:11.000Z</time>
      </trkpt>
      <trkpt lat="45.30052" lon="6.14231">
        <ele>2716.3999023438</ele>
        <time>2013-04-07T12:32:47.000Z</time>
      </trkpt>
      <trkpt lat="45.30054" lon="6.14222">
        <ele>2717</ele>
        <time>2013-04-07T12:32:53.000Z</time>
      </trkpt>
      <trkpt lat="45.30057" lon="6.14214">
        <ele>2718.3999023438</ele>
        <time>2013-04-07T12:32:59.000Z</time>
      </trkpt>
      <trkpt lat="45.30058" lon="6.14207">
        <ele>2719.3999023438</ele>
        <time>2013-04-07T12:33:05.000Z</time>
      </trkpt>
      <trkpt lat="45.30059" lon="6.14203">
        <ele>2720.1999511719</ele>
        <time>2013-04-07T12:33:10.000Z</time>
      </trkpt>
      <trkpt lat="45.3006" lon="6.14206">
        <ele>2720.8000488281</ele>
        <time>2013-04-07T12:33:17.000Z</time>
      </trkpt>
      <trkpt lat="45.30059" lon="6.14203">
        <ele>2721</ele>
        <time>2013-04-07T12:33:19.000Z</time>
      </trkpt>
      <trkpt lat="45.30059" lon="6.14198">
        <ele>2721.8000488281</ele>
        <time>2013-04-07T12:33:24.000Z</time>
      </trkpt>
      <trkpt lat="45.3006" lon="6.14192">
        <ele>2723</ele>
        <time>2013-04-07T12:33:29.000Z</time>
      </trkpt>
      <trkpt lat="45.30061" lon="6.14189">
        <ele>2723.8000488281</ele>
        <time>2013-04-07T12:33:33.000Z</time>
      </trkpt>
      <trkpt lat="45.30061" lon="6.14182">
        <ele>2724.8000488281</ele>
        <time>2013-04-07T12:33:39.000Z</time>
      </trkpt>
      <trkpt lat="45.30057" lon="6.14185">
        <ele>2725.3999023438</ele>
        <time>2013-04-07T12:33:45.000Z</time>
      </trkpt>
      <trkpt lat="45.30054" lon="6.14187">
        <ele>2726.3999023438</ele>
        <time>2013-04-07T12:33:51.000Z</time>
      </trkpt>
      <trkpt lat="45.3005" lon="6.14188">
        <ele>2727</ele>
        <time>2013-04-07T12:33:55.000Z</time>
      </trkpt>
      <trkpt lat="45.30046" lon="6.14191">
        <ele>2728.3999023438</ele>
        <time>2013-04-07T12:34:02.000Z</time>
      </trkpt>
      <trkpt lat="45.30043" lon="6.14198">
        <ele>2729.6000976562</ele>
        <time>2013-04-07T12:34:10.000Z</time>
      </trkpt>
      <trkpt lat="45.30043" lon="6.14199">
        <ele>2729.8000488281</ele>
        <time>2013-04-07T12:34:11.000Z</time>
      </trkpt>
      <trkpt lat="45.30039" lon="6.14202">
        <ele>2730.8000488281</ele>
        <time>2013-04-07T12:34:17.000Z</time>
      </trkpt>
      <trkpt lat="45.3004" lon="6.14194">
        <ele>2731.6000976562</ele>
        <time>2013-04-07T12:34:24.000Z</time>
      </trkpt>
      <trkpt lat="45.3004" lon="6.14187">
        <ele>2732.6000976562</ele>
        <time>2013-04-07T12:34:30.000Z</time>
      </trkpt>
      <trkpt lat="45.30041" lon="6.14183">
        <ele>2733.6000976562</ele>
        <time>2013-04-07T12:34:35.000Z</time>
      </trkpt>
      <trkpt lat="45.30044" lon="6.14179">
        <ele>2734.1999511719</ele>
        <time>2013-04-07T12:34:43.000Z</time>
      </trkpt>
      <trkpt lat="45.30043" lon="6.14179">
        <ele>2734.3999023438</ele>
        <time>2013-04-07T12:34:44.000Z</time>
      </trkpt>
      <trkpt lat="45.30038" lon="6.14186">
        <ele>2735.6000976562</ele>
        <time>2013-04-07T12:34:52.000Z</time>
      </trkpt>
      <trkpt lat="45.30032" lon="6.14189">
        <ele>2737.1999511719</ele>
        <time>2013-04-07T12:34:58.000Z</time>
      </trkpt>
      <trkpt lat="45.3003" lon="6.14194">
        <ele>2738.6000976562</ele>
        <time>2013-04-07T12:35:05.000Z</time>
      </trkpt>
      <trkpt lat="45.30027" lon="6.14198">
        <ele>2739.3999023438</ele>
        <time>2013-04-07T12:35:11.000Z</time>
      </trkpt>
      <trkpt lat="45.30021" lon="6.14201">
        <ele>2740</ele>
        <time>2013-04-07T12:35:27.000Z</time>
      </trkpt>
      <trkpt lat="45.30021" lon="6.14202">
        <ele>2740.1999511719</ele>
        <time>2013-04-07T12:35:43.000Z</time>
      </trkpt>
      <trkpt lat="45.30022" lon="6.14199">
        <ele>2740.6000976562</ele>
        <time>2013-04-07T12:35:49.000Z</time>
      </trkpt>
      <trkpt lat="45.30022" lon="6.14194">
        <ele>2740.8000488281</ele>
        <time>2013-04-07T12:35:55.000Z</time>
      </trkpt>
      <trkpt lat="45.30023" lon="6.14193">
        <ele>2741.1999511719</ele>
        <time>2013-04-07T12:35:57.000Z</time>
      </trkpt>
      <trkpt lat="45.30025" lon="6.14186">
        <ele>2742.8000488281</ele>
        <time>2013-04-07T12:36:05.000Z</time>
      </trkpt>
      <trkpt lat="45.30026" lon="6.14182">
        <ele>2743.6000976562</ele>
        <time>2013-04-07T12:36:11.000Z</time>
      </trkpt>
      <trkpt lat="45.30029" lon="6.14177">
        <ele>2744.1999511719</ele>
        <time>2013-04-07T12:36:56.000Z</time>
      </trkpt>
      <trkpt lat="45.30035" lon="6.14177">
        <ele>2744.6000976562</ele>
        <time>2013-04-07T12:39:50.000Z</time>
      </trkpt>
      <trkpt lat="45.30011" lon="6.14164">
        <ele>2742.3999023438</ele>
        <time>2013-04-07T12:41:50.000Z</time>
      </trkpt>
      <trkpt lat="45.30012" lon="6.14166">
        <ele>2743</ele>
        <time>2013-04-07T12:41:56.000Z</time>
      </trkpt>
      <trkpt lat="45.30014" lon="6.1417">
        <ele>2745</ele>
        <time>2013-04-07T12:42:08.000Z</time>
      </trkpt>
      <trkpt lat="45.30013" lon="6.14175">
        <ele>2748.6000976562</ele>
        <time>2013-04-07T12:42:31.000Z</time>
      </trkpt>
      <trkpt lat="45.30013" lon="6.14173">
        <ele>2750.1999511719</ele>
        <time>2013-04-07T12:42:38.000Z</time>
      </trkpt>
      <trkpt lat="45.3001" lon="6.14173">
        <ele>2751.6000976562</ele>
        <time>2013-04-07T12:42:44.000Z</time>
      </trkpt>
      <trkpt lat="45.3001" lon="6.14173">
        <ele>2752.6000976562</ele>
        <time>2013-04-07T12:43:00.000Z</time>
      </trkpt>
      <trkpt lat="45.3001" lon="6.14173">
        <ele>2753.8000488281</ele>
        <time>2013-04-07T12:43:06.000Z</time>
      </trkpt>
      <trkpt lat="45.3001" lon="6.14173">
        <ele>2755.3999023438</ele>
        <time>2013-04-07T12:43:12.000Z</time>
      </trkpt>
      <trkpt lat="45.30006" lon="6.14172">
        <ele>2756.8000488281</ele>
        <time>2013-04-07T12:43:18.000Z</time>
      </trkpt>
      <trkpt lat="45.30003" lon="6.14169">
        <ele>2758.1999511719</ele>
        <time>2013-04-07T12:43:26.000Z</time>
      </trkpt>
      <trkpt lat="45.29999" lon="6.1417">
        <ele>2760.6000976562</ele>
        <time>2013-04-07T12:43:40.000Z</time>
      </trkpt>
      <trkpt lat="45.29994" lon="6.14167">
        <ele>2762.6000976562</ele>
        <time>2013-04-07T12:43:56.000Z</time>
      </trkpt>
      <trkpt lat="45.29994" lon="6.14168">
        <ele>2764.8000488281</ele>
        <time>2013-04-07T12:44:11.000Z</time>
      </trkpt>
      <trkpt lat="45.29991" lon="6.14167">
        <ele>2768.3999023438</ele>
        <time>2013-04-07T12:44:30.000Z</time>
      </trkpt>
      <trkpt lat="45.29991" lon="6.14168">
        <ele>2768.8000488281</ele>
        <time>2013-04-07T12:44:35.000Z</time>
      </trkpt>
      <trkpt lat="45.29991" lon="6.14168">
        <ele>2770.1999511719</ele>
        <time>2013-04-07T12:44:43.000Z</time>
      </trkpt>
      <trkpt lat="45.29992" lon="6.14169">
        <ele>2772.3999023438</ele>
        <time>2013-04-07T12:44:57.000Z</time>
      </trkpt>
      <trkpt lat="45.29987" lon="6.14169">
        <ele>2773.8000488281</ele>
        <time>2013-04-07T12:45:06.000Z</time>
      </trkpt>
      <trkpt lat="45.29984" lon="6.1417">
        <ele>2775.1999511719</ele>
        <time>2013-04-07T12:45:16.000Z</time>
      </trkpt>
      <trkpt lat="45.29985" lon="6.14169">
        <ele>2776.1999511719</ele>
        <time>2013-04-07T12:45:24.000Z</time>
      </trkpt>
      <trkpt lat="45.29985" lon="6.14168">
        <ele>2777.3999023438</ele>
        <time>2013-04-07T12:45:36.000Z</time>
      </trkpt>
      <trkpt lat="45.29982" lon="6.14169">
        <ele>2778.6000976562</ele>
        <time>2013-04-07T12:45:43.000Z</time>
      </trkpt>
      <trkpt lat="45.2998" lon="6.14168">
        <ele>2779.8000488281</ele>
        <time>2013-04-07T12:45:51.000Z</time>
      </trkpt>
      <trkpt lat="45.29982" lon="6.14167">
        <ele>2781.6000976562</ele>
        <time>2013-04-07T12:45:58.000Z</time>
      </trkpt>
      <trkpt lat="45.29976" lon="6.14164">
        <ele>2786.6000976562</ele>
        <time>2013-04-07T12:46:21.000Z</time>
      </trkpt>
      <trkpt lat="45.29977" lon="6.14162">
        <ele>2789.8000488281</ele>
        <time>2013-04-07T12:46:48.000Z</time>
      </trkpt>
      <trkpt lat="45.29976" lon="6.14161">
        <ele>2794.6000976562</ele>
        <time>2013-04-07T12:47:12.000Z</time>
      </trkpt>
      <trkpt lat="45.29974" lon="6.14161">
        <ele>2796</ele>
        <time>2013-04-07T12:47:20.000Z</time>
      </trkpt>
      <trkpt lat="45.29972" lon="6.14161">
        <ele>2797.1999511719</ele>
        <time>2013-04-07T12:47:38.000Z</time>
      </trkpt>
      <trkpt lat="45.29971" lon="6.1416">
        <ele>2798.6000976562</ele>
        <time>2013-04-07T12:47:45.000Z</time>
      </trkpt>
      <trkpt lat="45.29967" lon="6.14156">
        <ele>2804</ele>
        <time>2013-04-07T12:48:11.000Z</time>
      </trkpt>
      <trkpt lat="45.29966" lon="6.14155">
        <ele>2805</ele>
        <time>2013-04-07T12:48:21.000Z</time>
      </trkpt>
      <trkpt lat="45.29966" lon="6.14155">
        <ele>2806</ele>
        <time>2013-04-07T12:48:27.000Z</time>
      </trkpt>
      <trkpt lat="45.29965" lon="6.14154">
        <ele>2807</ele>
        <time>2013-04-07T12:48:32.000Z</time>
      </trkpt>
      <trkpt lat="45.29964" lon="6.14153">
        <ele>2808.8000488281</ele>
        <time>2013-04-07T12:48:42.000Z</time>
      </trkpt>
      <trkpt lat="45.29963" lon="6.14152">
        <ele>2809.8000488281</ele>
        <time>2013-04-07T12:48:48.000Z</time>
      </trkpt>
      <trkpt lat="45.29963" lon="6.14155">
        <ele>2811.6000976562</ele>
        <time>2013-04-07T12:49:10.000Z</time>
      </trkpt>
      <trkpt lat="45.29963" lon="6.14152">
        <ele>2814.1999511719</ele>
        <time>2013-04-07T12:49:21.000Z</time>
      </trkpt>
      <trkpt lat="45.29959" lon="6.14148">
        <ele>2817.3999023438</ele>
        <time>2013-04-07T12:49:38.000Z</time>
      </trkpt>
      <trkpt lat="45.29956" lon="6.14145">
        <ele>2820</ele>
        <time>2013-04-07T12:49:50.000Z</time>
      </trkpt>
      <trkpt lat="45.29954" lon="6.14144">
        <ele>2822.6000976562</ele>
        <time>2013-04-07T12:50:24.000Z</time>
      </trkpt>
      <trkpt lat="45.29953" lon="6.14143">
        <ele>2823.3999023438</ele>
        <time>2013-04-07T12:50:29.000Z</time>
      </trkpt>
      <trkpt lat="45.29953" lon="6.14141">
        <ele>2825.6000976562</ele>
        <time>2013-04-07T12:50:38.000Z</time>
      </trkpt>
      <trkpt lat="45.2995" lon="6.14139">
        <ele>2827.6000976562</ele>
        <time>2013-04-07T12:50:46.000Z</time>
      </trkpt>
      <trkpt lat="45.29947" lon="6.14139">
        <ele>2829.3999023438</ele>
        <time>2013-04-07T12:50:56.000Z</time>
      </trkpt>
      <trkpt lat="45.29947" lon="6.14138">
        <ele>2831.6000976562</ele>
        <time>2013-04-07T12:51:06.000Z</time>
      </trkpt>
      <trkpt lat="45.29946" lon="6.14137">
        <ele>2832.8000488281</ele>
        <time>2013-04-07T12:51:15.000Z</time>
      </trkpt>
      <trkpt lat="45.29945" lon="6.14136">
        <ele>2834</ele>
        <time>2013-04-07T12:51:22.000Z</time>
      </trkpt>
      <trkpt lat="45.29946" lon="6.14136">
        <ele>2835</ele>
        <time>2013-04-07T12:51:28.000Z</time>
      </trkpt>
      <trkpt lat="45.29945" lon="6.14136">
        <ele>2835.8000488281</ele>
        <time>2013-04-07T12:51:44.000Z</time>
      </trkpt>
      <trkpt lat="45.29943" lon="6.14135">
        <ele>2837.1999511719</ele>
        <time>2013-04-07T12:51:49.000Z</time>
      </trkpt>
      <trkpt lat="45.29942" lon="6.14134">
        <ele>2838</ele>
        <time>2013-04-07T12:51:53.000Z</time>
      </trkpt>
      <trkpt lat="45.2994" lon="6.14134">
        <ele>2839.1999511719</ele>
        <time>2013-04-07T12:51:58.000Z</time>
      </trkpt>
      <trkpt lat="45.2994" lon="6.14133">
        <ele>2840.6000976562</ele>
        <time>2013-04-07T12:52:04.000Z</time>
      </trkpt>
      <trkpt lat="45.29939" lon="6.14132">
        <ele>2842.1999511719</ele>
        <time>2013-04-07T12:52:13.000Z</time>
      </trkpt>
      <trkpt lat="45.29937" lon="6.14132">
        <ele>2843.6000976562</ele>
        <time>2013-04-07T12:52:19.000Z</time>
      </trkpt>
      <trkpt lat="45.29935" lon="6.14131">
        <ele>2844.3999023438</ele>
        <time>2013-04-07T12:52:24.000Z</time>
      </trkpt>
      <trkpt lat="45.29932" lon="6.1413">
        <ele>2845.1999511719</ele>
        <time>2013-04-07T12:52:37.000Z</time>
      </trkpt>
      <trkpt lat="45.29932" lon="6.14131">
        <ele>2846.3999023438</ele>
        <time>2013-04-07T12:52:44.000Z</time>
      </trkpt>
      <trkpt lat="45.29932" lon="6.1413">
        <ele>2848</ele>
        <time>2013-04-07T12:52:51.000Z</time>
      </trkpt>
      <trkpt lat="45.29931" lon="6.1413">
        <ele>2849.8000488281</ele>
        <time>2013-04-07T12:53:00.000Z</time>
      </trkpt>
      <trkpt lat="45.29931" lon="6.1413">
        <ele>2850.8000488281</ele>
        <time>2013-04-07T12:53:07.000Z</time>
      </trkpt>
      <trkpt lat="45.2993" lon="6.1413">
        <ele>2853.3999023438</ele>
        <time>2013-04-07T12:53:36.000Z</time>
      </trkpt>
      <trkpt lat="45.2993" lon="6.14131">
        <ele>2854.1999511719</ele>
        <time>2013-04-07T12:53:42.000Z</time>
      </trkpt>
      <trkpt lat="45.29928" lon="6.14131">
        <ele>2855.3999023438</ele>
        <time>2013-04-07T12:53:48.000Z</time>
      </trkpt>
      <trkpt lat="45.29927" lon="6.14131">
        <ele>2856.6000976562</ele>
        <time>2013-04-07T12:53:54.000Z</time>
      </trkpt>
      <trkpt lat="45.29926" lon="6.14132">
        <ele>2857.6000976562</ele>
        <time>2013-04-07T12:54:00.000Z</time>
      </trkpt>
      <trkpt lat="45.29925" lon="6.14132">
        <ele>2859</ele>
        <time>2013-04-07T12:54:07.000Z</time>
      </trkpt>
      <trkpt lat="45.29926" lon="6.14132">
        <ele>2860.1999511719</ele>
        <time>2013-04-07T12:54:27.000Z</time>
      </trkpt>
      <trkpt lat="45.29923" lon="6.14132">
        <ele>2861.8000488281</ele>
        <time>2013-04-07T12:54:34.000Z</time>
      </trkpt>
      <trkpt lat="45.29919" lon="6.14132">
        <ele>2862.6000976562</ele>
        <time>2013-04-07T12:54:39.000Z</time>
      </trkpt>
      <trkpt lat="45.29919" lon="6.14132">
        <ele>2863.3999023438</ele>
        <time>2013-04-07T12:54:46.000Z</time>
      </trkpt>
      <trkpt lat="45.29918" lon="6.14131">
        <ele>2865</ele>
        <time>2013-04-07T12:54:53.000Z</time>
      </trkpt>
      <trkpt lat="45.29919" lon="6.14131">
        <ele>2866.1999511719</ele>
        <time>2013-04-07T12:55:01.000Z</time>
      </trkpt>
      <trkpt lat="45.29919" lon="6.14131">
        <ele>2867.6000976562</ele>
        <time>2013-04-07T12:55:11.000Z</time>
      </trkpt>
      <trkpt lat="45.29916" lon="6.14128">
        <ele>2868.8000488281</ele>
        <time>2013-04-07T12:55:23.000Z</time>
      </trkpt>
      <trkpt lat="45.29916" lon="6.14127">
        <ele>2870.1999511719</ele>
        <time>2013-04-07T12:55:32.000Z</time>
      </trkpt>
      <trkpt lat="45.29914" lon="6.14127">
        <ele>2871.3999023438</ele>
        <time>2013-04-07T12:55:38.000Z</time>
      </trkpt>
      <trkpt lat="45.29912" lon="6.14127">
        <ele>2872.3999023438</ele>
        <time>2013-04-07T12:55:45.000Z</time>
      </trkpt>
      <trkpt lat="45.2991" lon="6.14126">
        <ele>2873.8000488281</ele>
        <time>2013-04-07T12:55:54.000Z</time>
      </trkpt>
      <trkpt lat="45.29909" lon="6.14126">
        <ele>2874.3999023438</ele>
        <time>2013-04-07T12:56:00.000Z</time>
      </trkpt>
      <trkpt lat="45.2991" lon="6.14125">
        <ele>2875.8000488281</ele>
        <time>2013-04-07T12:56:08.000Z</time>
      </trkpt>
      <trkpt lat="45.29907" lon="6.14124">
        <ele>2878.6000976562</ele>
        <time>2013-04-07T12:56:22.000Z</time>
      </trkpt>
      <trkpt lat="45.29906" lon="6.14123">
        <ele>2879.1999511719</ele>
        <time>2013-04-07T12:56:28.000Z</time>
      </trkpt>
      <trkpt lat="45.29906" lon="6.14123">
        <ele>2880</ele>
        <time>2013-04-07T12:56:36.000Z</time>
      </trkpt>
      <trkpt lat="45.29906" lon="6.14123">
        <ele>2881</ele>
        <time>2013-04-07T12:56:42.000Z</time>
      </trkpt>
      <trkpt lat="45.29904" lon="6.14122">
        <ele>2881.8000488281</ele>
        <time>2013-04-07T12:56:48.000Z</time>
      </trkpt>
      <trkpt lat="45.29903" lon="6.14122">
        <ele>2882.8000488281</ele>
        <time>2013-04-07T12:56:53.000Z</time>
      </trkpt>
      <trkpt lat="45.29903" lon="6.14122">
        <ele>2883.3999023438</ele>
        <time>2013-04-07T12:56:59.000Z</time>
      </trkpt>
      <trkpt lat="45.29902" lon="6.14123">
        <ele>2884.3999023438</ele>
        <time>2013-04-07T12:57:06.000Z</time>
      </trkpt>
      <trkpt lat="45.299" lon="6.14124">
        <ele>2885.6000976562</ele>
        <time>2013-04-07T12:57:14.000Z</time>
      </trkpt>
      <trkpt lat="45.29899" lon="6.14126">
        <ele>2887</ele>
        <time>2013-04-07T12:57:25.000Z</time>
      </trkpt>
      <trkpt lat="45.29898" lon="6.14126">
        <ele>2887.6000976562</ele>
        <time>2013-04-07T12:57:30.000Z</time>
      </trkpt>
      <trkpt lat="45.29897" lon="6.14125">
        <ele>2889.3999023438</ele>
        <time>2013-04-07T12:57:42.000Z</time>
      </trkpt>
      <trkpt lat="45.29897" lon="6.14124">
        <ele>2890.8000488281</ele>
        <time>2013-04-07T12:57:49.000Z</time>
      </trkpt>
      <trkpt lat="45.29896" lon="6.14124">
        <ele>2892.3999023438</ele>
        <time>2013-04-07T12:58:01.000Z</time>
      </trkpt>
      <trkpt lat="45.29894" lon="6.14124">
        <ele>2893.6000976562</ele>
        <time>2013-04-07T12:58:07.000Z</time>
      </trkpt>
      <trkpt lat="45.29892" lon="6.14126">
        <ele>2895</ele>
        <time>2013-04-07T12:58:15.000Z</time>
      </trkpt>
      <trkpt lat="45.29891" lon="6.14127">
        <ele>2897</ele>
        <time>2013-04-07T12:58:30.000Z</time>
      </trkpt>
      <trkpt lat="45.29891" lon="6.14129">
        <ele>2897.6000976562</ele>
        <time>2013-04-07T12:58:35.000Z</time>
      </trkpt>
      <trkpt lat="45.29892" lon="6.1413">
        <ele>2897.8000488281</ele>
        <time>2013-04-07T12:58:42.000Z</time>
      </trkpt>
      <trkpt lat="45.29888" lon="6.14126">
        <ele>2896.1999511719</ele>
        <time>2013-04-07T13:02:07.000Z</time>
      </trkpt>
      <trkpt lat="45.29887" lon="6.14126">
        <ele>2898.6000976562</ele>
        <time>2013-04-07T13:02:15.000Z</time>
      </trkpt>
      <trkpt lat="45.29887" lon="6.14126">
        <ele>2897</ele>
        <time>2013-04-07T13:02:24.000Z</time>
      </trkpt>
      <trkpt lat="45.29895" lon="6.14128">
        <ele>2893.6000976562</ele>
        <time>2013-04-07T13:10:16.000Z</time>
      </trkpt>
      <trkpt lat="45.29897" lon="6.14125">
        <ele>2892.3999023438</ele>
        <time>2013-04-07T13:10:23.000Z</time>
      </trkpt>
      <trkpt lat="45.29897" lon="6.14125">
        <ele>2891.8000488281</ele>
        <time>2013-04-07T13:10:25.000Z</time>
      </trkpt>
      <trkpt lat="45.299" lon="6.14125">
        <ele>2889.6000976562</ele>
        <time>2013-04-07T13:10:31.000Z</time>
      </trkpt>
      <trkpt lat="45.29903" lon="6.14126">
        <ele>2887.8000488281</ele>
        <time>2013-04-07T13:10:37.000Z</time>
      </trkpt>
      <trkpt lat="45.29904" lon="6.14125">
        <ele>2885.3999023438</ele>
        <time>2013-04-07T13:10:44.000Z</time>
      </trkpt>
      <trkpt lat="45.29904" lon="6.14123">
        <ele>2881.8000488281</ele>
        <time>2013-04-07T13:10:57.000Z</time>
      </trkpt>
      <trkpt lat="45.2991" lon="6.14122">
        <ele>2880.3999023438</ele>
        <time>2013-04-07T13:11:05.000Z</time>
      </trkpt>
      <trkpt lat="45.2991" lon="6.14126">
        <ele>2879.1999511719</ele>
        <time>2013-04-07T13:11:25.000Z</time>
      </trkpt>
      <trkpt lat="45.29911" lon="6.14126">
        <ele>2878</ele>
        <time>2013-04-07T13:11:30.000Z</time>
      </trkpt>
      <trkpt lat="45.29911" lon="6.14126">
        <ele>2877.1999511719</ele>
        <time>2013-04-07T13:11:32.000Z</time>
      </trkpt>
      <trkpt lat="45.29913" lon="6.14127">
        <ele>2875.3999023438</ele>
        <time>2013-04-07T13:11:38.000Z</time>
      </trkpt>
      <trkpt lat="45.29913" lon="6.14127">
        <ele>2875</ele>
        <time>2013-04-07T13:11:39.000Z</time>
      </trkpt>
      <trkpt lat="45.29913" lon="6.14129">
        <ele>2873.1999511719</ele>
        <time>2013-04-07T13:11:44.000Z</time>
      </trkpt>
      <trkpt lat="45.29908" lon="6.14132">
        <ele>2869.6000976562</ele>
        <time>2013-04-07T13:13:24.000Z</time>
      </trkpt>
      <trkpt lat="45.29913" lon="6.14129">
        <ele>2868.3999023438</ele>
        <time>2013-04-07T13:13:28.000Z</time>
      </trkpt>
      <trkpt lat="45.29913" lon="6.14129">
        <ele>2867.8000488281</ele>
        <time>2013-04-07T13:13:29.000Z</time>
      </trkpt>
      <trkpt lat="45.29916" lon="6.14134">
        <ele>2865.6000976562</ele>
        <time>2013-04-07T13:13:32.000Z</time>
      </trkpt>
      <trkpt lat="45.2992" lon="6.14131">
        <ele>2861.6000976562</ele>
        <time>2013-04-07T13:13:36.000Z</time>
      </trkpt>
      <trkpt lat="45.29921" lon="6.14131">
        <ele>2859.6000976562</ele>
        <time>2013-04-07T13:13:39.000Z</time>
      </trkpt>
      <trkpt lat="45.29922" lon="6.14137">
        <ele>2855.8000488281</ele>
        <time>2013-04-07T13:13:43.000Z</time>
      </trkpt>
      <trkpt lat="45.29922" lon="6.14137">
        <ele>2855.3999023438</ele>
        <time>2013-04-07T13:13:44.000Z</time>
      </trkpt>
      <trkpt lat="45.29929" lon="6.14129">
        <ele>2851.8000488281</ele>
        <time>2013-04-07T13:13:49.000Z</time>
      </trkpt>
      <trkpt lat="45.29931" lon="6.14127">
        <ele>2850</ele>
        <time>2013-04-07T13:13:51.000Z</time>
      </trkpt>
      <trkpt lat="45.29933" lon="6.14128">
        <ele>2847.8000488281</ele>
        <time>2013-04-07T13:13:53.000Z</time>
      </trkpt>
      <trkpt lat="45.29941" lon="6.14129">
        <ele>2842.1999511719</ele>
        <time>2013-04-07T13:13:58.000Z</time>
      </trkpt>
      <trkpt lat="45.29945" lon="6.14123">
        <ele>2838.1999511719</ele>
        <time>2013-04-07T13:14:01.000Z</time>
      </trkpt>
      <trkpt lat="45.29945" lon="6.14123">
        <ele>2837</ele>
        <time>2013-04-07T13:14:02.000Z</time>
      </trkpt>
      <trkpt lat="45.29948" lon="6.14126">
        <ele>2835.6000976562</ele>
        <time>2013-04-07T13:14:04.000Z</time>
      </trkpt>
      <trkpt lat="45.29947" lon="6.14133">
        <ele>2832.3999023438</ele>
        <time>2013-04-07T13:14:07.000Z</time>
      </trkpt>
      <trkpt lat="45.29946" lon="6.14134">
        <ele>2830.6000976562</ele>
        <time>2013-04-07T13:14:10.000Z</time>
      </trkpt>
      <trkpt lat="45.2995" lon="6.14134">
        <ele>2828</ele>
        <time>2013-04-07T13:14:14.000Z</time>
      </trkpt>
      <trkpt lat="45.29952" lon="6.1414">
        <ele>2823.8000488281</ele>
        <time>2013-04-07T13:14:18.000Z</time>
      </trkpt>
      <trkpt lat="45.29957" lon="6.1414">
        <ele>2819.3999023438</ele>
        <time>2013-04-07T13:14:21.000Z</time>
      </trkpt>
      <trkpt lat="45.29958" lon="6.14139">
        <ele>2818</ele>
        <time>2013-04-07T13:14:22.000Z</time>
      </trkpt>
      <trkpt lat="45.2996" lon="6.14146">
        <ele>2812.3999023438</ele>
        <time>2013-04-07T13:14:26.000Z</time>
      </trkpt>
      <trkpt lat="45.2996" lon="6.14148">
        <ele>2808.8000488281</ele>
        <time>2013-04-07T13:14:30.000Z</time>
      </trkpt>
      <trkpt lat="45.29959" lon="6.14158">
        <ele>2807.1999511719</ele>
        <time>2013-04-07T13:14:36.000Z</time>
      </trkpt>
      <trkpt lat="45.29956" lon="6.14174">
        <ele>2805.1999511719</ele>
        <time>2013-04-07T13:14:41.000Z</time>
      </trkpt>
      <trkpt lat="45.29956" lon="6.14178">
        <ele>2803.1999511719</ele>
        <time>2013-04-07T13:14:44.000Z</time>
      </trkpt>
      <trkpt lat="45.29955" lon="6.14179">
        <ele>2801.8000488281</ele>
        <time>2013-04-07T13:14:48.000Z</time>
      </trkpt>
      <trkpt lat="45.29961" lon="6.1418">
        <ele>2800.1999511719</ele>
        <time>2013-04-07T13:14:52.000Z</time>
      </trkpt>
      <trkpt lat="45.29963" lon="6.14193">
        <ele>2796.3999023438</ele>
        <time>2013-04-07T13:14:55.000Z</time>
      </trkpt>
      <trkpt lat="45.29962" lon="6.14196">
        <ele>2796.3999023438</ele>
        <time>2013-04-07T13:14:56.000Z</time>
      </trkpt>
      <trkpt lat="45.29971" lon="6.14192">
        <ele>2791.1999511719</ele>
        <time>2013-04-07T13:14:59.000Z</time>
      </trkpt>
      <trkpt lat="45.29974" lon="6.142">
        <ele>2785.3999023438</ele>
        <time>2013-04-07T13:15:02.000Z</time>
      </trkpt>
      <trkpt lat="45.29974" lon="6.14212">
        <ele>2778.3999023438</ele>
        <time>2013-04-07T13:15:06.000Z</time>
      </trkpt>
      <trkpt lat="45.29981" lon="6.14217">
        <ele>2771.1999511719</ele>
        <time>2013-04-07T13:15:10.000Z</time>
      </trkpt>
      <trkpt lat="45.2998" lon="6.14231">
        <ele>2765.6000976562</ele>
        <time>2013-04-07T13:15:13.000Z</time>
      </trkpt>
      <trkpt lat="45.29982" lon="6.14231">
        <ele>2761.6000976562</ele>
        <time>2013-04-07T13:15:15.000Z</time>
      </trkpt>
      <trkpt lat="45.29989" lon="6.14231">
        <ele>2751.8000488281</ele>
        <time>2013-04-07T13:15:21.000Z</time>
      </trkpt>
      <trkpt lat="45.29989" lon="6.1423">
        <ele>2748.8000488281</ele>
        <time>2013-04-07T13:15:23.000Z</time>
      </trkpt>
      <trkpt lat="45.2999" lon="6.14229">
        <ele>2746.3999023438</ele>
        <time>2013-04-07T13:15:27.000Z</time>
      </trkpt>
      <trkpt lat="45.29997" lon="6.14219">
        <ele>2745</ele>
        <time>2013-04-07T13:15:32.000Z</time>
      </trkpt>
      <trkpt lat="45.30002" lon="6.14234">
        <ele>2742</ele>
        <time>2013-04-07T13:15:36.000Z</time>
      </trkpt>
      <trkpt lat="45.29996" lon="6.1427">
        <ele>2736.1999511719</ele>
        <time>2013-04-07T13:15:43.000Z</time>
      </trkpt>
      <trkpt lat="45.29994" lon="6.14278">
        <ele>2735.3999023438</ele>
        <time>2013-04-07T13:15:45.000Z</time>
      </trkpt>
      <trkpt lat="45.29995" lon="6.14281">
        <ele>2735.1999511719</ele>
        <time>2013-04-07T13:15:47.000Z</time>
      </trkpt>
      <trkpt lat="45.30006" lon="6.14276">
        <ele>2732.6000976562</ele>
        <time>2013-04-07T13:15:51.000Z</time>
      </trkpt>
      <trkpt lat="45.30005" lon="6.14289">
        <ele>2728.8000488281</ele>
        <time>2013-04-07T13:15:54.000Z</time>
      </trkpt>
      <trkpt lat="45.30007" lon="6.14289">
        <ele>2727.3999023438</ele>
        <time>2013-04-07T13:15:55.000Z</time>
      </trkpt>
      <trkpt lat="45.30018" lon="6.14293">
        <ele>2718.6000976562</ele>
        <time>2013-04-07T13:16:00.000Z</time>
      </trkpt>
      <trkpt lat="45.30026" lon="6.14287">
        <ele>2714</ele>
        <time>2013-04-07T13:16:02.000Z</time>
      </trkpt>
      <trkpt lat="45.30028" lon="6.14292">
        <ele>2709.1999511719</ele>
        <time>2013-04-07T13:16:04.000Z</time>
      </trkpt>
      <trkpt lat="45.30026" lon="6.14299">
        <ele>2703.3999023438</ele>
        <time>2013-04-07T13:16:07.000Z</time>
      </trkpt>
      <trkpt lat="45.30025" lon="6.14301">
        <ele>2700.1999511719</ele>
        <time>2013-04-07T13:16:11.000Z</time>
      </trkpt>
      <trkpt lat="45.30034" lon="6.14297">
        <ele>2698.3999023438</ele>
        <time>2013-04-07T13:16:15.000Z</time>
      </trkpt>
      <trkpt lat="45.30037" lon="6.14302">
        <ele>2695.3999023438</ele>
        <time>2013-04-07T13:16:18.000Z</time>
      </trkpt>
      <trkpt lat="45.30036" lon="6.14304">
        <ele>2691</ele>
        <time>2013-04-07T13:16:22.000Z</time>
      </trkpt>
      <trkpt lat="45.30035" lon="6.14306">
        <ele>2689.6000976562</ele>
        <time>2013-04-07T13:16:25.000Z</time>
      </trkpt>
      <trkpt lat="45.30036" lon="6.14306">
        <ele>2689</ele>
        <time>2013-04-07T13:16:51.000Z</time>
      </trkpt>
      <trkpt lat="45.30036" lon="6.14318">
        <ele>2688</ele>
        <time>2013-04-07T13:16:55.000Z</time>
      </trkpt>
      <trkpt lat="45.30035" lon="6.14323">
        <ele>2687.3999023438</ele>
        <time>2013-04-07T13:16:56.000Z</time>
      </trkpt>
      <trkpt lat="45.30028" lon="6.14358">
        <ele>2682.6000976562</ele>
        <time>2013-04-07T13:17:02.000Z</time>
      </trkpt>
      <trkpt lat="45.30026" lon="6.14362">
        <ele>2682.6000976562</ele>
        <time>2013-04-07T13:17:03.000Z</time>
      </trkpt>
      <trkpt lat="45.30017" lon="6.14395">
        <ele>2678</ele>
        <time>2013-04-07T13:17:12.000Z</time>
      </trkpt>
      <trkpt lat="45.30017" lon="6.14399">
        <ele>2676.8000488281</ele>
        <time>2013-04-07T13:17:14.000Z</time>
      </trkpt>
      <trkpt lat="45.30018" lon="6.14418">
        <ele>2671.3999023438</ele>
        <time>2013-04-07T13:17:18.000Z</time>
      </trkpt>
      <trkpt lat="45.30014" lon="6.14439">
        <ele>2665.6000976562</ele>
        <time>2013-04-07T13:17:22.000Z</time>
      </trkpt>
      <trkpt lat="45.3002" lon="6.14446">
        <ele>2661.8000488281</ele>
        <time>2013-04-07T13:17:26.000Z</time>
      </trkpt>
      <trkpt lat="45.30023" lon="6.14453">
        <ele>2661.8000488281</ele>
        <time>2013-04-07T13:17:27.000Z</time>
      </trkpt>
      <trkpt lat="45.30023" lon="6.14467">
        <ele>2657.8000488281</ele>
        <time>2013-04-07T13:17:30.000Z</time>
      </trkpt>
      <trkpt lat="45.30023" lon="6.14475">
        <ele>2652.6000976562</ele>
        <time>2013-04-07T13:17:33.000Z</time>
      </trkpt>
      <trkpt lat="45.30021" lon="6.14484">
        <ele>2649.3999023438</ele>
        <time>2013-04-07T13:17:35.000Z</time>
      </trkpt>
      <trkpt lat="45.30013" lon="6.14498">
        <ele>2643.8000488281</ele>
        <time>2013-04-07T13:17:41.000Z</time>
      </trkpt>
      <trkpt lat="45.30004" lon="6.14508">
        <ele>2642.6000976562</ele>
        <time>2013-04-07T13:17:47.000Z</time>
      </trkpt>
      <trkpt lat="45.29997" lon="6.14519">
        <ele>2641.8000488281</ele>
        <time>2013-04-07T13:17:53.000Z</time>
      </trkpt>
      <trkpt lat="45.29993" lon="6.14529">
        <ele>2641.1999511719</ele>
        <time>2013-04-07T13:18:00.000Z</time>
      </trkpt>
      <trkpt lat="45.29988" lon="6.14527">
        <ele>2641.3999023438</ele>
        <time>2013-04-07T13:18:36.000Z</time>
      </trkpt>
      <trkpt lat="45.29984" lon="6.14527">
        <ele>2642.1999511719</ele>
        <time>2013-04-07T13:18:42.000Z</time>
      </trkpt>
      <trkpt lat="45.29982" lon="6.14527">
        <ele>2643</ele>
        <time>2013-04-07T13:18:47.000Z</time>
      </trkpt>
      <trkpt lat="45.29981" lon="6.14525">
        <ele>2643.8000488281</ele>
        <time>2013-04-07T13:19:17.000Z</time>
      </trkpt>
      <trkpt lat="45.29981" lon="6.14525">
        <ele>2644</ele>
        <time>2013-04-07T13:19:18.000Z</time>
      </trkpt>
      <trkpt lat="45.29978" lon="6.14527">
        <ele>2644.1999511719</ele>
        <time>2013-04-07T13:19:24.000Z</time>
      </trkpt>
      <trkpt lat="45.29975" lon="6.14527">
        <ele>2645</ele>
        <time>2013-04-07T13:19:30.000Z</time>
      </trkpt>
      <trkpt lat="45.29972" lon="6.14527">
        <ele>2645.3999023438</ele>
        <time>2013-04-07T13:19:34.000Z</time>
      </trkpt>
      <trkpt lat="45.2997" lon="6.1453">
        <ele>2646.3999023438</ele>
        <time>2013-04-07T13:19:40.000Z</time>
      </trkpt>
      <trkpt lat="45.29968" lon="6.14531">
        <ele>2647.1999511719</ele>
        <time>2013-04-07T13:19:45.000Z</time>
      </trkpt>
      <trkpt lat="45.29965" lon="6.1453">
        <ele>2647.8000488281</ele>
        <time>2013-04-07T13:19:49.000Z</time>
      </trkpt>
      <trkpt lat="45.29963" lon="6.14529">
        <ele>2648.3999023438</ele>
        <time>2013-04-07T13:19:53.000Z</time>
      </trkpt>
      <trkpt lat="45.29962" lon="6.14528">
        <ele>2649.1999511719</ele>
        <time>2013-04-07T13:19:57.000Z</time>
      </trkpt>
      <trkpt lat="45.29959" lon="6.14527">
        <ele>2650</ele>
        <time>2013-04-07T13:20:03.000Z</time>
      </trkpt>
      <trkpt lat="45.29957" lon="6.14528">
        <ele>2650.3999023438</ele>
        <time>2013-04-07T13:20:07.000Z</time>
      </trkpt>
      <trkpt lat="45.29955" lon="6.14529">
        <ele>2651</ele>
        <time>2013-04-07T13:20:11.000Z</time>
      </trkpt>
      <trkpt lat="45.29954" lon="6.14529">
        <ele>2651.6000976562</ele>
        <time>2013-04-07T13:20:16.000Z</time>
      </trkpt>
      <trkpt lat="45.29954" lon="6.14529">
        <ele>2651.8000488281</ele>
        <time>2013-04-07T13:20:18.000Z</time>
      </trkpt>
      <trkpt lat="45.29954" lon="6.14532">
        <ele>2652.1999511719</ele>
        <time>2013-04-07T13:20:25.000Z</time>
      </trkpt>
      <trkpt lat="45.29954" lon="6.14532">
        <ele>2652.3999023438</ele>
        <time>2013-04-07T13:20:26.000Z</time>
      </trkpt>
      <trkpt lat="45.29952" lon="6.14535">
        <ele>2652.8000488281</ele>
        <time>2013-04-07T13:20:31.000Z</time>
      </trkpt>
      <trkpt lat="45.2995" lon="6.14537">
        <ele>2653.6000976562</ele>
        <time>2013-04-07T13:20:37.000Z</time>
      </trkpt>
      <trkpt lat="45.29948" lon="6.14538">
        <ele>2654.1999511719</ele>
        <time>2013-04-07T13:20:41.000Z</time>
      </trkpt>
      <trkpt lat="45.29946" lon="6.1454">
        <ele>2654.8000488281</ele>
        <time>2013-04-07T13:20:46.000Z</time>
      </trkpt>
      <trkpt lat="45.29944" lon="6.14541">
        <ele>2655</ele>
        <time>2013-04-07T13:20:51.000Z</time>
      </trkpt>
      <trkpt lat="45.29942" lon="6.14542">
        <ele>2655.8000488281</ele>
        <time>2013-04-07T13:20:55.000Z</time>
      </trkpt>
      <trkpt lat="45.29941" lon="6.14542">
        <ele>2656.6000976562</ele>
        <time>2013-04-07T13:21:02.000Z</time>
      </trkpt>
      <trkpt lat="45.2994" lon="6.14541">
        <ele>2657.3999023438</ele>
        <time>2013-04-07T13:21:06.000Z</time>
      </trkpt>
      <trkpt lat="45.2994" lon="6.14543">
        <ele>2658.3999023438</ele>
        <time>2013-04-07T13:21:17.000Z</time>
      </trkpt>
      <trkpt lat="45.29938" lon="6.14544">
        <ele>2659.1999511719</ele>
        <time>2013-04-07T13:21:22.000Z</time>
      </trkpt>
      <trkpt lat="45.29935" lon="6.14546">
        <ele>2660.3999023438</ele>
        <time>2013-04-07T13:21:30.000Z</time>
      </trkpt>
      <trkpt lat="45.29934" lon="6.14546">
        <ele>2661.1999511719</ele>
        <time>2013-04-07T13:21:35.000Z</time>
      </trkpt>
      <trkpt lat="45.29933" lon="6.14548">
        <ele>2662.1999511719</ele>
        <time>2013-04-07T13:21:41.000Z</time>
      </trkpt>
      <trkpt lat="45.29931" lon="6.14549">
        <ele>2662.6000976562</ele>
        <time>2013-04-07T13:21:46.000Z</time>
      </trkpt>
      <trkpt lat="45.29927" lon="6.14555">
        <ele>2664.1999511719</ele>
        <time>2013-04-07T13:21:58.000Z</time>
      </trkpt>
      <trkpt lat="45.29924" lon="6.1455">
        <ele>2667.6000976562</ele>
        <time>2013-04-07T13:22:26.000Z</time>
      </trkpt>
      <trkpt lat="45.29924" lon="6.14548">
        <ele>2668</ele>
        <time>2013-04-07T13:22:31.000Z</time>
      </trkpt>
      <trkpt lat="45.29922" lon="6.14545">
        <ele>2669</ele>
        <time>2013-04-07T13:22:38.000Z</time>
      </trkpt>
      <trkpt lat="45.2992" lon="6.14543">
        <ele>2670</ele>
        <time>2013-04-07T13:22:43.000Z</time>
      </trkpt>
      <trkpt lat="45.29918" lon="6.14541">
        <ele>2671.3999023438</ele>
        <time>2013-04-07T13:22:50.000Z</time>
      </trkpt>
      <trkpt lat="45.29916" lon="6.14541">
        <ele>2672.1999511719</ele>
        <time>2013-04-07T13:22:58.000Z</time>
      </trkpt>
      <trkpt lat="45.29913" lon="6.1454">
        <ele>2673.3999023438</ele>
        <time>2013-04-07T13:23:07.000Z</time>
      </trkpt>
      <trkpt lat="45.29911" lon="6.14541">
        <ele>2674.1999511719</ele>
        <time>2013-04-07T13:23:14.000Z</time>
      </trkpt>
      <trkpt lat="45.29909" lon="6.14541">
        <ele>2675</ele>
        <time>2013-04-07T13:23:19.000Z</time>
      </trkpt>
      <trkpt lat="45.29907" lon="6.14541">
        <ele>2675.8000488281</ele>
        <time>2013-04-07T13:23:25.000Z</time>
      </trkpt>
      <trkpt lat="45.29905" lon="6.1454">
        <ele>2676.3999023438</ele>
        <time>2013-04-07T13:23:29.000Z</time>
      </trkpt>
      <trkpt lat="45.29904" lon="6.14539">
        <ele>2677.3999023438</ele>
        <time>2013-04-07T13:23:35.000Z</time>
      </trkpt>
      <trkpt lat="45.29901" lon="6.14537">
        <ele>2678</ele>
        <time>2013-04-07T13:23:41.000Z</time>
      </trkpt>
      <trkpt lat="45.29899" lon="6.14535">
        <ele>2679</ele>
        <time>2013-04-07T13:23:49.000Z</time>
      </trkpt>
      <trkpt lat="45.29896" lon="6.14534">
        <ele>2680</ele>
        <time>2013-04-07T13:23:55.000Z</time>
      </trkpt>
      <trkpt lat="45.29894" lon="6.14535">
        <ele>2681.1999511719</ele>
        <time>2013-04-07T13:24:06.000Z</time>
      </trkpt>
      <trkpt lat="45.29891" lon="6.14532">
        <ele>2681.6000976562</ele>
        <time>2013-04-07T13:24:11.000Z</time>
      </trkpt>
      <trkpt lat="45.29891" lon="6.1453">
        <ele>2682.3999023438</ele>
        <time>2013-04-07T13:24:18.000Z</time>
      </trkpt>
      <trkpt lat="45.29888" lon="6.14528">
        <ele>2682.6000976562</ele>
        <time>2013-04-07T13:24:23.000Z</time>
      </trkpt>
      <trkpt lat="45.29887" lon="6.14527">
        <ele>2683</ele>
        <time>2013-04-07T13:24:26.000Z</time>
      </trkpt>
      <trkpt lat="45.29885" lon="6.14528">
        <ele>2683.3999023438</ele>
        <time>2013-04-07T13:24:31.000Z</time>
      </trkpt>
      <trkpt lat="45.29884" lon="6.14534">
        <ele>2684</ele>
        <time>2013-04-07T13:25:22.000Z</time>
      </trkpt>
      <trkpt lat="45.29879" lon="6.14533">
        <ele>2683.6000976562</ele>
        <time>2013-04-07T13:26:53.000Z</time>
      </trkpt>
      <trkpt lat="45.29873" lon="6.14535">
        <ele>2683.3999023438</ele>
        <time>2013-04-07T13:27:02.000Z</time>
      </trkpt>
      <trkpt lat="45.29875" lon="6.14538">
        <ele>2683</ele>
        <time>2013-04-07T13:27:08.000Z</time>
      </trkpt>
      <trkpt lat="45.29871" lon="6.14542">
        <ele>2683</ele>
        <time>2013-04-07T13:27:12.000Z</time>
      </trkpt>
      <trkpt lat="45.29873" lon="6.1456">
        <ele>2682</ele>
        <time>2013-04-07T13:27:17.000Z</time>
      </trkpt>
      <trkpt lat="45.29881" lon="6.14578">
        <ele>2680.6000976562</ele>
        <time>2013-04-07T13:27:21.000Z</time>
      </trkpt>
      <trkpt lat="45.29874" lon="6.1459">
        <ele>2679.1999511719</ele>
        <time>2013-04-07T13:27:24.000Z</time>
      </trkpt>
      <trkpt lat="45.29871" lon="6.14592">
        <ele>2678.1999511719</ele>
        <time>2013-04-07T13:27:25.000Z</time>
      </trkpt>
      <trkpt lat="45.2985" lon="6.14623">
        <ele>2669.1999511719</ele>
        <time>2013-04-07T13:27:30.000Z</time>
      </trkpt>
      <trkpt lat="45.29842" lon="6.14648">
        <ele>2661</ele>
        <time>2013-04-07T13:27:33.000Z</time>
      </trkpt>
      <trkpt lat="45.29838" lon="6.14668">
        <ele>2658.1999511719</ele>
        <time>2013-04-07T13:27:35.000Z</time>
      </trkpt>
      <trkpt lat="45.29839" lon="6.14693">
        <ele>2651.6000976562</ele>
        <time>2013-04-07T13:27:38.000Z</time>
      </trkpt>
      <trkpt lat="45.29833" lon="6.14716">
        <ele>2646.6000976562</ele>
        <time>2013-04-07T13:27:41.000Z</time>
      </trkpt>
      <trkpt lat="45.29837" lon="6.14731">
        <ele>2643.3999023438</ele>
        <time>2013-04-07T13:27:43.000Z</time>
      </trkpt>
      <trkpt lat="45.29831" lon="6.14775">
        <ele>2633.1999511719</ele>
        <time>2013-04-07T13:27:48.000Z</time>
      </trkpt>
      <trkpt lat="45.29846" lon="6.14842">
        <ele>2621.1999511719</ele>
        <time>2013-04-07T13:27:53.000Z</time>
      </trkpt>
      <trkpt lat="45.29852" lon="6.14862">
        <ele>2617.6000976562</ele>
        <time>2013-04-07T13:27:55.000Z</time>
      </trkpt>
      <trkpt lat="45.29843" lon="6.1488">
        <ele>2613</ele>
        <time>2013-04-07T13:27:59.000Z</time>
      </trkpt>
      <trkpt lat="45.29837" lon="6.14894">
        <ele>2611.8000488281</ele>
        <time>2013-04-07T13:28:01.000Z</time>
      </trkpt>
      <trkpt lat="45.29839" lon="6.14903">
        <ele>2608.1999511719</ele>
        <time>2013-04-07T13:28:04.000Z</time>
      </trkpt>
      <trkpt lat="45.2984" lon="6.14899">
        <ele>2604</ele>
        <time>2013-04-07T13:28:09.000Z</time>
      </trkpt>
      <trkpt lat="45.29838" lon="6.14903">
        <ele>2603.6000976562</ele>
        <time>2013-04-07T13:28:48.000Z</time>
      </trkpt>
      <trkpt lat="45.2984" lon="6.14921">
        <ele>2603.1999511719</ele>
        <time>2013-04-07T13:28:55.000Z</time>
      </trkpt>
      <trkpt lat="45.29844" lon="6.14948">
        <ele>2601.1999511719</ele>
        <time>2013-04-07T13:29:02.000Z</time>
      </trkpt>
      <trkpt lat="45.29847" lon="6.14977">
        <ele>2599.6000976562</ele>
        <time>2013-04-07T13:29:07.000Z</time>
      </trkpt>
      <trkpt lat="45.29853" lon="6.15008">
        <ele>2597</ele>
        <time>2013-04-07T13:29:13.000Z</time>
      </trkpt>
      <trkpt lat="45.29858" lon="6.15037">
        <ele>2595.1999511719</ele>
        <time>2013-04-07T13:29:20.000Z</time>
      </trkpt>
      <trkpt lat="45.29858" lon="6.15042">
        <ele>2594.1999511719</ele>
        <time>2013-04-07T13:29:23.000Z</time>
      </trkpt>
      <trkpt lat="45.2986" lon="6.15049">
        <ele>2593.6000976562</ele>
        <time>2013-04-07T13:29:40.000Z</time>
      </trkpt>
      <trkpt lat="45.29861" lon="6.15051">
        <ele>2593.3999023438</ele>
        <time>2013-04-07T13:29:41.000Z</time>
      </trkpt>
      <trkpt lat="45.29863" lon="6.1506">
        <ele>2593</ele>
        <time>2013-04-07T13:29:45.000Z</time>
      </trkpt>
      <trkpt lat="45.29865" lon="6.15069">
        <ele>2592.6000976562</ele>
        <time>2013-04-07T13:29:47.000Z</time>
      </trkpt>
      <trkpt lat="45.29853" lon="6.15091">
        <ele>2590.1999511719</ele>
        <time>2013-04-07T13:29:51.000Z</time>
      </trkpt>
      <trkpt lat="45.29845" lon="6.15131">
        <ele>2584.3999023438</ele>
        <time>2013-04-07T13:29:55.000Z</time>
      </trkpt>
      <trkpt lat="45.29838" lon="6.15173">
        <ele>2576.3999023438</ele>
        <time>2013-04-07T13:29:59.000Z</time>
      </trkpt>
      <trkpt lat="45.2984" lon="6.1519">
        <ele>2572.6000976562</ele>
        <time>2013-04-07T13:30:01.000Z</time>
      </trkpt>
      <trkpt lat="45.2984" lon="6.15204">
        <ele>2569</ele>
        <time>2013-04-07T13:30:03.000Z</time>
      </trkpt>
      <trkpt lat="45.2984" lon="6.15238">
        <ele>2563.8000488281</ele>
        <time>2013-04-07T13:30:07.000Z</time>
      </trkpt>
      <trkpt lat="45.29839" lon="6.1525">
        <ele>2562.1999511719</ele>
        <time>2013-04-07T13:30:08.000Z</time>
      </trkpt>
      <trkpt lat="45.29832" lon="6.1528">
        <ele>2557.8000488281</ele>
        <time>2013-04-07T13:30:10.000Z</time>
      </trkpt>
      <trkpt lat="45.29836" lon="6.15347">
        <ele>2545.8000488281</ele>
        <time>2013-04-07T13:30:14.000Z</time>
      </trkpt>
      <trkpt lat="45.29831" lon="6.15378">
        <ele>2539.6000976562</ele>
        <time>2013-04-07T13:30:16.000Z</time>
      </trkpt>
      <trkpt lat="45.29816" lon="6.15427">
        <ele>2530.3999023438</ele>
        <time>2013-04-07T13:30:20.000Z</time>
      </trkpt>
      <trkpt lat="45.298" lon="6.15478">
        <ele>2523.3999023438</ele>
        <time>2013-04-07T13:30:25.000Z</time>
      </trkpt>
      <trkpt lat="45.29798" lon="6.15507">
        <ele>2520</ele>
        <time>2013-04-07T13:30:28.000Z</time>
      </trkpt>
      <trkpt lat="45.29797" lon="6.15509">
        <ele>2517.1999511719</ele>
        <time>2013-04-07T13:30:30.000Z</time>
      </trkpt>
      <trkpt lat="45.29799" lon="6.15505">
        <ele>2515.1999511719</ele>
        <time>2013-04-07T13:30:33.000Z</time>
      </trkpt>
      <trkpt lat="45.298" lon="6.15503">
        <ele>2512.1999511719</ele>
        <time>2013-04-07T13:30:37.000Z</time>
      </trkpt>
      <trkpt lat="45.29795" lon="6.15505">
        <ele>2511.8000488281</ele>
        <time>2013-04-07T13:31:10.000Z</time>
      </trkpt>
      <trkpt lat="45.29803" lon="6.15516">
        <ele>2510.8000488281</ele>
        <time>2013-04-07T13:31:14.000Z</time>
      </trkpt>
      <trkpt lat="45.29826" lon="6.1552">
        <ele>2507.8000488281</ele>
        <time>2013-04-07T13:31:17.000Z</time>
      </trkpt>
      <trkpt lat="45.29847" lon="6.15557">
        <ele>2501.6000976562</ele>
        <time>2013-04-07T13:31:21.000Z</time>
      </trkpt>
      <trkpt lat="45.29851" lon="6.15584">
        <ele>2499.3999023438</ele>
        <time>2013-04-07T13:31:23.000Z</time>
      </trkpt>
      <trkpt lat="45.29856" lon="6.15625">
        <ele>2492.6000976562</ele>
        <time>2013-04-07T13:31:26.000Z</time>
      </trkpt>
      <trkpt lat="45.29855" lon="6.15639">
        <ele>2490</ele>
        <time>2013-04-07T13:31:27.000Z</time>
      </trkpt>
      <trkpt lat="45.29849" lon="6.15647">
        <ele>2485.1999511719</ele>
        <time>2013-04-07T13:31:29.000Z</time>
      </trkpt>
      <trkpt lat="45.29827" lon="6.1569">
        <ele>2474.8000488281</ele>
        <time>2013-04-07T13:31:33.000Z</time>
      </trkpt>
      <trkpt lat="45.29795" lon="6.15704">
        <ele>2464.8000488281</ele>
        <time>2013-04-07T13:31:36.000Z</time>
      </trkpt>
      <trkpt lat="45.29758" lon="6.15732">
        <ele>2454.1999511719</ele>
        <time>2013-04-07T13:31:39.000Z</time>
      </trkpt>
      <trkpt lat="45.29736" lon="6.15771">
        <ele>2445.3999023438</ele>
        <time>2013-04-07T13:31:42.000Z</time>
      </trkpt>
      <trkpt lat="45.29704" lon="6.1579">
        <ele>2437.3999023438</ele>
        <time>2013-04-07T13:31:46.000Z</time>
      </trkpt>
      <trkpt lat="45.297" lon="6.15788">
        <ele>2435.8000488281</ele>
        <time>2013-04-07T13:31:47.000Z</time>
      </trkpt>
      <trkpt lat="45.29698" lon="6.15784">
        <ele>2433.3999023438</ele>
        <time>2013-04-07T13:31:51.000Z</time>
      </trkpt>
      <trkpt lat="45.29701" lon="6.15789">
        <ele>2431.8000488281</ele>
        <time>2013-04-07T13:32:23.000Z</time>
      </trkpt>
      <trkpt lat="45.297" lon="6.15779">
        <ele>2432.8000488281</ele>
        <time>2013-04-07T13:33:17.000Z</time>
      </trkpt>
      <trkpt lat="45.29698" lon="6.15789">
        <ele>2432.3999023438</ele>
        <time>2013-04-07T13:33:20.000Z</time>
      </trkpt>
      <trkpt lat="45.297" lon="6.15798">
        <ele>2431.8000488281</ele>
        <time>2013-04-07T13:33:21.000Z</time>
      </trkpt>
      <trkpt lat="45.29708" lon="6.15824">
        <ele>2430</ele>
        <time>2013-04-07T13:33:24.000Z</time>
      </trkpt>
      <trkpt lat="45.2971" lon="6.15866">
        <ele>2425.6000976562</ele>
        <time>2013-04-07T13:33:28.000Z</time>
      </trkpt>
      <trkpt lat="45.2971" lon="6.15879">
        <ele>2424.1999511719</ele>
        <time>2013-04-07T13:33:29.000Z</time>
      </trkpt>
      <trkpt lat="45.29706" lon="6.15929">
        <ele>2419.3999023438</ele>
        <time>2013-04-07T13:33:33.000Z</time>
      </trkpt>
      <trkpt lat="45.29688" lon="6.15942">
        <ele>2413.8000488281</ele>
        <time>2013-04-07T13:33:36.000Z</time>
      </trkpt>
      <trkpt lat="45.29672" lon="6.15953">
        <ele>2409.1999511719</ele>
        <time>2013-04-07T13:33:38.000Z</time>
      </trkpt>
      <trkpt lat="45.2964" lon="6.16018">
        <ele>2394.6000976562</ele>
        <time>2013-04-07T13:33:43.000Z</time>
      </trkpt>
      <trkpt lat="45.29615" lon="6.16066">
        <ele>2385.3999023438</ele>
        <time>2013-04-07T13:33:47.000Z</time>
      </trkpt>
      <trkpt lat="45.29584" lon="6.16088">
        <ele>2379</ele>
        <time>2013-04-07T13:33:51.000Z</time>
      </trkpt>
      <trkpt lat="45.29576" lon="6.16132">
        <ele>2374.8000488281</ele>
        <time>2013-04-07T13:33:54.000Z</time>
      </trkpt>
      <trkpt lat="45.29578" lon="6.16149">
        <ele>2372.6000976562</ele>
        <time>2013-04-07T13:33:55.000Z</time>
      </trkpt>
      <trkpt lat="45.29575" lon="6.16223">
        <ele>2362.1999511719</ele>
        <time>2013-04-07T13:33:59.000Z</time>
      </trkpt>
      <trkpt lat="45.2957" lon="6.1625">
        <ele>2357</ele>
        <time>2013-04-07T13:34:01.000Z</time>
      </trkpt>
      <trkpt lat="45.29581" lon="6.16271">
        <ele>2349.6000976562</ele>
        <time>2013-04-07T13:34:05.000Z</time>
      </trkpt>
      <trkpt lat="45.29589" lon="6.16272">
        <ele>2348.6000976562</ele>
        <time>2013-04-07T13:34:06.000Z</time>
      </trkpt>
      <trkpt lat="45.29633" lon="6.16287">
        <ele>2342.8000488281</ele>
        <time>2013-04-07T13:34:12.000Z</time>
      </trkpt>
      <trkpt lat="45.29666" lon="6.16309">
        <ele>2339.8000488281</ele>
        <time>2013-04-07T13:34:16.000Z</time>
      </trkpt>
      <trkpt lat="45.29672" lon="6.16317">
        <ele>2338.8000488281</ele>
        <time>2013-04-07T13:34:19.000Z</time>
      </trkpt>
      <trkpt lat="45.29684" lon="6.16328">
        <ele>2337</ele>
        <time>2013-04-07T13:34:24.000Z</time>
      </trkpt>
      <trkpt lat="45.29688" lon="6.16327">
        <ele>2335.8000488281</ele>
        <time>2013-04-07T13:34:27.000Z</time>
      </trkpt>
      <trkpt lat="45.29695" lon="6.16324">
        <ele>2334.3999023438</ele>
        <time>2013-04-07T13:34:31.000Z</time>
      </trkpt>
      <trkpt lat="45.29729" lon="6.16327">
        <ele>2331.3999023438</ele>
        <time>2013-04-07T13:34:35.000Z</time>
      </trkpt>
      <trkpt lat="45.29737" lon="6.16347">
        <ele>2329.1999511719</ele>
        <time>2013-04-07T13:34:37.000Z</time>
      </trkpt>
      <trkpt lat="45.29738" lon="6.16376">
        <ele>2326</ele>
        <time>2013-04-07T13:34:39.000Z</time>
      </trkpt>
      <trkpt lat="45.29737" lon="6.16403">
        <ele>2320.6000976562</ele>
        <time>2013-04-07T13:34:42.000Z</time>
      </trkpt>
      <trkpt lat="45.29736" lon="6.16409">
        <ele>2317.1999511719</ele>
        <time>2013-04-07T13:34:45.000Z</time>
      </trkpt>
      <trkpt lat="45.29739" lon="6.16402">
        <ele>2312.8000488281</ele>
        <time>2013-04-07T13:34:49.000Z</time>
      </trkpt>
      <trkpt lat="45.29737" lon="6.16405">
        <ele>2311.3999023438</ele>
        <time>2013-04-07T13:35:46.000Z</time>
      </trkpt>
      <trkpt lat="45.29737" lon="6.16433">
        <ele>2309.8000488281</ele>
        <time>2013-04-07T13:35:50.000Z</time>
      </trkpt>
      <trkpt lat="45.2974" lon="6.16466">
        <ele>2305.8000488281</ele>
        <time>2013-04-07T13:35:53.000Z</time>
      </trkpt>
      <trkpt lat="45.2974" lon="6.16533">
        <ele>2296.8000488281</ele>
        <time>2013-04-07T13:35:58.000Z</time>
      </trkpt>
      <trkpt lat="45.29739" lon="6.16547">
        <ele>2295.6000976562</ele>
        <time>2013-04-07T13:36:00.000Z</time>
      </trkpt>
      <trkpt lat="45.29739" lon="6.16551">
        <ele>2293.8000488281</ele>
        <time>2013-04-07T13:36:03.000Z</time>
      </trkpt>
      <trkpt lat="45.29739" lon="6.16552">
        <ele>2293.3999023438</ele>
        <time>2013-04-07T13:36:08.000Z</time>
      </trkpt>
      <trkpt lat="45.29752" lon="6.16557">
        <ele>2292.6000976562</ele>
        <time>2013-04-07T13:36:12.000Z</time>
      </trkpt>
      <trkpt lat="45.29755" lon="6.16564">
        <ele>2291.8000488281</ele>
        <time>2013-04-07T13:36:13.000Z</time>
      </trkpt>
      <trkpt lat="45.29753" lon="6.16571">
        <ele>2288.8000488281</ele>
        <time>2013-04-07T13:36:16.000Z</time>
      </trkpt>
      <trkpt lat="45.29752" lon="6.16572">
        <ele>2285.6000976562</ele>
        <time>2013-04-07T13:36:20.000Z</time>
      </trkpt>
      <trkpt lat="45.29765" lon="6.16578">
        <ele>2283.1999511719</ele>
        <time>2013-04-07T13:36:24.000Z</time>
      </trkpt>
      <trkpt lat="45.29763" lon="6.16581">
        <ele>2282.1999511719</ele>
        <time>2013-04-07T13:36:26.000Z</time>
      </trkpt>
      <trkpt lat="45.29763" lon="6.16578">
        <ele>2276.6000976562</ele>
        <time>2013-04-07T13:36:33.000Z</time>
      </trkpt>
      <trkpt lat="45.29761" lon="6.1658">
        <ele>2276</ele>
        <time>2013-04-07T13:36:41.000Z</time>
      </trkpt>
      <trkpt lat="45.29762" lon="6.166">
        <ele>2273.8000488281</ele>
        <time>2013-04-07T13:36:45.000Z</time>
      </trkpt>
      <trkpt lat="45.29763" lon="6.16616">
        <ele>2271.3999023438</ele>
        <time>2013-04-07T13:36:47.000Z</time>
      </trkpt>
      <trkpt lat="45.29763" lon="6.1663">
        <ele>2269</ele>
        <time>2013-04-07T13:36:49.000Z</time>
      </trkpt>
      <trkpt lat="45.29774" lon="6.16626">
        <ele>2267.3999023438</ele>
        <time>2013-04-07T13:36:51.000Z</time>
      </trkpt>
      <trkpt lat="45.29785" lon="6.16642">
        <ele>2260.6000976562</ele>
        <time>2013-04-07T13:36:54.000Z</time>
      </trkpt>
      <trkpt lat="45.29787" lon="6.16664">
        <ele>2255.3999023438</ele>
        <time>2013-04-07T13:36:56.000Z</time>
      </trkpt>
      <trkpt lat="45.29791" lon="6.16664">
        <ele>2252.3999023438</ele>
        <time>2013-04-07T13:36:57.000Z</time>
      </trkpt>
      <trkpt lat="45.29797" lon="6.16687">
        <ele>2237.8000488281</ele>
        <time>2013-04-07T13:37:02.000Z</time>
      </trkpt>
      <trkpt lat="45.29816" lon="6.16685">
        <ele>2232.1999511719</ele>
        <time>2013-04-07T13:37:04.000Z</time>
      </trkpt>
      <trkpt lat="45.29833" lon="6.16683">
        <ele>2222.6000976562</ele>
        <time>2013-04-07T13:37:07.000Z</time>
      </trkpt>
      <trkpt lat="45.29835" lon="6.16696">
        <ele>2216.3999023438</ele>
        <time>2013-04-07T13:37:09.000Z</time>
      </trkpt>
      <trkpt lat="45.2983" lon="6.1671">
        <ele>2211.1999511719</ele>
        <time>2013-04-07T13:37:11.000Z</time>
      </trkpt>
      <trkpt lat="45.29823" lon="6.1672">
        <ele>2205.8000488281</ele>
        <time>2013-04-07T13:37:15.000Z</time>
      </trkpt>
      <trkpt lat="45.29821" lon="6.16724">
        <ele>2205</ele>
        <time>2013-04-07T13:37:26.000Z</time>
      </trkpt>
      <trkpt lat="45.29821" lon="6.16726">
        <ele>2205</ele>
        <time>2013-04-07T13:37:32.000Z</time>
      </trkpt>
      <trkpt lat="45.29822" lon="6.16731">
        <ele>2204.8000488281</ele>
        <time>2013-04-07T13:37:34.000Z</time>
      </trkpt>
      <trkpt lat="45.29841" lon="6.16716">
        <ele>2201.6000976562</ele>
        <time>2013-04-07T13:37:38.000Z</time>
      </trkpt>
      <trkpt lat="45.29853" lon="6.16723">
        <ele>2197.1999511719</ele>
        <time>2013-04-07T13:37:41.000Z</time>
      </trkpt>
      <trkpt lat="45.29856" lon="6.16734">
        <ele>2197.1999511719</ele>
        <time>2013-04-07T13:37:42.000Z</time>
      </trkpt>
      <trkpt lat="45.29874" lon="6.1674">
        <ele>2190.3999023438</ele>
        <time>2013-04-07T13:37:45.000Z</time>
      </trkpt>
      <trkpt lat="45.29873" lon="6.16753">
        <ele>2183.6000976562</ele>
        <time>2013-04-07T13:37:48.000Z</time>
      </trkpt>
      <trkpt lat="45.29869" lon="6.16777">
        <ele>2176.3999023438</ele>
        <time>2013-04-07T13:37:51.000Z</time>
      </trkpt>
      <trkpt lat="45.29868" lon="6.16803">
        <ele>2169.8000488281</ele>
        <time>2013-04-07T13:37:54.000Z</time>
      </trkpt>
      <trkpt lat="45.29862" lon="6.16823">
        <ele>2164.3999023438</ele>
        <time>2013-04-07T13:37:57.000Z</time>
      </trkpt>
      <trkpt lat="45.29863" lon="6.16824">
        <ele>2162.8000488281</ele>
        <time>2013-04-07T13:37:58.000Z</time>
      </trkpt>
      <trkpt lat="45.29865" lon="6.16823">
        <ele>2158.6000976562</ele>
        <time>2013-04-07T13:38:03.000Z</time>
      </trkpt>
      <trkpt lat="45.29865" lon="6.16823">
        <ele>2158</ele>
        <time>2013-04-07T13:38:05.000Z</time>
      </trkpt>
      <trkpt lat="45.29874" lon="6.1682">
        <ele>2157.1999511719</ele>
        <time>2013-04-07T13:38:09.000Z</time>
      </trkpt>
      <trkpt lat="45.29891" lon="6.16814">
        <ele>2155</ele>
        <time>2013-04-07T13:38:12.000Z</time>
      </trkpt>
      <trkpt lat="45.29888" lon="6.16833">
        <ele>2150.3999023438</ele>
        <time>2013-04-07T13:38:15.000Z</time>
      </trkpt>
      <trkpt lat="45.29886" lon="6.16841">
        <ele>2148.8000488281</ele>
        <time>2013-04-07T13:38:16.000Z</time>
      </trkpt>
      <trkpt lat="45.29908" lon="6.16857">
        <ele>2141.1999511719</ele>
        <time>2013-04-07T13:38:20.000Z</time>
      </trkpt>
      <trkpt lat="45.29927" lon="6.16865">
        <ele>2135.6000976562</ele>
        <time>2013-04-07T13:38:23.000Z</time>
      </trkpt>
      <trkpt lat="45.29927" lon="6.16867">
        <ele>2129.6000976562</ele>
        <time>2013-04-07T13:38:28.000Z</time>
      </trkpt>
      <trkpt lat="45.29928" lon="6.16867">
        <ele>2129</ele>
        <time>2013-04-07T13:38:30.000Z</time>
      </trkpt>
      <trkpt lat="45.29918" lon="6.16869">
        <ele>2128.3999023438</ele>
        <time>2013-04-07T13:38:34.000Z</time>
      </trkpt>
      <trkpt lat="45.29915" lon="6.16869">
        <ele>2128</ele>
        <time>2013-04-07T13:38:35.000Z</time>
      </trkpt>
      <trkpt lat="45.29909" lon="6.1687">
        <ele>2125.8000488281</ele>
        <time>2013-04-07T13:38:39.000Z</time>
      </trkpt>
      <trkpt lat="45.29909" lon="6.1687">
        <ele>2125</ele>
        <time>2013-04-07T13:38:41.000Z</time>
      </trkpt>
      <trkpt lat="45.29904" lon="6.16883">
        <ele>2124</ele>
        <time>2013-04-07T13:38:45.000Z</time>
      </trkpt>
      <trkpt lat="45.2991" lon="6.16888">
        <ele>2121.8000488281</ele>
        <time>2013-04-07T13:38:49.000Z</time>
      </trkpt>
      <trkpt lat="45.29913" lon="6.16898">
        <ele>2117.6000976562</ele>
        <time>2013-04-07T13:38:53.000Z</time>
      </trkpt>
      <trkpt lat="45.29918" lon="6.16918">
        <ele>2112.1999511719</ele>
        <time>2013-04-07T13:38:57.000Z</time>
      </trkpt>
      <trkpt lat="45.29922" lon="6.16917">
        <ele>2112.1999511719</ele>
        <time>2013-04-07T13:38:58.000Z</time>
      </trkpt>
      <trkpt lat="45.2993" lon="6.16928">
        <ele>2107.6000976562</ele>
        <time>2013-04-07T13:39:01.000Z</time>
      </trkpt>
      <trkpt lat="45.29936" lon="6.16932">
        <ele>2106</ele>
        <time>2013-04-07T13:39:02.000Z</time>
      </trkpt>
      <trkpt lat="45.2993" lon="6.16963">
        <ele>2094.8000488281</ele>
        <time>2013-04-07T13:39:07.000Z</time>
      </trkpt>
      <trkpt lat="45.29928" lon="6.16971">
        <ele>2092.6000976562</ele>
        <time>2013-04-07T13:39:08.000Z</time>
      </trkpt>
      <trkpt lat="45.29923" lon="6.16988">
        <ele>2088.8000488281</ele>
        <time>2013-04-07T13:39:10.000Z</time>
      </trkpt>
      <trkpt lat="45.29916" lon="6.16999">
        <ele>2084.1999511719</ele>
        <time>2013-04-07T13:39:14.000Z</time>
      </trkpt>
      <trkpt lat="45.29912" lon="6.17001">
        <ele>2081.6000976562</ele>
        <time>2013-04-07T13:39:34.000Z</time>
      </trkpt>
      <trkpt lat="45.29913" lon="6.17018">
        <ele>2079.3999023438</ele>
        <time>2013-04-07T13:39:38.000Z</time>
      </trkpt>
      <trkpt lat="45.29923" lon="6.17044">
        <ele>2073.6000976562</ele>
        <time>2013-04-07T13:39:42.000Z</time>
      </trkpt>
      <trkpt lat="45.2994" lon="6.17083">
        <ele>2057.8000488281</ele>
        <time>2013-04-07T13:39:47.000Z</time>
      </trkpt>
      <trkpt lat="45.29942" lon="6.17089">
        <ele>2053.6000976562</ele>
        <time>2013-04-07T13:39:48.000Z</time>
      </trkpt>
      <trkpt lat="45.29944" lon="6.17085">
        <ele>2038</ele>
        <time>2013-04-07T13:39:53.000Z</time>
      </trkpt>
      <trkpt lat="45.29944" lon="6.17086">
        <ele>2034.4000244141</ele>
        <time>2013-04-07T13:39:57.000Z</time>
      </trkpt>
      <trkpt lat="45.29941" lon="6.17088">
        <ele>2034.5999755859</ele>
        <time>2013-04-07T13:40:19.000Z</time>
      </trkpt>
      <trkpt lat="45.29943" lon="6.1708">
        <ele>2035.1999511719</ele>
        <time>2013-04-07T13:41:43.000Z</time>
      </trkpt>
      <trkpt lat="45.29947" lon="6.17089">
        <ele>2034.4000244141</ele>
        <time>2013-04-07T13:41:47.000Z</time>
      </trkpt>
      <trkpt lat="45.29953" lon="6.17093">
        <ele>2032</ele>
        <time>2013-04-07T13:41:52.000Z</time>
      </trkpt>
      <trkpt lat="45.29954" lon="6.17109">
        <ele>2030.8000488281</ele>
        <time>2013-04-07T13:41:56.000Z</time>
      </trkpt>
      <trkpt lat="45.29965" lon="6.17128">
        <ele>2026.5999755859</ele>
        <time>2013-04-07T13:42:00.000Z</time>
      </trkpt>
      <trkpt lat="45.29977" lon="6.17135">
        <ele>2020</ele>
        <time>2013-04-07T13:42:03.000Z</time>
      </trkpt>
      <trkpt lat="45.29979" lon="6.17155">
        <ele>2012.4000244141</ele>
        <time>2013-04-07T13:42:06.000Z</time>
      </trkpt>
      <trkpt lat="45.29991" lon="6.1717">
        <ele>2004.1999511719</ele>
        <time>2013-04-07T13:42:09.000Z</time>
      </trkpt>
      <trkpt lat="45.30004" lon="6.17181">
        <ele>1993</ele>
        <time>2013-04-07T13:42:13.000Z</time>
      </trkpt>
      <trkpt lat="45.30002" lon="6.17181">
        <ele>1987.5999755859</ele>
        <time>2013-04-07T13:42:16.000Z</time>
      </trkpt>
      <trkpt lat="45.3" lon="6.17183">
        <ele>1985.4000244141</ele>
        <time>2013-04-07T13:42:19.000Z</time>
      </trkpt>
      <trkpt lat="45.29998" lon="6.17187">
        <ele>1985.1999511719</ele>
        <time>2013-04-07T13:42:55.000Z</time>
      </trkpt>
      <trkpt lat="45.29996" lon="6.17209">
        <ele>1983.4000244141</ele>
        <time>2013-04-07T13:42:59.000Z</time>
      </trkpt>
      <trkpt lat="45.30002" lon="6.17232">
        <ele>1979.4000244141</ele>
        <time>2013-04-07T13:43:02.000Z</time>
      </trkpt>
      <trkpt lat="45.30017" lon="6.17245">
        <ele>1973.1999511719</ele>
        <time>2013-04-07T13:43:05.000Z</time>
      </trkpt>
      <trkpt lat="45.30034" lon="6.17241">
        <ele>1968.4000244141</ele>
        <time>2013-04-07T13:43:07.000Z</time>
      </trkpt>
      <trkpt lat="45.30035" lon="6.17265">
        <ele>1960.8000488281</ele>
        <time>2013-04-07T13:43:10.000Z</time>
      </trkpt>
      <trkpt lat="45.30039" lon="6.17274">
        <ele>1960.8000488281</ele>
        <time>2013-04-07T13:43:11.000Z</time>
      </trkpt>
      <trkpt lat="45.30062" lon="6.17288">
        <ele>1952.8000488281</ele>
        <time>2013-04-07T13:43:14.000Z</time>
      </trkpt>
      <trkpt lat="45.30063" lon="6.17318">
        <ele>1943.4000244141</ele>
        <time>2013-04-07T13:43:17.000Z</time>
      </trkpt>
      <trkpt lat="45.30058" lon="6.17342">
        <ele>1936.8000488281</ele>
        <time>2013-04-07T13:43:19.000Z</time>
      </trkpt>
      <trkpt lat="45.30069" lon="6.17353">
        <ele>1930.1999511719</ele>
        <time>2013-04-07T13:43:21.000Z</time>
      </trkpt>
      <trkpt lat="45.30077" lon="6.17354">
        <ele>1927</ele>
        <time>2013-04-07T13:43:22.000Z</time>
      </trkpt>
      <trkpt lat="45.3009" lon="6.17393">
        <ele>1911.8000488281</ele>
        <time>2013-04-07T13:43:27.000Z</time>
      </trkpt>
      <trkpt lat="45.3008" lon="6.17413">
        <ele>1906.4000244141</ele>
        <time>2013-04-07T13:43:29.000Z</time>
      </trkpt>
      <trkpt lat="45.30091" lon="6.17424">
        <ele>1898.5999755859</ele>
        <time>2013-04-07T13:43:32.000Z</time>
      </trkpt>
      <trkpt lat="45.30089" lon="6.17444">
        <ele>1892.5999755859</ele>
        <time>2013-04-07T13:43:35.000Z</time>
      </trkpt>
      <trkpt lat="45.30087" lon="6.17448">
        <ele>1892.5999755859</ele>
        <time>2013-04-07T13:43:36.000Z</time>
      </trkpt>
      <trkpt lat="45.30088" lon="6.17445">
        <ele>1887.5999755859</ele>
        <time>2013-04-07T13:43:40.000Z</time>
      </trkpt>
      <trkpt lat="45.30088" lon="6.17446">
        <ele>1886.4000244141</ele>
        <time>2013-04-07T13:43:45.000Z</time>
      </trkpt>
      <trkpt lat="45.30085" lon="6.17457">
        <ele>1885.8000488281</ele>
        <time>2013-04-07T13:43:49.000Z</time>
      </trkpt>
      <trkpt lat="45.30081" lon="6.17479">
        <ele>1884</ele>
        <time>2013-04-07T13:43:53.000Z</time>
      </trkpt>
      <trkpt lat="45.30079" lon="6.17485">
        <ele>1883.1999511719</ele>
        <time>2013-04-07T13:43:54.000Z</time>
      </trkpt>
      <trkpt lat="45.30071" lon="6.17507">
        <ele>1880.1999511719</ele>
        <time>2013-04-07T13:43:59.000Z</time>
      </trkpt>
      <trkpt lat="45.30069" lon="6.17516">
        <ele>1878.8000488281</ele>
        <time>2013-04-07T13:44:01.000Z</time>
      </trkpt>
      <trkpt lat="45.30082" lon="6.17501">
        <ele>1877</ele>
        <time>2013-04-07T13:44:04.000Z</time>
      </trkpt>
      <trkpt lat="45.30093" lon="6.17493">
        <ele>1873.8000488281</ele>
        <time>2013-04-07T13:44:07.000Z</time>
      </trkpt>
      <trkpt lat="45.30096" lon="6.17515">
        <ele>1870.1999511719</ele>
        <time>2013-04-07T13:44:10.000Z</time>
      </trkpt>
      <trkpt lat="45.30117" lon="6.1752">
        <ele>1865.1999511719</ele>
        <time>2013-04-07T13:44:13.000Z</time>
      </trkpt>
      <trkpt lat="45.3013" lon="6.17517">
        <ele>1861.1999511719</ele>
        <time>2013-04-07T13:44:15.000Z</time>
      </trkpt>
      <trkpt lat="45.30133" lon="6.1754">
        <ele>1855.4000244141</ele>
        <time>2013-04-07T13:44:18.000Z</time>
      </trkpt>
      <trkpt lat="45.30148" lon="6.17565">
        <ele>1849.8000488281</ele>
        <time>2013-04-07T13:44:21.000Z</time>
      </trkpt>
      <trkpt lat="45.30155" lon="6.17586">
        <ele>1843.8000488281</ele>
        <time>2013-04-07T13:44:24.000Z</time>
      </trkpt>
      <trkpt lat="45.3015" lon="6.17597">
        <ele>1841.4000244141</ele>
        <time>2013-04-07T13:44:25.000Z</time>
      </trkpt>
      <trkpt lat="45.30158" lon="6.17658">
        <ele>1831</ele>
        <time>2013-04-07T13:44:30.000Z</time>
      </trkpt>
      <trkpt lat="45.30182" lon="6.17724">
        <ele>1817</ele>
        <time>2013-04-07T13:44:35.000Z</time>
      </trkpt>
      <trkpt lat="45.30185" lon="6.17761">
        <ele>1809.4000244141</ele>
        <time>2013-04-07T13:44:38.000Z</time>
      </trkpt>
      <trkpt lat="45.30172" lon="6.17776">
        <ele>1804.4000244141</ele>
        <time>2013-04-07T13:44:40.000Z</time>
      </trkpt>
      <trkpt lat="45.30165" lon="6.17779">
        <ele>1800.4000244141</ele>
        <time>2013-04-07T13:44:42.000Z</time>
      </trkpt>
      <trkpt lat="45.3016" lon="6.17783">
        <ele>1796.1999511719</ele>
        <time>2013-04-07T13:44:45.000Z</time>
      </trkpt>
      <trkpt lat="45.30162" lon="6.17789">
        <ele>1793.8000488281</ele>
        <time>2013-04-07T13:44:48.000Z</time>
      </trkpt>
      <trkpt lat="45.30162" lon="6.17789">
        <ele>1793.1999511719</ele>
        <time>2013-04-07T13:44:50.000Z</time>
      </trkpt>
      <trkpt lat="45.30168" lon="6.17778">
        <ele>1792.5999755859</ele>
        <time>2013-04-07T13:45:29.000Z</time>
      </trkpt>
      <trkpt lat="45.30171" lon="6.17793">
        <ele>1792.5999755859</ele>
        <time>2013-04-07T13:46:00.000Z</time>
      </trkpt>
      <trkpt lat="45.30177" lon="6.17804">
        <ele>1791.8000488281</ele>
        <time>2013-04-07T13:46:03.000Z</time>
      </trkpt>
      <trkpt lat="45.30178" lon="6.17827">
        <ele>1789.5999755859</ele>
        <time>2013-04-07T13:46:07.000Z</time>
      </trkpt>
      <trkpt lat="45.30174" lon="6.17834">
        <ele>1789.5999755859</ele>
        <time>2013-04-07T13:46:08.000Z</time>
      </trkpt>
      <trkpt lat="45.30168" lon="6.17866">
        <ele>1786</ele>
        <time>2013-04-07T13:46:11.000Z</time>
      </trkpt>
      <trkpt lat="45.30166" lon="6.1791">
        <ele>1779.1999511719</ele>
        <time>2013-04-07T13:46:15.000Z</time>
      </trkpt>
      <trkpt lat="45.30166" lon="6.17933">
        <ele>1775.1999511719</ele>
        <time>2013-04-07T13:46:17.000Z</time>
      </trkpt>
      <trkpt lat="45.30158" lon="6.17988">
        <ele>1764.1999511719</ele>
        <time>2013-04-07T13:46:22.000Z</time>
      </trkpt>
      <trkpt lat="45.30165" lon="6.18012">
        <ele>1757.4000244141</ele>
        <time>2013-04-07T13:46:25.000Z</time>
      </trkpt>
      <trkpt lat="45.30163" lon="6.18049">
        <ele>1750.5999755859</ele>
        <time>2013-04-07T13:46:29.000Z</time>
      </trkpt>
      <trkpt lat="45.30158" lon="6.18065">
        <ele>1748.1999511719</ele>
        <time>2013-04-07T13:46:31.000Z</time>
      </trkpt>
      <trkpt lat="45.30157" lon="6.18094">
        <ele>1745.5999755859</ele>
        <time>2013-04-07T13:46:34.000Z</time>
      </trkpt>
      <trkpt lat="45.30172" lon="6.18113">
        <ele>1741</ele>
        <time>2013-04-07T13:46:37.000Z</time>
      </trkpt>
      <trkpt lat="45.30175" lon="6.18138">
        <ele>1736.1999511719</ele>
        <time>2013-04-07T13:46:40.000Z</time>
      </trkpt>
      <trkpt lat="45.30171" lon="6.18179">
        <ele>1728</ele>
        <time>2013-04-07T13:46:45.000Z</time>
      </trkpt>
      <trkpt lat="45.30163" lon="6.18197">
        <ele>1722.4000244141</ele>
        <time>2013-04-07T13:46:49.000Z</time>
      </trkpt>
      <trkpt lat="45.30156" lon="6.18205">
        <ele>1719.5999755859</ele>
        <time>2013-04-07T13:46:52.000Z</time>
      </trkpt>
      <trkpt lat="45.30155" lon="6.18201">
        <ele>1717.1999511719</ele>
        <time>2013-04-07T13:46:56.000Z</time>
      </trkpt>
      <trkpt lat="45.30156" lon="6.18198">
        <ele>1716.4000244141</ele>
        <time>2013-04-07T13:47:03.000Z</time>
      </trkpt>
      <trkpt lat="45.30155" lon="6.18191">
        <ele>1717</ele>
        <time>2013-04-07T13:47:48.000Z</time>
      </trkpt>
      <trkpt lat="45.30148" lon="6.18187">
        <ele>1717</ele>
        <time>2013-04-07T13:47:57.000Z</time>
      </trkpt>
      <trkpt lat="45.30145" lon="6.18196">
        <ele>1716.8000488281</ele>
        <time>2013-04-07T13:48:01.000Z</time>
      </trkpt>
      <trkpt lat="45.3013" lon="6.18234">
        <ele>1713.8000488281</ele>
        <time>2013-04-07T13:48:05.000Z</time>
      </trkpt>
      <trkpt lat="45.30105" lon="6.18302">
        <ele>1702.8000488281</ele>
        <time>2013-04-07T13:48:11.000Z</time>
      </trkpt>
      <trkpt lat="45.30087" lon="6.18344">
        <ele>1697</ele>
        <time>2013-04-07T13:48:15.000Z</time>
      </trkpt>
      <trkpt lat="45.30072" lon="6.18388">
        <ele>1690</ele>
        <time>2013-04-07T13:48:20.000Z</time>
      </trkpt>
      <trkpt lat="45.30059" lon="6.18409">
        <ele>1687.4000244141</ele>
        <time>2013-04-07T13:48:24.000Z</time>
      </trkpt>
      <trkpt lat="45.30056" lon="6.18411">
        <ele>1686.8000488281</ele>
        <time>2013-04-07T13:48:25.000Z</time>
      </trkpt>
      <trkpt lat="45.30043" lon="6.18426">
        <ele>1684</ele>
        <time>2013-04-07T13:48:31.000Z</time>
      </trkpt>
      <trkpt lat="45.3004" lon="6.1843">
        <ele>1683.5999755859</ele>
        <time>2013-04-07T13:48:32.000Z</time>
      </trkpt>
      <trkpt lat="45.3002" lon="6.18466">
        <ele>1680.5999755859</ele>
        <time>2013-04-07T13:48:38.000Z</time>
      </trkpt>
      <trkpt lat="45.30011" lon="6.18479">
        <ele>1679.5999755859</ele>
        <time>2013-04-07T13:48:40.000Z</time>
      </trkpt>
      <trkpt lat="45.29992" lon="6.1851">
        <ele>1674.4000244141</ele>
        <time>2013-04-07T13:48:44.000Z</time>
      </trkpt>
      <trkpt lat="45.29979" lon="6.18547">
        <ele>1667.5999755859</ele>
        <time>2013-04-07T13:48:48.000Z</time>
      </trkpt>
      <trkpt lat="45.29973" lon="6.18564">
        <ele>1664.4000244141</ele>
        <time>2013-04-07T13:48:50.000Z</time>
      </trkpt>
      <trkpt lat="45.29968" lon="6.186">
        <ele>1660.1999511719</ele>
        <time>2013-04-07T13:48:54.000Z</time>
      </trkpt>
      <trkpt lat="45.2996" lon="6.18644">
        <ele>1654.1999511719</ele>
        <time>2013-04-07T13:49:00.000Z</time>
      </trkpt>
      <trkpt lat="45.29956" lon="6.1866">
        <ele>1651.4000244141</ele>
        <time>2013-04-07T13:49:03.000Z</time>
      </trkpt>
      <trkpt lat="45.29952" lon="6.18669">
        <ele>1650.4000244141</ele>
        <time>2013-04-07T13:49:05.000Z</time>
      </trkpt>
      <trkpt lat="45.29943" lon="6.18684">
        <ele>1647.5999755859</ele>
        <time>2013-04-07T13:49:09.000Z</time>
      </trkpt>
      <trkpt lat="45.29942" lon="6.18686">
        <ele>1646</ele>
        <time>2013-04-07T13:49:13.000Z</time>
      </trkpt>
      <trkpt lat="45.29942" lon="6.18687">
        <ele>1645.5999755859</ele>
        <time>2013-04-07T13:49:16.000Z</time>
      </trkpt>
      <trkpt lat="45.29935" lon="6.187">
        <ele>1645</ele>
        <time>2013-04-07T13:49:22.000Z</time>
      </trkpt>
      <trkpt lat="45.29928" lon="6.1871">
        <ele>1643.1999511719</ele>
        <time>2013-04-07T13:49:26.000Z</time>
      </trkpt>
      <trkpt lat="45.29919" lon="6.18723">
        <ele>1640.5999755859</ele>
        <time>2013-04-07T13:49:30.000Z</time>
      </trkpt>
      <trkpt lat="45.29916" lon="6.18727">
        <ele>1640.5999755859</ele>
        <time>2013-04-07T13:49:31.000Z</time>
      </trkpt>
      <trkpt lat="45.2991" lon="6.18734">
        <ele>1638.4000244141</ele>
        <time>2013-04-07T13:49:34.000Z</time>
      </trkpt>
      <trkpt lat="45.29901" lon="6.18745">
        <ele>1636.1999511719</ele>
        <time>2013-04-07T13:49:38.000Z</time>
      </trkpt>
      <trkpt lat="45.29888" lon="6.18764">
        <ele>1634</ele>
        <time>2013-04-07T13:49:41.000Z</time>
      </trkpt>
      <trkpt lat="45.29874" lon="6.18786">
        <ele>1630.1999511719</ele>
        <time>2013-04-07T13:49:44.000Z</time>
      </trkpt>
      <trkpt lat="45.29862" lon="6.18809">
        <ele>1622.8000488281</ele>
        <time>2013-04-07T13:49:49.000Z</time>
      </trkpt>
      <trkpt lat="45.2986" lon="6.18813">
        <ele>1621.5999755859</ele>
        <time>2013-04-07T13:49:50.000Z</time>
      </trkpt>
      <trkpt lat="45.29852" lon="6.18841">
        <ele>1616.8000488281</ele>
        <time>2013-04-07T13:49:55.000Z</time>
      </trkpt>
      <trkpt lat="45.29847" lon="6.18865">
        <ele>1614.5999755859</ele>
        <time>2013-04-07T13:49:58.000Z</time>
      </trkpt>
      <trkpt lat="45.29843" lon="6.18895">
        <ele>1610.1999511719</ele>
        <time>2013-04-07T13:50:01.000Z</time>
      </trkpt>
      <trkpt lat="45.2984" lon="6.18913">
        <ele>1606.4000244141</ele>
        <time>2013-04-07T13:50:03.000Z</time>
      </trkpt>
      <trkpt lat="45.29838" lon="6.18921">
        <ele>1601.4000244141</ele>
        <time>2013-04-07T13:50:06.000Z</time>
      </trkpt>
      <trkpt lat="45.29838" lon="6.18919">
        <ele>1598.8000488281</ele>
        <time>2013-04-07T13:50:10.000Z</time>
      </trkpt>
      <trkpt lat="45.29836" lon="6.18924">
        <ele>1598.8000488281</ele>
        <time>2013-04-07T13:50:38.000Z</time>
      </trkpt>
      <trkpt lat="45.29834" lon="6.18939">
        <ele>1598</ele>
        <time>2013-04-07T13:50:42.000Z</time>
      </trkpt>
      <trkpt lat="45.29829" lon="6.18966">
        <ele>1595.1999511719</ele>
        <time>2013-04-07T13:50:47.000Z</time>
      </trkpt>
      <trkpt lat="45.29828" lon="6.18971">
        <ele>1593.5999755859</ele>
        <time>2013-04-07T13:50:49.000Z</time>
      </trkpt>
      <trkpt lat="45.29831" lon="6.18968">
        <ele>1591.1999511719</ele>
        <time>2013-04-07T13:50:53.000Z</time>
      </trkpt>
      <trkpt lat="45.29829" lon="6.18983">
        <ele>1590</ele>
        <time>2013-04-07T13:50:58.000Z</time>
      </trkpt>
      <trkpt lat="45.29822" lon="6.19013">
        <ele>1587.1999511719</ele>
        <time>2013-04-07T13:51:03.000Z</time>
      </trkpt>
      <trkpt lat="45.29817" lon="6.19027">
        <ele>1585.4000244141</ele>
        <time>2013-04-07T13:51:05.000Z</time>
      </trkpt>
      <trkpt lat="45.29807" lon="6.19075">
        <ele>1579.4000244141</ele>
        <time>2013-04-07T13:51:10.000Z</time>
      </trkpt>
      <trkpt lat="45.29805" lon="6.19087">
        <ele>1578</ele>
        <time>2013-04-07T13:51:11.000Z</time>
      </trkpt>
      <trkpt lat="45.29798" lon="6.19112">
        <ele>1575</ele>
        <time>2013-04-07T13:51:14.000Z</time>
      </trkpt>
      <trkpt lat="45.29791" lon="6.1914">
        <ele>1568.1999511719</ele>
        <time>2013-04-07T13:51:19.000Z</time>
      </trkpt>
      <trkpt lat="45.29784" lon="6.19156">
        <ele>1563.8000488281</ele>
        <time>2013-04-07T13:51:23.000Z</time>
      </trkpt>
      <trkpt lat="45.2978" lon="6.19165">
        <ele>1561.5999755859</ele>
        <time>2013-04-07T13:51:25.000Z</time>
      </trkpt>
      <trkpt lat="45.29769" lon="6.19207">
        <ele>1555</ele>
        <time>2013-04-07T13:51:31.000Z</time>
      </trkpt>
      <trkpt lat="45.29766" lon="6.19218">
        <ele>1552.4000244141</ele>
        <time>2013-04-07T13:51:33.000Z</time>
      </trkpt>
      <trkpt lat="45.29765" lon="6.19216">
        <ele>1549.5999755859</ele>
        <time>2013-04-07T13:51:37.000Z</time>
      </trkpt>
      <trkpt lat="45.29767" lon="6.19218">
        <ele>1548.8000488281</ele>
        <time>2013-04-07T13:51:44.000Z</time>
      </trkpt>
      <trkpt lat="45.29767" lon="6.19218">
        <ele>1548.8000488281</ele>
        <time>2013-04-07T13:51:45.000Z</time>
      </trkpt>
      <trkpt lat="45.29766" lon="6.19223">
        <ele>1548.5999755859</ele>
        <time>2013-04-07T13:51:49.000Z</time>
      </trkpt>
      <trkpt lat="45.29763" lon="6.19231">
        <ele>1548.8000488281</ele>
        <time>2013-04-07T13:51:53.000Z</time>
      </trkpt>
      <trkpt lat="45.29761" lon="6.19234">
        <ele>1549</ele>
        <time>2013-04-07T13:51:58.000Z</time>
      </trkpt>
      <trkpt lat="45.29757" lon="6.19244">
        <ele>1548.8000488281</ele>
        <time>2013-04-07T13:52:04.000Z</time>
      </trkpt>
      <trkpt lat="45.29758" lon="6.19248">
        <ele>1548.5999755859</ele>
        <time>2013-04-07T13:52:09.000Z</time>
      </trkpt>
      <trkpt lat="45.29755" lon="6.19256">
        <ele>1549</ele>
        <time>2013-04-07T13:52:15.000Z</time>
      </trkpt>
      <trkpt lat="45.29753" lon="6.19263">
        <ele>1549</ele>
        <time>2013-04-07T13:52:21.000Z</time>
      </trkpt>
      <trkpt lat="45.29753" lon="6.19264">
        <ele>1548.8000488281</ele>
        <time>2013-04-07T13:52:24.000Z</time>
      </trkpt>
      <trkpt lat="45.29751" lon="6.19277">
        <ele>1548.5999755859</ele>
        <time>2013-04-07T13:52:28.000Z</time>
      </trkpt>
      <trkpt lat="45.29748" lon="6.19306">
        <ele>1546.5999755859</ele>
        <time>2013-04-07T13:52:32.000Z</time>
      </trkpt>
      <trkpt lat="45.29737" lon="6.19328">
        <ele>1544</ele>
        <time>2013-04-07T13:52:37.000Z</time>
      </trkpt>
      <trkpt lat="45.29725" lon="6.19349">
        <ele>1542.4000244141</ele>
        <time>2013-04-07T13:52:42.000Z</time>
      </trkpt>
      <trkpt lat="45.29723" lon="6.19356">
        <ele>1542</ele>
        <time>2013-04-07T13:52:43.000Z</time>
      </trkpt>
      <trkpt lat="45.29706" lon="6.19391">
        <ele>1538.4000244141</ele>
        <time>2013-04-07T13:52:49.000Z</time>
      </trkpt>
      <trkpt lat="45.29698" lon="6.19403">
        <ele>1537</ele>
        <time>2013-04-07T13:52:52.000Z</time>
      </trkpt>
      <trkpt lat="45.29684" lon="6.1944">
        <ele>1535</ele>
        <time>2013-04-07T13:52:57.000Z</time>
      </trkpt>
      <trkpt lat="45.29671" lon="6.19463">
        <ele>1531.4000244141</ele>
        <time>2013-04-07T13:53:01.000Z</time>
      </trkpt>
      <trkpt lat="45.29662" lon="6.19481">
        <ele>1527.8000488281</ele>
        <time>2013-04-07T13:53:05.000Z</time>
      </trkpt>
      <trkpt lat="45.29656" lon="6.19493">
        <ele>1526.1999511719</ele>
        <time>2013-04-07T13:53:07.000Z</time>
      </trkpt>
      <trkpt lat="45.29649" lon="6.19511">
        <ele>1522</ele>
        <time>2013-04-07T13:53:11.000Z</time>
      </trkpt>
      <trkpt lat="45.29651" lon="6.1951">
        <ele>1519.5999755859</ele>
        <time>2013-04-07T13:53:15.000Z</time>
      </trkpt>
      <trkpt lat="45.29651" lon="6.1951">
        <ele>1519.4000244141</ele>
        <time>2013-04-07T13:53:16.000Z</time>
      </trkpt>
      <trkpt lat="45.29646" lon="6.19523">
        <ele>1519.1999511719</ele>
        <time>2013-04-07T13:53:21.000Z</time>
      </trkpt>
      <trkpt lat="45.29642" lon="6.19537">
        <ele>1518.4000244141</ele>
        <time>2013-04-07T13:53:24.000Z</time>
      </trkpt>
      <trkpt lat="45.29641" lon="6.19546">
        <ele>1517.5999755859</ele>
        <time>2013-04-07T13:53:25.000Z</time>
      </trkpt>
      <trkpt lat="45.29635" lon="6.19563">
        <ele>1515.8000488281</ele>
        <time>2013-04-07T13:53:27.000Z</time>
      </trkpt>
      <trkpt lat="45.29625" lon="6.19582">
        <ele>1512.1999511719</ele>
        <time>2013-04-07T13:53:30.000Z</time>
      </trkpt>
      <trkpt lat="45.29605" lon="6.19619">
        <ele>1505.4000244141</ele>
        <time>2013-04-07T13:53:36.000Z</time>
      </trkpt>
      <trkpt lat="45.29588" lon="6.19644">
        <ele>1501.4000244141</ele>
        <time>2013-04-07T13:53:40.000Z</time>
      </trkpt>
      <trkpt lat="45.29588" lon="6.19645">
        <ele>1500</ele>
        <time>2013-04-07T13:53:42.000Z</time>
      </trkpt>
      <trkpt lat="45.29587" lon="6.19651">
        <ele>1498.1999511719</ele>
        <time>2013-04-07T13:54:04.000Z</time>
      </trkpt>
      <trkpt lat="45.29588" lon="6.19656">
        <ele>1497.1999511719</ele>
        <time>2013-04-07T13:54:06.000Z</time>
      </trkpt>
      <trkpt lat="45.29583" lon="6.19673">
        <ele>1495.4000244141</ele>
        <time>2013-04-07T13:54:09.000Z</time>
      </trkpt>
      <trkpt lat="45.29582" lon="6.19678">
        <ele>1494.5999755859</ele>
        <time>2013-04-07T13:54:10.000Z</time>
      </trkpt>
      <trkpt lat="45.29573" lon="6.19705">
        <ele>1490</ele>
        <time>2013-04-07T13:54:14.000Z</time>
      </trkpt>
      <trkpt lat="45.29572" lon="6.19705">
        <ele>1488.4000244141</ele>
        <time>2013-04-07T13:54:16.000Z</time>
      </trkpt>
      <trkpt lat="45.29574" lon="6.19705">
        <ele>1485.5999755859</ele>
        <time>2013-04-07T13:54:27.000Z</time>
      </trkpt>
      <trkpt lat="45.29574" lon="6.19721">
        <ele>1482.8000488281</ele>
        <time>2013-04-07T13:54:31.000Z</time>
      </trkpt>
      <trkpt lat="45.29573" lon="6.19726">
        <ele>1481.8000488281</ele>
        <time>2013-04-07T13:54:32.000Z</time>
      </trkpt>
      <trkpt lat="45.29567" lon="6.19741">
        <ele>1480</ele>
        <time>2013-04-07T13:54:35.000Z</time>
      </trkpt>
      <trkpt lat="45.29563" lon="6.19747">
        <ele>1479.1999511719</ele>
        <time>2013-04-07T13:54:36.000Z</time>
      </trkpt>
      <trkpt lat="45.29548" lon="6.19774">
        <ele>1475.4000244141</ele>
        <time>2013-04-07T13:54:41.000Z</time>
      </trkpt>
      <trkpt lat="45.29541" lon="6.19789">
        <ele>1473.1999511719</ele>
        <time>2013-04-07T13:54:45.000Z</time>
      </trkpt>
      <trkpt lat="45.29537" lon="6.19803">
        <ele>1471</ele>
        <time>2013-04-07T13:54:48.000Z</time>
      </trkpt>
      <trkpt lat="45.29527" lon="6.19835">
        <ele>1467.5999755859</ele>
        <time>2013-04-07T13:54:51.000Z</time>
      </trkpt>
      <trkpt lat="45.2952" lon="6.19849">
        <ele>1465.4000244141</ele>
        <time>2013-04-07T13:54:53.000Z</time>
      </trkpt>
      <trkpt lat="45.29506" lon="6.19879">
        <ele>1461.1999511719</ele>
        <time>2013-04-07T13:54:57.000Z</time>
      </trkpt>
      <trkpt lat="45.295" lon="6.19896">
        <ele>1459</ele>
        <time>2013-04-07T13:55:00.000Z</time>
      </trkpt>
      <trkpt lat="45.29496" lon="6.19921">
        <ele>1453.1999511719</ele>
        <time>2013-04-07T13:55:05.000Z</time>
      </trkpt>
      <trkpt lat="45.29489" lon="6.19944">
        <ele>1448.8000488281</ele>
        <time>2013-04-07T13:55:10.000Z</time>
      </trkpt>
      <trkpt lat="45.29485" lon="6.19957">
        <ele>1447.4000244141</ele>
        <time>2013-04-07T13:55:12.000Z</time>
      </trkpt>
      <trkpt lat="45.29479" lon="6.19982">
        <ele>1443.5999755859</ele>
        <time>2013-04-07T13:55:17.000Z</time>
      </trkpt>
      <trkpt lat="45.29478" lon="6.19992">
        <ele>1442</ele>
        <time>2013-04-07T13:55:19.000Z</time>
      </trkpt>
      <trkpt lat="45.29478" lon="6.20003">
        <ele>1440.4000244141</ele>
        <time>2013-04-07T13:55:21.000Z</time>
      </trkpt>
      <trkpt lat="45.29472" lon="6.20006">
        <ele>1438.4000244141</ele>
        <time>2013-04-07T13:55:25.000Z</time>
      </trkpt>
      <trkpt lat="45.2947" lon="6.20008">
        <ele>1437.5999755859</ele>
        <time>2013-04-07T13:55:27.000Z</time>
      </trkpt>
      <trkpt lat="45.29471" lon="6.20022">
        <ele>1436</ele>
        <time>2013-04-07T13:55:31.000Z</time>
      </trkpt>
      <trkpt lat="45.29467" lon="6.20028">
        <ele>1434.4000244141</ele>
        <time>2013-04-07T13:55:34.000Z</time>
      </trkpt>
      <trkpt lat="45.29465" lon="6.20031">
        <ele>1433</ele>
        <time>2013-04-07T13:55:37.000Z</time>
      </trkpt>
      <trkpt lat="45.29472" lon="6.20038">
        <ele>1431.5999755859</ele>
        <time>2013-04-07T13:55:41.000Z</time>
      </trkpt>
      <trkpt lat="45.29475" lon="6.20074">
        <ele>1426.1999511719</ele>
        <time>2013-04-07T13:55:46.000Z</time>
      </trkpt>
      <trkpt lat="45.29478" lon="6.20109">
        <ele>1422</ele>
        <time>2013-04-07T13:55:50.000Z</time>
      </trkpt>
      <trkpt lat="45.29478" lon="6.20117">
        <ele>1421</ele>
        <time>2013-04-07T13:55:51.000Z</time>
      </trkpt>
      <trkpt lat="45.29472" lon="6.20159">
        <ele>1416</ele>
        <time>2013-04-07T13:55:56.000Z</time>
      </trkpt>
      <trkpt lat="45.29462" lon="6.20181">
        <ele>1413.4000244141</ele>
        <time>2013-04-07T13:56:00.000Z</time>
      </trkpt>
      <trkpt lat="45.29454" lon="6.2021">
        <ele>1411.4000244141</ele>
        <time>2013-04-07T13:56:04.000Z</time>
      </trkpt>
      <trkpt lat="45.29438" lon="6.20235">
        <ele>1409.4000244141</ele>
        <time>2013-04-07T13:56:08.000Z</time>
      </trkpt>
      <trkpt lat="45.29418" lon="6.20256">
        <ele>1406.4000244141</ele>
        <time>2013-04-07T13:56:13.000Z</time>
      </trkpt>
      <trkpt lat="45.29412" lon="6.20274">
        <ele>1405</ele>
        <time>2013-04-07T13:56:16.000Z</time>
      </trkpt>
      <trkpt lat="45.29412" lon="6.20299">
        <ele>1401.8000488281</ele>
        <time>2013-04-07T13:56:19.000Z</time>
      </trkpt>
      <trkpt lat="45.29411" lon="6.20341">
        <ele>1395.8000488281</ele>
        <time>2013-04-07T13:56:24.000Z</time>
      </trkpt>
      <trkpt lat="45.29411" lon="6.20351">
        <ele>1394.5999755859</ele>
        <time>2013-04-07T13:56:25.000Z</time>
      </trkpt>
      <trkpt lat="45.29414" lon="6.204">
        <ele>1389.5999755859</ele>
        <time>2013-04-07T13:56:30.000Z</time>
      </trkpt>
      <trkpt lat="45.29418" lon="6.20434">
        <ele>1385.5999755859</ele>
        <time>2013-04-07T13:56:36.000Z</time>
      </trkpt>
      <trkpt lat="45.29417" lon="6.20455">
        <ele>1384</ele>
        <time>2013-04-07T13:56:39.000Z</time>
      </trkpt>
      <trkpt lat="45.29403" lon="6.20502">
        <ele>1380.4000244141</ele>
        <time>2013-04-07T13:56:45.000Z</time>
      </trkpt>
      <trkpt lat="45.29392" lon="6.2053">
        <ele>1377.4000244141</ele>
        <time>2013-04-07T13:56:49.000Z</time>
      </trkpt>
      <trkpt lat="45.29389" lon="6.20562">
        <ele>1373.5999755859</ele>
        <time>2013-04-07T13:56:54.000Z</time>
      </trkpt>
      <trkpt lat="45.2939" lon="6.20577">
        <ele>1372.1999511719</ele>
        <time>2013-04-07T13:56:56.000Z</time>
      </trkpt>
      <trkpt lat="45.2939" lon="6.20611">
        <ele>1368.1999511719</ele>
        <time>2013-04-07T13:57:01.000Z</time>
      </trkpt>
      <trkpt lat="45.29389" lon="6.20621">
        <ele>1366</ele>
        <time>2013-04-07T13:57:05.000Z</time>
      </trkpt>
      <trkpt lat="45.29399" lon="6.2063">
        <ele>1365.5999755859</ele>
        <time>2013-04-07T13:57:48.000Z</time>
      </trkpt>
      <trkpt lat="45.29397" lon="6.20625">
        <ele>1365.5999755859</ele>
        <time>2013-04-07T13:58:04.000Z</time>
      </trkpt>
      <trkpt lat="45.29387" lon="6.20627">
        <ele>1365.8000488281</ele>
        <time>2013-04-07T13:58:12.000Z</time>
      </trkpt>
      <trkpt lat="45.29384" lon="6.20626">
        <ele>1366</ele>
        <time>2013-04-07T13:58:23.000Z</time>
      </trkpt>
      <trkpt lat="45.29382" lon="6.20619">
        <ele>1366</ele>
        <time>2013-04-07T13:58:39.000Z</time>
      </trkpt>
      <trkpt lat="45.2938" lon="6.20622">
        <ele>1365.8000488281</ele>
        <time>2013-04-07T13:58:41.000Z</time>
      </trkpt>
      <trkpt lat="45.29373" lon="6.2064">
        <ele>1365</ele>
        <time>2013-04-07T13:58:46.000Z</time>
      </trkpt>
      <trkpt lat="45.29361" lon="6.20661">
        <ele>1363.8000488281</ele>
        <time>2013-04-07T13:58:50.000Z</time>
      </trkpt>
      <trkpt lat="45.29354" lon="6.20677">
        <ele>1362</ele>
        <time>2013-04-07T13:58:55.000Z</time>
      </trkpt>
      <trkpt lat="45.29347" lon="6.20686">
        <ele>1361.5999755859</ele>
        <time>2013-04-07T13:58:59.000Z</time>
      </trkpt>
      <trkpt lat="45.29346" lon="6.20692">
        <ele>1361.5999755859</ele>
        <time>2013-04-07T13:59:01.000Z</time>
      </trkpt>
      <trkpt lat="45.29346" lon="6.20713">
        <ele>1361</ele>
        <time>2013-04-07T13:59:07.000Z</time>
      </trkpt>
      <trkpt lat="45.29344" lon="6.20728">
        <ele>1360.4000244141</ele>
        <time>2013-04-07T13:59:12.000Z</time>
      </trkpt>
      <trkpt lat="45.29348" lon="6.20749">
        <ele>1359.4000244141</ele>
        <time>2013-04-07T13:59:16.000Z</time>
      </trkpt>
      <trkpt lat="45.29347" lon="6.2078">
        <ele>1356.1999511719</ele>
        <time>2013-04-07T13:59:21.000Z</time>
      </trkpt>
      <trkpt lat="45.29352" lon="6.20794">
        <ele>1354.4000244141</ele>
        <time>2013-04-07T13:59:23.000Z</time>
      </trkpt>
      <trkpt lat="45.29366" lon="6.20824">
        <ele>1349.8000488281</ele>
        <time>2013-04-07T13:59:27.000Z</time>
      </trkpt>
      <trkpt lat="45.29361" lon="6.20844">
        <ele>1346</ele>
        <time>2013-04-07T13:59:30.000Z</time>
      </trkpt>
      <trkpt lat="45.29356" lon="6.20864">
        <ele>1342.5999755859</ele>
        <time>2013-04-07T13:59:33.000Z</time>
      </trkpt>
      <trkpt lat="45.29351" lon="6.20886">
        <ele>1338.5999755859</ele>
        <time>2013-04-07T13:59:38.000Z</time>
      </trkpt>
      <trkpt lat="45.29342" lon="6.20918">
        <ele>1333.4000244141</ele>
        <time>2013-04-07T13:59:43.000Z</time>
      </trkpt>
      <trkpt lat="45.29321" lon="6.20951">
        <ele>1326.8000488281</ele>
        <time>2013-04-07T13:59:49.000Z</time>
      </trkpt>
      <trkpt lat="45.29311" lon="6.20962">
        <ele>1324.5999755859</ele>
        <time>2013-04-07T13:59:53.000Z</time>
      </trkpt>
      <trkpt lat="45.29314" lon="6.2096">
        <ele>1323.5999755859</ele>
        <time>2013-04-07T13:59:55.000Z</time>
      </trkpt>
      <trkpt lat="45.29313" lon="6.2097">
        <ele>1318.8000488281</ele>
        <time>2013-04-07T13:59:59.000Z</time>
      </trkpt>
      <trkpt lat="45.29319" lon="6.20969">
        <ele>1315.1999511719</ele>
        <time>2013-04-07T14:00:03.000Z</time>
      </trkpt>
      <trkpt lat="45.29321" lon="6.2097">
        <ele>1313.5999755859</ele>
        <time>2013-04-07T14:00:07.000Z</time>
      </trkpt>
      <trkpt lat="45.29323" lon="6.20991">
        <ele>1311.1999511719</ele>
        <time>2013-04-07T14:00:12.000Z</time>
      </trkpt>
      <trkpt lat="45.29324" lon="6.20998">
        <ele>1310</ele>
        <time>2013-04-07T14:00:13.000Z</time>
      </trkpt>
      <trkpt lat="45.29323" lon="6.21047">
        <ele>1302.8000488281</ele>
        <time>2013-04-07T14:00:18.000Z</time>
      </trkpt>
      <trkpt lat="45.2933" lon="6.21077">
        <ele>1296.8000488281</ele>
        <time>2013-04-07T14:00:22.000Z</time>
      </trkpt>
      <trkpt lat="45.29333" lon="6.21083">
        <ele>1295.4000244141</ele>
        <time>2013-04-07T14:00:23.000Z</time>
      </trkpt>
      <trkpt lat="45.2933" lon="6.21133">
        <ele>1287.5999755859</ele>
        <time>2013-04-07T14:00:28.000Z</time>
      </trkpt>
      <trkpt lat="45.29331" lon="6.21146">
        <ele>1287.5999755859</ele>
        <time>2013-04-07T14:00:29.000Z</time>
      </trkpt>
      <trkpt lat="45.29326" lon="6.21169">
        <ele>1284.5999755859</ele>
        <time>2013-04-07T14:00:31.000Z</time>
      </trkpt>
      <trkpt lat="45.29319" lon="6.21192">
        <ele>1280.5999755859</ele>
        <time>2013-04-07T14:00:34.000Z</time>
      </trkpt>
      <trkpt lat="45.29305" lon="6.21226">
        <ele>1274.8000488281</ele>
        <time>2013-04-07T14:00:39.000Z</time>
      </trkpt>
      <trkpt lat="45.29301" lon="6.21237">
        <ele>1272.4000244141</ele>
        <time>2013-04-07T14:00:41.000Z</time>
      </trkpt>
      <trkpt lat="45.29294" lon="6.21264">
        <ele>1266</ele>
        <time>2013-04-07T14:00:47.000Z</time>
      </trkpt>
      <trkpt lat="45.29291" lon="6.21274">
        <ele>1264.1999511719</ele>
        <time>2013-04-07T14:00:51.000Z</time>
      </trkpt>
      <trkpt lat="45.29291" lon="6.21278">
        <ele>1264</ele>
        <time>2013-04-07T14:00:54.000Z</time>
      </trkpt>
      <trkpt lat="45.29275" lon="6.21294">
        <ele>1261.1999511719</ele>
        <time>2013-04-07T14:01:00.000Z</time>
      </trkpt>
      <trkpt lat="45.29266" lon="6.213">
        <ele>1259.1999511719</ele>
        <time>2013-04-07T14:01:02.000Z</time>
      </trkpt>
      <trkpt lat="45.29242" lon="6.21335">
        <ele>1253.8000488281</ele>
        <time>2013-04-07T14:01:07.000Z</time>
      </trkpt>
      <trkpt lat="45.29238" lon="6.2134">
        <ele>1251.1999511719</ele>
        <time>2013-04-07T14:01:10.000Z</time>
      </trkpt>
      <trkpt lat="45.29238" lon="6.2134">
        <ele>1250.4000244141</ele>
        <time>2013-04-07T14:01:11.000Z</time>
      </trkpt>
      <trkpt lat="45.2924" lon="6.21347">
        <ele>1248.4000244141</ele>
        <time>2013-04-07T14:01:18.000Z</time>
      </trkpt>
      <trkpt lat="45.2924" lon="6.21349">
        <ele>1248.4000244141</ele>
        <time>2013-04-07T14:01:19.000Z</time>
      </trkpt>
      <trkpt lat="45.29244" lon="6.21361">
        <ele>1247.4000244141</ele>
        <time>2013-04-07T14:01:23.000Z</time>
      </trkpt>
      <trkpt lat="45.29255" lon="6.21381">
        <ele>1242.4000244141</ele>
        <time>2013-04-07T14:01:28.000Z</time>
      </trkpt>
      <trkpt lat="45.29246" lon="6.2139">
        <ele>1238.4000244141</ele>
        <time>2013-04-07T14:01:31.000Z</time>
      </trkpt>
      <trkpt lat="45.29243" lon="6.21391">
        <ele>1237.1999511719</ele>
        <time>2013-04-07T14:01:32.000Z</time>
      </trkpt>
      <trkpt lat="45.29231" lon="6.214">
        <ele>1232.1999511719</ele>
        <time>2013-04-07T14:01:37.000Z</time>
      </trkpt>
      <trkpt lat="45.29233" lon="6.214">
        <ele>1228.4000244141</ele>
        <time>2013-04-07T14:01:44.000Z</time>
      </trkpt>
      <trkpt lat="45.29221" lon="6.21409">
        <ele>1228.1999511719</ele>
        <time>2013-04-07T14:01:53.000Z</time>
      </trkpt>
      <trkpt lat="45.29229" lon="6.21412">
        <ele>1228.5999755859</ele>
        <time>2013-04-07T14:02:43.000Z</time>
      </trkpt>
      <trkpt lat="45.29221" lon="6.21417">
        <ele>1227.5999755859</ele>
        <time>2013-04-07T14:02:50.000Z</time>
      </trkpt>
      <trkpt lat="45.29214" lon="6.21427">
        <ele>1223.5999755859</ele>
        <time>2013-04-07T14:03:01.000Z</time>
      </trkpt>
      <trkpt lat="45.29215" lon="6.21429">
        <ele>1222.1999511719</ele>
        <time>2013-04-07T14:03:04.000Z</time>
      </trkpt>
      <trkpt lat="45.29208" lon="6.2143">
        <ele>1221.4000244141</ele>
        <time>2013-04-07T14:03:20.000Z</time>
      </trkpt>
      <trkpt lat="45.29203" lon="6.21443">
        <ele>1219</ele>
        <time>2013-04-07T14:03:29.000Z</time>
      </trkpt>
      <trkpt lat="45.29202" lon="6.21448">
        <ele>1216</ele>
        <time>2013-04-07T14:03:44.000Z</time>
      </trkpt>
      <trkpt lat="45.29205" lon="6.21449">
        <ele>1214</ele>
        <time>2013-04-07T14:03:52.000Z</time>
      </trkpt>
      <trkpt lat="45.29211" lon="6.21439">
        <ele>1215.4000244141</ele>
        <time>2013-04-07T14:04:03.000Z</time>
      </trkpt>
      <trkpt lat="45.292" lon="6.21448">
        <ele>1215.1999511719</ele>
        <time>2013-04-07T14:04:20.000Z</time>
      </trkpt>
      <trkpt lat="45.29198" lon="6.21456">
        <ele>1213.8000488281</ele>
        <time>2013-04-07T14:04:30.000Z</time>
      </trkpt>
      <trkpt lat="45.29191" lon="6.21462">
        <ele>1212.5999755859</ele>
        <time>2013-04-07T14:04:34.000Z</time>
      </trkpt>
      <trkpt lat="45.29187" lon="6.21469">
        <ele>1211</ele>
        <time>2013-04-07T14:04:38.000Z</time>
      </trkpt>
      <trkpt lat="45.2918" lon="6.21476">
        <ele>1209.4000244141</ele>
        <time>2013-04-07T14:04:43.000Z</time>
      </trkpt>
      <trkpt lat="45.29178" lon="6.2148">
        <ele>1207.8000488281</ele>
        <time>2013-04-07T14:04:48.000Z</time>
      </trkpt>
      <trkpt lat="45.29177" lon="6.21484">
        <ele>1207.4000244141</ele>
        <time>2013-04-07T14:04:50.000Z</time>
      </trkpt>
      <trkpt lat="45.29179" lon="6.21488">
        <ele>1206.5999755859</ele>
        <time>2013-04-07T14:04:54.000Z</time>
      </trkpt>
      <trkpt lat="45.29182" lon="6.21494">
        <ele>1206</ele>
        <time>2013-04-07T14:04:59.000Z</time>
      </trkpt>
      <trkpt lat="45.29167" lon="6.21505">
        <ele>1203.1999511719</ele>
        <time>2013-04-07T14:05:34.000Z</time>
      </trkpt>
      <trkpt lat="45.2916" lon="6.21507">
        <ele>1201.5999755859</ele>
        <time>2013-04-07T14:05:40.000Z</time>
      </trkpt>
      <trkpt lat="45.29154" lon="6.21512">
        <ele>1199.8000488281</ele>
        <time>2013-04-07T14:05:45.000Z</time>
      </trkpt>
      <trkpt lat="45.29153" lon="6.2152">
        <ele>1197.8000488281</ele>
        <time>2013-04-07T14:05:50.000Z</time>
      </trkpt>
      <trkpt lat="45.29152" lon="6.21521">
        <ele>1197.4000244141</ele>
        <time>2013-04-07T14:05:51.000Z</time>
      </trkpt>
      <trkpt lat="45.29148" lon="6.21526">
        <ele>1195.4000244141</ele>
        <time>2013-04-07T14:05:56.000Z</time>
      </trkpt>
      <trkpt lat="45.29143" lon="6.21534">
        <ele>1193.8000488281</ele>
        <time>2013-04-07T14:06:02.000Z</time>
      </trkpt>
      <trkpt lat="45.29137" lon="6.21538">
        <ele>1191.5999755859</ele>
        <time>2013-04-07T14:06:08.000Z</time>
      </trkpt>
      <trkpt lat="45.29135" lon="6.21543">
        <ele>1191</ele>
        <time>2013-04-07T14:06:10.000Z</time>
      </trkpt>
      <trkpt lat="45.29131" lon="6.21549">
        <ele>1189.1999511719</ele>
        <time>2013-04-07T14:06:16.000Z</time>
      </trkpt>
      <trkpt lat="45.29127" lon="6.21564">
        <ele>1187.4000244141</ele>
        <time>2013-04-07T14:06:22.000Z</time>
      </trkpt>
      <trkpt lat="45.29127" lon="6.21565">
        <ele>1187.4000244141</ele>
        <time>2013-04-07T14:06:23.000Z</time>
      </trkpt>
      <trkpt lat="45.29127" lon="6.21574">
        <ele>1184.5999755859</ele>
        <time>2013-04-07T14:06:29.000Z</time>
      </trkpt>
      <trkpt lat="45.29126" lon="6.21577">
        <ele>1184</ele>
        <time>2013-04-07T14:06:31.000Z</time>
      </trkpt>
      <trkpt lat="45.29119" lon="6.21588">
        <ele>1182.5999755859</ele>
        <time>2013-04-07T14:06:35.000Z</time>
      </trkpt>
      <trkpt lat="45.29117" lon="6.21589">
        <ele>1182</ele>
        <time>2013-04-07T14:06:37.000Z</time>
      </trkpt>
      <trkpt lat="45.29114" lon="6.21599">
        <ele>1180.8000488281</ele>
        <time>2013-04-07T14:06:41.000Z</time>
      </trkpt>
      <trkpt lat="45.2911" lon="6.21605">
        <ele>1179.1999511719</ele>
        <time>2013-04-07T14:06:46.000Z</time>
      </trkpt>
      <trkpt lat="45.2911" lon="6.21608">
        <ele>1179</ele>
        <time>2013-04-07T14:06:48.000Z</time>
      </trkpt>
      <trkpt lat="45.29106" lon="6.21616">
        <ele>1177.5999755859</ele>
        <time>2013-04-07T14:06:52.000Z</time>
      </trkpt>
      <trkpt lat="45.29106" lon="6.21622">
        <ele>1176.1999511719</ele>
        <time>2013-04-07T14:06:57.000Z</time>
      </trkpt>
      <trkpt lat="45.29102" lon="6.21628">
        <ele>1175</ele>
        <time>2013-04-07T14:07:01.000Z</time>
      </trkpt>
      <trkpt lat="45.29099" lon="6.21638">
        <ele>1173.5999755859</ele>
        <time>2013-04-07T14:07:06.000Z</time>
      </trkpt>
      <trkpt lat="45.29095" lon="6.21647">
        <ele>1171.4000244141</ele>
        <time>2013-04-07T14:07:12.000Z</time>
      </trkpt>
      <trkpt lat="45.29093" lon="6.21649">
        <ele>1171</ele>
        <time>2013-04-07T14:07:13.000Z</time>
      </trkpt>
      <trkpt lat="45.29082" lon="6.21661">
        <ele>1168.5999755859</ele>
        <time>2013-04-07T14:07:19.000Z</time>
      </trkpt>
      <trkpt lat="45.29073" lon="6.21667">
        <ele>1166.4000244141</ele>
        <time>2013-04-07T14:07:24.000Z</time>
      </trkpt>
      <trkpt lat="45.2907" lon="6.21677">
        <ele>1165.1999511719</ele>
        <time>2013-04-07T14:07:28.000Z</time>
      </trkpt>
      <trkpt lat="45.29067" lon="6.21682">
        <ele>1163.8000488281</ele>
        <time>2013-04-07T14:07:33.000Z</time>
      </trkpt>
      <trkpt lat="45.29067" lon="6.21683">
        <ele>1163.8000488281</ele>
        <time>2013-04-07T14:07:34.000Z</time>
      </trkpt>
      <trkpt lat="45.29063" lon="6.21684">
        <ele>1163.1999511719</ele>
        <time>2013-04-07T14:07:40.000Z</time>
      </trkpt>
      <trkpt lat="45.29063" lon="6.21689">
        <ele>1162.5999755859</ele>
        <time>2013-04-07T14:07:46.000Z</time>
      </trkpt>
      <trkpt lat="45.29056" lon="6.21694">
        <ele>1161.8000488281</ele>
        <time>2013-04-07T14:07:53.000Z</time>
      </trkpt>
      <trkpt lat="45.29058" lon="6.21698">
        <ele>1161.4000244141</ele>
        <time>2013-04-07T14:07:58.000Z</time>
      </trkpt>
      <trkpt lat="45.29058" lon="6.21701">
        <ele>1161.1999511719</ele>
        <time>2013-04-07T14:08:03.000Z</time>
      </trkpt>
      <trkpt lat="45.29061" lon="6.21701">
        <ele>1161</ele>
        <time>2013-04-07T14:08:17.000Z</time>
      </trkpt>
      <trkpt lat="45.29054" lon="6.21708">
        <ele>1160.5999755859</ele>
        <time>2013-04-07T14:08:25.000Z</time>
      </trkpt>
      <trkpt lat="45.29046" lon="6.21709">
        <ele>1160</ele>
        <time>2013-04-07T14:08:32.000Z</time>
      </trkpt>
      <trkpt lat="45.29045" lon="6.2171">
        <ele>1160</ele>
        <time>2013-04-07T14:08:34.000Z</time>
      </trkpt>
      <trkpt lat="45.29038" lon="6.21713">
        <ele>1158.8000488281</ele>
        <time>2013-04-07T14:08:42.000Z</time>
      </trkpt>
      <trkpt lat="45.29028" lon="6.2172">
        <ele>1158.1999511719</ele>
        <time>2013-04-07T14:08:47.000Z</time>
      </trkpt>
      <trkpt lat="45.29023" lon="6.21718">
        <ele>1158.8000488281</ele>
        <time>2013-04-07T14:08:54.000Z</time>
      </trkpt>
      <trkpt lat="45.2902" lon="6.21715">
        <ele>1159</ele>
        <time>2013-04-07T14:08:57.000Z</time>
      </trkpt>
      <trkpt lat="45.29017" lon="6.21714">
        <ele>1159.5999755859</ele>
        <time>2013-04-07T14:09:03.000Z</time>
      </trkpt>
      <trkpt lat="45.29015" lon="6.21713">
        <ele>1159.8000488281</ele>
        <time>2013-04-07T14:09:05.000Z</time>
      </trkpt>
      <trkpt lat="45.2901" lon="6.21714">
        <ele>1160.1999511719</ele>
        <time>2013-04-07T14:09:10.000Z</time>
      </trkpt>
      <trkpt lat="45.29011" lon="6.21711">
        <ele>1160.4000244141</ele>
        <time>2013-04-07T14:09:16.000Z</time>
      </trkpt>
      <trkpt lat="45.29008" lon="6.21717">
        <ele>1160.8000488281</ele>
        <time>2013-04-07T14:10:57.000Z</time>
      </trkpt>
    </trkseg>
  </trk>
</gpx>